<?xml version="1.0" encoding="UTF-8" standalone="no" ?>
<gpx xmlns="http://www.topografix.com/GPX/1/1" xmlns:xsi="http://www.w3.org/2001/XMLSchema-instance" xsi:schemaLocation="http://www.topografix.com/GPX/1/1 http://www.topografix.com/GPX/1/1/gpx.xsd" version="1.1" creator="VisuGPX - https://www.visugpx.com">
  <metadata>
    <name>11333576-Roc du Bougre</name>
    <desc><![CDATA[Une belle sortie en Occitanie.]]></desc>
  </metadata>
  <trk>
    <name><![CDATA[11333576-Roc du Bougre]]></name>
    <trkseg>
      <trkpt lat="43.21697" lon="2.4784">
        <ele>125</ele>
        <time>2020-06-07T09:14:02Z</time>
      </trkpt>
      <trkpt lat="43.21707" lon="2.47718">
        <ele>125</ele>
        <time>2020-06-07T09:14:18Z</time>
      </trkpt>
      <trkpt lat="43.21707" lon="2.47689">
        <ele>124</ele>
        <time>2020-06-07T09:14:22Z</time>
      </trkpt>
      <trkpt lat="43.21706" lon="2.47665">
        <ele>124</ele>
        <time>2020-06-07T09:14:25Z</time>
      </trkpt>
      <trkpt lat="43.21701" lon="2.47642">
        <ele>124</ele>
        <time>2020-06-07T09:14:28Z</time>
      </trkpt>
      <trkpt lat="43.21686" lon="2.47584">
        <ele>123</ele>
        <time>2020-06-07T09:14:36Z</time>
      </trkpt>
      <trkpt lat="43.21676" lon="2.47533">
        <ele>124</ele>
        <time>2020-06-07T09:14:43Z</time>
      </trkpt>
      <trkpt lat="43.21675" lon="2.47515">
        <ele>124</ele>
        <time>2020-06-07T09:14:45Z</time>
      </trkpt>
      <trkpt lat="43.21678" lon="2.47411">
        <ele>124</ele>
        <time>2020-06-07T09:14:59Z</time>
      </trkpt>
      <trkpt lat="43.21678" lon="2.47368">
        <ele>122</ele>
        <time>2020-06-07T09:15:04Z</time>
      </trkpt>
      <trkpt lat="43.21676" lon="2.47361">
        <ele>122</ele>
        <time>2020-06-07T09:15:05Z</time>
      </trkpt>
      <trkpt lat="43.21671" lon="2.47356">
        <ele>122</ele>
        <time>2020-06-07T09:15:06Z</time>
      </trkpt>
      <trkpt lat="43.21653" lon="2.4735">
        <ele>121</ele>
        <time>2020-06-07T09:15:10Z</time>
      </trkpt>
      <trkpt lat="43.21643" lon="2.47344">
        <ele>121</ele>
        <time>2020-06-07T09:15:11Z</time>
      </trkpt>
      <trkpt lat="43.2163" lon="2.47332">
        <ele>120</ele>
        <time>2020-06-07T09:15:14Z</time>
      </trkpt>
      <trkpt lat="43.21623" lon="2.47318">
        <ele>120</ele>
        <time>2020-06-07T09:15:16Z</time>
      </trkpt>
      <trkpt lat="43.21614" lon="2.47276">
        <ele>121</ele>
        <time>2020-06-07T09:15:22Z</time>
      </trkpt>
      <trkpt lat="43.2161" lon="2.47267">
        <ele>121</ele>
        <time>2020-06-07T09:15:23Z</time>
      </trkpt>
      <trkpt lat="43.21604" lon="2.4726">
        <ele>122</ele>
        <time>2020-06-07T09:15:25Z</time>
      </trkpt>
      <trkpt lat="43.2159" lon="2.47252">
        <ele>122</ele>
        <time>2020-06-07T09:15:28Z</time>
      </trkpt>
      <trkpt lat="43.21546" lon="2.47233">
        <ele>123</ele>
        <time>2020-06-07T09:15:36Z</time>
      </trkpt>
      <trkpt lat="43.21524" lon="2.47227">
        <ele>123</ele>
        <time>2020-06-07T09:15:40Z</time>
      </trkpt>
      <trkpt lat="43.21387" lon="2.4723">
        <ele>121</ele>
        <time>2020-06-07T09:16:04Z</time>
      </trkpt>
      <trkpt lat="43.21362" lon="2.47226">
        <ele>121</ele>
        <time>2020-06-07T09:16:09Z</time>
      </trkpt>
      <trkpt lat="43.21344" lon="2.47218">
        <ele>122</ele>
        <time>2020-06-07T09:16:12Z</time>
      </trkpt>
      <trkpt lat="43.21329" lon="2.47207">
        <ele>122</ele>
        <time>2020-06-07T09:16:15Z</time>
      </trkpt>
      <trkpt lat="43.2132" lon="2.47197">
        <ele>122</ele>
        <time>2020-06-07T09:16:17Z</time>
      </trkpt>
      <trkpt lat="43.21312" lon="2.47185">
        <ele>122</ele>
        <time>2020-06-07T09:16:19Z</time>
      </trkpt>
      <trkpt lat="43.21305" lon="2.47167">
        <ele>123</ele>
        <time>2020-06-07T09:16:22Z</time>
      </trkpt>
      <trkpt lat="43.213" lon="2.47147">
        <ele>122</ele>
        <time>2020-06-07T09:16:25Z</time>
      </trkpt>
      <trkpt lat="43.21299" lon="2.47127">
        <ele>122</ele>
        <time>2020-06-07T09:16:27Z</time>
      </trkpt>
      <trkpt lat="43.213" lon="2.4711">
        <ele>122</ele>
        <time>2020-06-07T09:16:29Z</time>
      </trkpt>
      <trkpt lat="43.21303" lon="2.47089">
        <ele>122</ele>
        <time>2020-06-07T09:16:32Z</time>
      </trkpt>
      <trkpt lat="43.21362" lon="2.46883">
        <ele>122</ele>
        <time>2020-06-07T09:17:01Z</time>
      </trkpt>
      <trkpt lat="43.21369" lon="2.46854">
        <ele>122</ele>
        <time>2020-06-07T09:17:05Z</time>
      </trkpt>
      <trkpt lat="43.21371" lon="2.46836">
        <ele>122</ele>
        <time>2020-06-07T09:17:07Z</time>
      </trkpt>
      <trkpt lat="43.21369" lon="2.46797">
        <ele>121</ele>
        <time>2020-06-07T09:17:12Z</time>
      </trkpt>
      <trkpt lat="43.21293" lon="2.46437">
        <ele>108</ele>
        <time>2020-06-07T09:18:01Z</time>
      </trkpt>
      <trkpt lat="43.21282" lon="2.4636">
        <ele>107</ele>
        <time>2020-06-07T09:18:11Z</time>
      </trkpt>
      <trkpt lat="43.21274" lon="2.46268">
        <ele>107</ele>
        <time>2020-06-07T09:18:23Z</time>
      </trkpt>
      <trkpt lat="43.2127" lon="2.4624">
        <ele>107</ele>
        <time>2020-06-07T09:18:27Z</time>
      </trkpt>
      <trkpt lat="43.21263" lon="2.46209">
        <ele>107</ele>
        <time>2020-06-07T09:18:31Z</time>
      </trkpt>
      <trkpt lat="43.21228" lon="2.46101">
        <ele>106</ele>
        <time>2020-06-07T09:18:46Z</time>
      </trkpt>
      <trkpt lat="43.21221" lon="2.46069">
        <ele>106</ele>
        <time>2020-06-07T09:18:51Z</time>
      </trkpt>
      <trkpt lat="43.21209" lon="2.45981">
        <ele>106</ele>
        <time>2020-06-07T09:19:02Z</time>
      </trkpt>
      <trkpt lat="43.212" lon="2.45876">
        <ele>105</ele>
        <time>2020-06-07T09:19:16Z</time>
      </trkpt>
      <trkpt lat="43.21186" lon="2.45795">
        <ele>104</ele>
        <time>2020-06-07T09:19:27Z</time>
      </trkpt>
      <trkpt lat="43.21177" lon="2.45703">
        <ele>104</ele>
        <time>2020-06-07T09:19:39Z</time>
      </trkpt>
      <trkpt lat="43.21165" lon="2.45537">
        <ele>105</ele>
        <time>2020-06-07T09:20:00Z</time>
      </trkpt>
      <trkpt lat="43.21161" lon="2.4549">
        <ele>106</ele>
        <time>2020-06-07T09:20:07Z</time>
      </trkpt>
      <trkpt lat="43.21155" lon="2.45461">
        <ele>106</ele>
        <time>2020-06-07T09:20:10Z</time>
      </trkpt>
      <trkpt lat="43.21149" lon="2.45437">
        <ele>106</ele>
        <time>2020-06-07T09:20:14Z</time>
      </trkpt>
      <trkpt lat="43.21121" lon="2.45367">
        <ele>104</ele>
        <time>2020-06-07T09:20:24Z</time>
      </trkpt>
      <trkpt lat="43.21121" lon="2.45354">
        <ele>104</ele>
        <time>2020-06-07T09:20:26Z</time>
      </trkpt>
      <trkpt lat="43.21125" lon="2.45343">
        <ele>104</ele>
        <time>2020-06-07T09:20:27Z</time>
      </trkpt>
      <trkpt lat="43.21125" lon="2.45334">
        <ele>104</ele>
        <time>2020-06-07T09:20:29Z</time>
      </trkpt>
      <trkpt lat="43.21122" lon="2.45322">
        <ele>103</ele>
        <time>2020-06-07T09:20:30Z</time>
      </trkpt>
      <trkpt lat="43.21113" lon="2.45314">
        <ele>103</ele>
        <time>2020-06-07T09:20:32Z</time>
      </trkpt>
      <trkpt lat="43.21109" lon="2.45303">
        <ele>103</ele>
        <time>2020-06-07T09:20:34Z</time>
      </trkpt>
      <trkpt lat="43.21068" lon="2.45015">
        <ele>99</ele>
        <time>2020-06-07T09:21:12Z</time>
      </trkpt>
      <trkpt lat="43.21067" lon="2.44992">
        <ele>99</ele>
        <time>2020-06-07T09:21:15Z</time>
      </trkpt>
      <trkpt lat="43.2107" lon="2.44953">
        <ele>98</ele>
        <time>2020-06-07T09:21:20Z</time>
      </trkpt>
      <trkpt lat="43.21105" lon="2.44762">
        <ele>100</ele>
        <time>2020-06-07T09:21:45Z</time>
      </trkpt>
      <trkpt lat="43.21106" lon="2.44745">
        <ele>100</ele>
        <time>2020-06-07T09:21:48Z</time>
      </trkpt>
      <trkpt lat="43.21103" lon="2.44705">
        <ele>100</ele>
        <time>2020-06-07T09:21:53Z</time>
      </trkpt>
      <trkpt lat="43.2109" lon="2.44642">
        <ele>99</ele>
        <time>2020-06-07T09:22:01Z</time>
      </trkpt>
      <trkpt lat="43.21086" lon="2.44616">
        <ele>100</ele>
        <time>2020-06-07T09:22:05Z</time>
      </trkpt>
      <trkpt lat="43.21085" lon="2.44596">
        <ele>100</ele>
        <time>2020-06-07T09:22:07Z</time>
      </trkpt>
      <trkpt lat="43.2109" lon="2.44545">
        <ele>99</ele>
        <time>2020-06-07T09:22:14Z</time>
      </trkpt>
      <trkpt lat="43.21104" lon="2.44444">
        <ele>97</ele>
        <time>2020-06-07T09:22:27Z</time>
      </trkpt>
      <trkpt lat="43.21111" lon="2.44372">
        <ele>97</ele>
        <time>2020-06-07T09:22:37Z</time>
      </trkpt>
      <trkpt lat="43.2111" lon="2.44365">
        <ele>97</ele>
        <time>2020-06-07T09:22:38Z</time>
      </trkpt>
      <trkpt lat="43.21113" lon="2.44363">
        <ele>97</ele>
        <time>2020-06-07T09:22:38Z</time>
      </trkpt>
      <trkpt lat="43.21116" lon="2.44355">
        <ele>97</ele>
        <time>2020-06-07T09:22:39Z</time>
      </trkpt>
      <trkpt lat="43.21116" lon="2.4435">
        <ele>97</ele>
        <time>2020-06-07T09:22:40Z</time>
      </trkpt>
      <trkpt lat="43.21113" lon="2.44343">
        <ele>97</ele>
        <time>2020-06-07T09:22:41Z</time>
      </trkpt>
      <trkpt lat="43.21124" lon="2.44312">
        <ele>97</ele>
        <time>2020-06-07T09:22:46Z</time>
      </trkpt>
      <trkpt lat="43.21131" lon="2.44299">
        <ele>97</ele>
        <time>2020-06-07T09:22:48Z</time>
      </trkpt>
      <trkpt lat="43.2115" lon="2.44273">
        <ele>97</ele>
        <time>2020-06-07T09:22:52Z</time>
      </trkpt>
      <trkpt lat="43.21175" lon="2.44246">
        <ele>97</ele>
        <time>2020-06-07T09:22:58Z</time>
      </trkpt>
      <trkpt lat="43.21199" lon="2.44226">
        <ele>96</ele>
        <time>2020-06-07T09:23:03Z</time>
      </trkpt>
      <trkpt lat="43.21254" lon="2.4421">
        <ele>94</ele>
        <time>2020-06-07T09:23:13Z</time>
      </trkpt>
      <trkpt lat="43.21274" lon="2.44199">
        <ele>94</ele>
        <time>2020-06-07T09:23:17Z</time>
      </trkpt>
      <trkpt lat="43.21304" lon="2.44177">
        <ele>93</ele>
        <time>2020-06-07T09:23:23Z</time>
      </trkpt>
      <trkpt lat="43.21372" lon="2.44136">
        <ele>92</ele>
        <time>2020-06-07T09:23:36Z</time>
      </trkpt>
      <trkpt lat="43.21433" lon="2.4409">
        <ele>93</ele>
        <time>2020-06-07T09:23:49Z</time>
      </trkpt>
      <trkpt lat="43.21463" lon="2.44064">
        <ele>92</ele>
        <time>2020-06-07T09:23:55Z</time>
      </trkpt>
      <trkpt lat="43.21484" lon="2.44052">
        <ele>91</ele>
        <time>2020-06-07T09:23:59Z</time>
      </trkpt>
      <trkpt lat="43.2162" lon="2.43994">
        <ele>90</ele>
        <time>2020-06-07T09:24:24Z</time>
      </trkpt>
      <trkpt lat="43.21705" lon="2.43955">
        <ele>91</ele>
        <time>2020-06-07T09:24:40Z</time>
      </trkpt>
      <trkpt lat="43.21785" lon="2.43907">
        <ele>89</ele>
        <time>2020-06-07T09:24:56Z</time>
      </trkpt>
      <trkpt lat="43.21852" lon="2.43892">
        <ele>89</ele>
        <time>2020-06-07T09:25:08Z</time>
      </trkpt>
      <trkpt lat="43.21883" lon="2.43881">
        <ele>88</ele>
        <time>2020-06-07T09:25:14Z</time>
      </trkpt>
      <trkpt lat="43.21918" lon="2.43857">
        <ele>88</ele>
        <time>2020-06-07T09:25:21Z</time>
      </trkpt>
      <trkpt lat="43.22039" lon="2.43742">
        <ele>89</ele>
        <time>2020-06-07T09:25:47Z</time>
      </trkpt>
      <trkpt lat="43.22194" lon="2.43577">
        <ele>95</ele>
        <time>2020-06-07T09:26:22Z</time>
      </trkpt>
      <trkpt lat="43.22234" lon="2.43542">
        <ele>94</ele>
        <time>2020-06-07T09:26:30Z</time>
      </trkpt>
      <trkpt lat="43.22264" lon="2.43534">
        <ele>94</ele>
        <time>2020-06-07T09:26:36Z</time>
      </trkpt>
      <trkpt lat="43.22291" lon="2.43536">
        <ele>95</ele>
        <time>2020-06-07T09:26:40Z</time>
      </trkpt>
      <trkpt lat="43.22319" lon="2.43547">
        <ele>96</ele>
        <time>2020-06-07T09:26:46Z</time>
      </trkpt>
      <trkpt lat="43.22448" lon="2.43652">
        <ele>97</ele>
        <time>2020-06-07T09:27:12Z</time>
      </trkpt>
      <trkpt lat="43.22477" lon="2.43663">
        <ele>96</ele>
        <time>2020-06-07T09:27:18Z</time>
      </trkpt>
      <trkpt lat="43.22515" lon="2.43662">
        <ele>94</ele>
        <time>2020-06-07T09:27:24Z</time>
      </trkpt>
      <trkpt lat="43.2263" lon="2.43614">
        <ele>93</ele>
        <time>2020-06-07T09:27:46Z</time>
      </trkpt>
      <trkpt lat="43.2283" lon="2.43503">
        <ele>93</ele>
        <time>2020-06-07T09:28:24Z</time>
      </trkpt>
      <trkpt lat="43.22872" lon="2.43478">
        <ele>94</ele>
        <time>2020-06-07T09:28:32Z</time>
      </trkpt>
      <trkpt lat="43.22915" lon="2.4346">
        <ele>95</ele>
        <time>2020-06-07T09:28:40Z</time>
      </trkpt>
      <trkpt lat="43.23169" lon="2.43407">
        <ele>95</ele>
        <time>2020-06-07T09:29:26Z</time>
      </trkpt>
      <trkpt lat="43.23755" lon="2.43312">
        <ele>97</ele>
        <time>2020-06-07T09:31:11Z</time>
      </trkpt>
      <trkpt lat="43.23849" lon="2.433">
        <ele>97</ele>
        <time>2020-06-07T09:31:28Z</time>
      </trkpt>
      <trkpt lat="43.23904" lon="2.43286">
        <ele>97</ele>
        <time>2020-06-07T09:31:38Z</time>
      </trkpt>
      <trkpt lat="43.23948" lon="2.43266">
        <ele>97</ele>
        <time>2020-06-07T09:31:46Z</time>
      </trkpt>
      <trkpt lat="43.23989" lon="2.43234">
        <ele>96</ele>
        <time>2020-06-07T09:31:54Z</time>
      </trkpt>
      <trkpt lat="43.24047" lon="2.43162">
        <ele>98</ele>
        <time>2020-06-07T09:32:08Z</time>
      </trkpt>
      <trkpt lat="43.24081" lon="2.43161">
        <ele>98</ele>
        <time>2020-06-07T09:32:14Z</time>
      </trkpt>
      <trkpt lat="43.24143" lon="2.43164">
        <ele>100</ele>
        <time>2020-06-07T09:32:25Z</time>
      </trkpt>
      <trkpt lat="43.24174" lon="2.43176">
        <ele>100</ele>
        <time>2020-06-07T09:32:31Z</time>
      </trkpt>
      <trkpt lat="43.24205" lon="2.43207">
        <ele>101</ele>
        <time>2020-06-07T09:32:38Z</time>
      </trkpt>
      <trkpt lat="43.24287" lon="2.43365">
        <ele>101</ele>
        <time>2020-06-07T09:33:03Z</time>
      </trkpt>
      <trkpt lat="43.24354" lon="2.43531">
        <ele>102</ele>
        <time>2020-06-07T09:33:28Z</time>
      </trkpt>
      <trkpt lat="43.24386" lon="2.43587">
        <ele>103</ele>
        <time>2020-06-07T09:33:37Z</time>
      </trkpt>
      <trkpt lat="43.24442" lon="2.43628">
        <ele>103</ele>
        <time>2020-06-07T09:33:48Z</time>
      </trkpt>
      <trkpt lat="43.24505" lon="2.43664">
        <ele>105</ele>
        <time>2020-06-07T09:34:00Z</time>
      </trkpt>
      <trkpt lat="43.24585" lon="2.43683">
        <ele>106</ele>
        <time>2020-06-07T09:34:15Z</time>
      </trkpt>
      <trkpt lat="43.24614" lon="2.43692">
        <ele>107</ele>
        <time>2020-06-07T09:34:20Z</time>
      </trkpt>
      <trkpt lat="43.24659" lon="2.43731">
        <ele>109</ele>
        <time>2020-06-07T09:34:30Z</time>
      </trkpt>
      <trkpt lat="43.248" lon="2.43824">
        <ele>110</ele>
        <time>2020-06-07T09:34:57Z</time>
      </trkpt>
      <trkpt lat="43.2486" lon="2.4389">
        <ele>110</ele>
        <time>2020-06-07T09:35:11Z</time>
      </trkpt>
      <trkpt lat="43.249" lon="2.43906">
        <ele>110</ele>
        <time>2020-06-07T09:35:18Z</time>
      </trkpt>
      <trkpt lat="43.24928" lon="2.43924">
        <ele>110</ele>
        <time>2020-06-07T09:35:24Z</time>
      </trkpt>
      <trkpt lat="43.24977" lon="2.43948">
        <ele>111</ele>
        <time>2020-06-07T09:35:33Z</time>
      </trkpt>
      <trkpt lat="43.25003" lon="2.43954">
        <ele>111</ele>
        <time>2020-06-07T09:35:38Z</time>
      </trkpt>
      <trkpt lat="43.25056" lon="2.43959">
        <ele>111</ele>
        <time>2020-06-07T09:35:47Z</time>
      </trkpt>
      <trkpt lat="43.25081" lon="2.43958">
        <ele>111</ele>
        <time>2020-06-07T09:35:52Z</time>
      </trkpt>
      <trkpt lat="43.25149" lon="2.43945">
        <ele>111</ele>
        <time>2020-06-07T09:36:04Z</time>
      </trkpt>
      <trkpt lat="43.25168" lon="2.43947">
        <ele>111</ele>
        <time>2020-06-07T09:36:07Z</time>
      </trkpt>
      <trkpt lat="43.25188" lon="2.43954">
        <ele>112</ele>
        <time>2020-06-07T09:36:11Z</time>
      </trkpt>
      <trkpt lat="43.25197" lon="2.4396">
        <ele>112</ele>
        <time>2020-06-07T09:36:13Z</time>
      </trkpt>
      <trkpt lat="43.25198" lon="2.43872">
        <ele>109</ele>
        <time>2020-06-07T09:36:24Z</time>
      </trkpt>
      <trkpt lat="43.25202" lon="2.4382">
        <ele>108</ele>
        <time>2020-06-07T09:36:31Z</time>
      </trkpt>
      <trkpt lat="43.25212" lon="2.43734">
        <ele>108</ele>
        <time>2020-06-07T09:36:42Z</time>
      </trkpt>
      <trkpt lat="43.25215" lon="2.43699">
        <ele>108</ele>
        <time>2020-06-07T09:36:47Z</time>
      </trkpt>
      <trkpt lat="43.25216" lon="2.43668">
        <ele>108</ele>
        <time>2020-06-07T09:36:51Z</time>
      </trkpt>
      <trkpt lat="43.25212" lon="2.43545">
        <ele>109</ele>
        <time>2020-06-07T09:37:07Z</time>
      </trkpt>
      <trkpt lat="43.25214" lon="2.43521">
        <ele>109</ele>
        <time>2020-06-07T09:37:10Z</time>
      </trkpt>
      <trkpt lat="43.25224" lon="2.43472">
        <ele>110</ele>
        <time>2020-06-07T09:37:17Z</time>
      </trkpt>
      <trkpt lat="43.25231" lon="2.43441">
        <ele>111</ele>
        <time>2020-06-07T09:37:21Z</time>
      </trkpt>
      <trkpt lat="43.25259" lon="2.4333">
        <ele>112</ele>
        <time>2020-06-07T09:37:36Z</time>
      </trkpt>
      <trkpt lat="43.25273" lon="2.43237">
        <ele>116</ele>
        <time>2020-06-07T09:37:48Z</time>
      </trkpt>
      <trkpt lat="43.2528" lon="2.43151">
        <ele>118</ele>
        <time>2020-06-07T09:38:00Z</time>
      </trkpt>
      <trkpt lat="43.25285" lon="2.4292">
        <ele>118</ele>
        <time>2020-06-07T09:38:29Z</time>
      </trkpt>
      <trkpt lat="43.25291" lon="2.4287">
        <ele>117</ele>
        <time>2020-06-07T09:38:36Z</time>
      </trkpt>
      <trkpt lat="43.2531" lon="2.42798">
        <ele>116</ele>
        <time>2020-06-07T09:38:46Z</time>
      </trkpt>
      <trkpt lat="43.25354" lon="2.42638">
        <ele>116</ele>
        <time>2020-06-07T09:39:08Z</time>
      </trkpt>
      <trkpt lat="43.25373" lon="2.4261">
        <ele>116</ele>
        <time>2020-06-07T09:39:13Z</time>
      </trkpt>
      <trkpt lat="43.25459" lon="2.42532">
        <ele>118</ele>
        <time>2020-06-07T09:39:31Z</time>
      </trkpt>
      <trkpt lat="43.25487" lon="2.42497">
        <ele>119</ele>
        <time>2020-06-07T09:39:38Z</time>
      </trkpt>
      <trkpt lat="43.25572" lon="2.42251">
        <ele>118</ele>
        <time>2020-06-07T09:40:13Z</time>
      </trkpt>
      <trkpt lat="43.25593" lon="2.42188">
        <ele>119</ele>
        <time>2020-06-07T09:40:22Z</time>
      </trkpt>
      <trkpt lat="43.25659" lon="2.41987">
        <ele>124</ele>
        <time>2020-06-07T09:40:51Z</time>
      </trkpt>
      <trkpt lat="43.25715" lon="2.41827">
        <ele>127</ele>
        <time>2020-06-07T09:41:14Z</time>
      </trkpt>
      <trkpt lat="43.25738" lon="2.41758">
        <ele>127</ele>
        <time>2020-06-07T09:41:24Z</time>
      </trkpt>
      <trkpt lat="43.25754" lon="2.41711">
        <ele>126</ele>
        <time>2020-06-07T09:41:31Z</time>
      </trkpt>
      <trkpt lat="43.25759" lon="2.41697">
        <ele>126</ele>
        <time>2020-06-07T09:41:33Z</time>
      </trkpt>
      <trkpt lat="43.25768" lon="2.41667">
        <ele>126</ele>
        <time>2020-06-07T09:41:37Z</time>
      </trkpt>
      <trkpt lat="43.25789" lon="2.41603">
        <ele>126</ele>
        <time>2020-06-07T09:41:46Z</time>
      </trkpt>
      <trkpt lat="43.25793" lon="2.41594">
        <ele>126</ele>
        <time>2020-06-07T09:41:47Z</time>
      </trkpt>
      <trkpt lat="43.25796" lon="2.41586">
        <ele>126</ele>
        <time>2020-06-07T09:41:48Z</time>
      </trkpt>
      <trkpt lat="43.25813" lon="2.4153">
        <ele>125</ele>
        <time>2020-06-07T09:41:56Z</time>
      </trkpt>
      <trkpt lat="43.25821" lon="2.41517">
        <ele>125</ele>
        <time>2020-06-07T09:41:58Z</time>
      </trkpt>
      <trkpt lat="43.25845" lon="2.41488">
        <ele>125</ele>
        <time>2020-06-07T09:42:04Z</time>
      </trkpt>
      <trkpt lat="43.25839" lon="2.41472">
        <ele>125</ele>
        <time>2020-06-07T09:42:07Z</time>
      </trkpt>
      <trkpt lat="43.25817" lon="2.41334">
        <ele>124</ele>
        <time>2020-06-07T09:42:25Z</time>
      </trkpt>
      <trkpt lat="43.2581" lon="2.41298">
        <ele>124</ele>
        <time>2020-06-07T09:42:30Z</time>
      </trkpt>
      <trkpt lat="43.25801" lon="2.41273">
        <ele>124</ele>
        <time>2020-06-07T09:42:33Z</time>
      </trkpt>
      <trkpt lat="43.25812" lon="2.41267">
        <ele>124</ele>
        <time>2020-06-07T09:42:35Z</time>
      </trkpt>
      <trkpt lat="43.25867" lon="2.41284">
        <ele>125</ele>
        <time>2020-06-07T09:42:45Z</time>
      </trkpt>
      <trkpt lat="43.25888" lon="2.41287">
        <ele>125</ele>
        <time>2020-06-07T09:42:49Z</time>
      </trkpt>
      <trkpt lat="43.25898" lon="2.41284">
        <ele>125</ele>
        <time>2020-06-07T09:42:51Z</time>
      </trkpt>
      <trkpt lat="43.25914" lon="2.41272">
        <ele>126</ele>
        <time>2020-06-07T09:42:54Z</time>
      </trkpt>
      <trkpt lat="43.25929" lon="2.41255">
        <ele>125</ele>
        <time>2020-06-07T09:42:58Z</time>
      </trkpt>
      <trkpt lat="43.25946" lon="2.41233">
        <ele>125</ele>
        <time>2020-06-07T09:43:02Z</time>
      </trkpt>
      <trkpt lat="43.25962" lon="2.41202">
        <ele>125</ele>
        <time>2020-06-07T09:43:07Z</time>
      </trkpt>
      <trkpt lat="43.25976" lon="2.41167">
        <ele>125</ele>
        <time>2020-06-07T09:43:12Z</time>
      </trkpt>
      <trkpt lat="43.25983" lon="2.41131">
        <ele>124</ele>
        <time>2020-06-07T09:43:17Z</time>
      </trkpt>
      <trkpt lat="43.25984" lon="2.41095">
        <ele>124</ele>
        <time>2020-06-07T09:43:21Z</time>
      </trkpt>
      <trkpt lat="43.25982" lon="2.41054">
        <ele>124</ele>
        <time>2020-06-07T09:43:27Z</time>
      </trkpt>
      <trkpt lat="43.25984" lon="2.41025">
        <ele>124</ele>
        <time>2020-06-07T09:43:31Z</time>
      </trkpt>
      <trkpt lat="43.25996" lon="2.41">
        <ele>124</ele>
        <time>2020-06-07T09:43:34Z</time>
      </trkpt>
      <trkpt lat="43.26091" lon="2.40872">
        <ele>127</ele>
        <time>2020-06-07T09:43:58Z</time>
      </trkpt>
      <trkpt lat="43.26134" lon="2.40819">
        <ele>129</ele>
        <time>2020-06-07T09:44:08Z</time>
      </trkpt>
      <trkpt lat="43.26161" lon="2.40788">
        <ele>130</ele>
        <time>2020-06-07T09:44:15Z</time>
      </trkpt>
      <trkpt lat="43.26197" lon="2.40764">
        <ele>128</ele>
        <time>2020-06-07T09:44:22Z</time>
      </trkpt>
      <trkpt lat="43.26288" lon="2.40708">
        <ele>124</ele>
        <time>2020-06-07T09:44:39Z</time>
      </trkpt>
      <trkpt lat="43.26309" lon="2.40691">
        <ele>124</ele>
        <time>2020-06-07T09:44:44Z</time>
      </trkpt>
      <trkpt lat="43.26349" lon="2.40646">
        <ele>124</ele>
        <time>2020-06-07T09:44:53Z</time>
      </trkpt>
      <trkpt lat="43.26371" lon="2.40625">
        <ele>125</ele>
        <time>2020-06-07T09:44:58Z</time>
      </trkpt>
      <trkpt lat="43.2639" lon="2.40603">
        <ele>125</ele>
        <time>2020-06-07T09:45:02Z</time>
      </trkpt>
      <trkpt lat="43.26429" lon="2.40546">
        <ele>125</ele>
        <time>2020-06-07T09:45:12Z</time>
      </trkpt>
      <trkpt lat="43.26457" lon="2.40493">
        <ele>127</ele>
        <time>2020-06-07T09:45:21Z</time>
      </trkpt>
      <trkpt lat="43.26527" lon="2.40332">
        <ele>132</ele>
        <time>2020-06-07T09:45:45Z</time>
      </trkpt>
      <trkpt lat="43.26638" lon="2.40224">
        <ele>130</ele>
        <time>2020-06-07T09:46:09Z</time>
      </trkpt>
      <trkpt lat="43.26685" lon="2.40197">
        <ele>131</ele>
        <time>2020-06-07T09:46:18Z</time>
      </trkpt>
      <trkpt lat="43.26724" lon="2.4018">
        <ele>132</ele>
        <time>2020-06-07T09:46:26Z</time>
      </trkpt>
      <trkpt lat="43.26783" lon="2.40167">
        <ele>134</ele>
        <time>2020-06-07T09:46:36Z</time>
      </trkpt>
      <trkpt lat="43.26806" lon="2.40166">
        <ele>136</ele>
        <time>2020-06-07T09:46:40Z</time>
      </trkpt>
      <trkpt lat="43.26814" lon="2.40164">
        <ele>136</ele>
        <time>2020-06-07T09:46:42Z</time>
      </trkpt>
      <trkpt lat="43.26809" lon="2.40147">
        <ele>135</ele>
        <time>2020-06-07T09:46:44Z</time>
      </trkpt>
      <trkpt lat="43.26806" lon="2.40116">
        <ele>133</ele>
        <time>2020-06-07T09:46:48Z</time>
      </trkpt>
      <trkpt lat="43.26807" lon="2.40083">
        <ele>131</ele>
        <time>2020-06-07T09:46:53Z</time>
      </trkpt>
      <trkpt lat="43.26821" lon="2.40058">
        <ele>131</ele>
        <time>2020-06-07T09:46:57Z</time>
      </trkpt>
      <trkpt lat="43.26829" lon="2.40033">
        <ele>130</ele>
        <time>2020-06-07T09:47:00Z</time>
      </trkpt>
      <trkpt lat="43.26843" lon="2.4">
        <ele>128</ele>
        <time>2020-06-07T09:47:05Z</time>
      </trkpt>
      <trkpt lat="43.26855" lon="2.40006">
        <ele>129</ele>
        <time>2020-06-07T09:47:07Z</time>
      </trkpt>
      <trkpt lat="43.26874" lon="2.40003">
        <ele>129</ele>
        <time>2020-06-07T09:47:11Z</time>
      </trkpt>
      <trkpt lat="43.26884" lon="2.40002">
        <ele>129</ele>
        <time>2020-06-07T09:47:13Z</time>
      </trkpt>
      <trkpt lat="43.26905" lon="2.4">
        <ele>129</ele>
        <time>2020-06-07T09:47:16Z</time>
      </trkpt>
      <trkpt lat="43.26915" lon="2.40002">
        <ele>129</ele>
        <time>2020-06-07T09:47:18Z</time>
      </trkpt>
      <trkpt lat="43.26939" lon="2.40014">
        <ele>130</ele>
        <time>2020-06-07T09:47:23Z</time>
      </trkpt>
      <trkpt lat="43.26962" lon="2.4004">
        <ele>131</ele>
        <time>2020-06-07T09:47:28Z</time>
      </trkpt>
      <trkpt lat="43.26985" lon="2.40063">
        <ele>132</ele>
        <time>2020-06-07T09:47:33Z</time>
      </trkpt>
      <trkpt lat="43.26999" lon="2.40077">
        <ele>133</ele>
        <time>2020-06-07T09:47:36Z</time>
      </trkpt>
      <trkpt lat="43.27005" lon="2.40085">
        <ele>133</ele>
        <time>2020-06-07T09:47:38Z</time>
      </trkpt>
      <trkpt lat="43.27036" lon="2.40074">
        <ele>132</ele>
        <time>2020-06-07T09:47:43Z</time>
      </trkpt>
      <trkpt lat="43.27079" lon="2.40078">
        <ele>132</ele>
        <time>2020-06-07T09:47:51Z</time>
      </trkpt>
      <trkpt lat="43.27105" lon="2.40087">
        <ele>133</ele>
        <time>2020-06-07T09:47:56Z</time>
      </trkpt>
      <trkpt lat="43.27189" lon="2.40085">
        <ele>132</ele>
        <time>2020-06-07T09:48:11Z</time>
      </trkpt>
      <trkpt lat="43.27261" lon="2.40076">
        <ele>129</ele>
        <time>2020-06-07T09:48:24Z</time>
      </trkpt>
      <trkpt lat="43.27367" lon="2.40059">
        <ele>127</ele>
        <time>2020-06-07T09:48:43Z</time>
      </trkpt>
      <trkpt lat="43.27371" lon="2.40053">
        <ele>127</ele>
        <time>2020-06-07T09:48:44Z</time>
      </trkpt>
      <trkpt lat="43.27378" lon="2.40043">
        <ele>127</ele>
        <time>2020-06-07T09:48:45Z</time>
      </trkpt>
      <trkpt lat="43.27408" lon="2.40035">
        <ele>127</ele>
        <time>2020-06-07T09:48:51Z</time>
      </trkpt>
      <trkpt lat="43.27416" lon="2.40032">
        <ele>127</ele>
        <time>2020-06-07T09:48:52Z</time>
      </trkpt>
      <trkpt lat="43.27432" lon="2.40029">
        <ele>127</ele>
        <time>2020-06-07T09:48:55Z</time>
      </trkpt>
      <trkpt lat="43.2749" lon="2.40043">
        <ele>127</ele>
        <time>2020-06-07T09:49:06Z</time>
      </trkpt>
      <trkpt lat="43.27506" lon="2.40047">
        <ele>127</ele>
        <time>2020-06-07T09:49:09Z</time>
      </trkpt>
      <trkpt lat="43.27548" lon="2.4006">
        <ele>127</ele>
        <time>2020-06-07T09:49:16Z</time>
      </trkpt>
      <trkpt lat="43.27595" lon="2.40086">
        <ele>127</ele>
        <time>2020-06-07T09:49:25Z</time>
      </trkpt>
      <trkpt lat="43.27604" lon="2.40084">
        <ele>127</ele>
        <time>2020-06-07T09:49:27Z</time>
      </trkpt>
      <trkpt lat="43.2766" lon="2.40055">
        <ele>127</ele>
        <time>2020-06-07T09:49:38Z</time>
      </trkpt>
      <trkpt lat="43.27669" lon="2.40044">
        <ele>127</ele>
        <time>2020-06-07T09:49:40Z</time>
      </trkpt>
      <trkpt lat="43.27752" lon="2.40061">
        <ele>129</ele>
        <time>2020-06-07T09:49:55Z</time>
      </trkpt>
      <trkpt lat="43.27833" lon="2.40078">
        <ele>130</ele>
        <time>2020-06-07T09:50:09Z</time>
      </trkpt>
      <trkpt lat="43.2791" lon="2.40092">
        <ele>130</ele>
        <time>2020-06-07T09:50:23Z</time>
      </trkpt>
      <trkpt lat="43.27955" lon="2.401">
        <ele>130</ele>
        <time>2020-06-07T09:50:31Z</time>
      </trkpt>
      <trkpt lat="43.28017" lon="2.40108">
        <ele>130</ele>
        <time>2020-06-07T09:50:42Z</time>
      </trkpt>
      <trkpt lat="43.28097" lon="2.40125">
        <ele>131</ele>
        <time>2020-06-07T09:50:57Z</time>
      </trkpt>
      <trkpt lat="43.28122" lon="2.40126">
        <ele>132</ele>
        <time>2020-06-07T09:51:01Z</time>
      </trkpt>
      <trkpt lat="43.2814" lon="2.40124">
        <ele>132</ele>
        <time>2020-06-07T09:51:04Z</time>
      </trkpt>
      <trkpt lat="43.28155" lon="2.40118">
        <ele>132</ele>
        <time>2020-06-07T09:51:07Z</time>
      </trkpt>
      <trkpt lat="43.28193" lon="2.40098">
        <ele>133</ele>
        <time>2020-06-07T09:51:14Z</time>
      </trkpt>
      <trkpt lat="43.28234" lon="2.40074">
        <ele>134</ele>
        <time>2020-06-07T09:51:22Z</time>
      </trkpt>
      <trkpt lat="43.28252" lon="2.40071">
        <ele>134</ele>
        <time>2020-06-07T09:51:25Z</time>
      </trkpt>
      <trkpt lat="43.2831" lon="2.40077">
        <ele>135</ele>
        <time>2020-06-07T09:51:36Z</time>
      </trkpt>
      <trkpt lat="43.28322" lon="2.40079">
        <ele>135</ele>
        <time>2020-06-07T09:51:38Z</time>
      </trkpt>
      <trkpt lat="43.28401" lon="2.40094">
        <ele>138</ele>
        <time>2020-06-07T09:51:52Z</time>
      </trkpt>
      <trkpt lat="43.28411" lon="2.40096">
        <ele>139</ele>
        <time>2020-06-07T09:51:54Z</time>
      </trkpt>
      <trkpt lat="43.28485" lon="2.40114">
        <ele>141</ele>
        <time>2020-06-07T09:52:07Z</time>
      </trkpt>
      <trkpt lat="43.28532" lon="2.40132">
        <ele>143</ele>
        <time>2020-06-07T09:52:16Z</time>
      </trkpt>
      <trkpt lat="43.28569" lon="2.40145">
        <ele>144</ele>
        <time>2020-06-07T09:52:23Z</time>
      </trkpt>
      <trkpt lat="43.28583" lon="2.40147">
        <ele>144</ele>
        <time>2020-06-07T09:52:25Z</time>
      </trkpt>
      <trkpt lat="43.28597" lon="2.40141">
        <ele>144</ele>
        <time>2020-06-07T09:52:28Z</time>
      </trkpt>
      <trkpt lat="43.28609" lon="2.40129">
        <ele>145</ele>
        <time>2020-06-07T09:52:30Z</time>
      </trkpt>
      <trkpt lat="43.28617" lon="2.40114">
        <ele>145</ele>
        <time>2020-06-07T09:52:33Z</time>
      </trkpt>
      <trkpt lat="43.28641" lon="2.40041">
        <ele>149</ele>
        <time>2020-06-07T09:52:43Z</time>
      </trkpt>
      <trkpt lat="43.28652" lon="2.4002">
        <ele>150</ele>
        <time>2020-06-07T09:52:47Z</time>
      </trkpt>
      <trkpt lat="43.28664" lon="2.40005">
        <ele>151</ele>
        <time>2020-06-07T09:52:49Z</time>
      </trkpt>
      <trkpt lat="43.28682" lon="2.39991">
        <ele>151</ele>
        <time>2020-06-07T09:52:53Z</time>
      </trkpt>
      <trkpt lat="43.28701" lon="2.39982">
        <ele>151</ele>
        <time>2020-06-07T09:52:57Z</time>
      </trkpt>
      <trkpt lat="43.28718" lon="2.39979">
        <ele>151</ele>
        <time>2020-06-07T09:53:00Z</time>
      </trkpt>
      <trkpt lat="43.28859" lon="2.3997">
        <ele>148</ele>
        <time>2020-06-07T09:53:25Z</time>
      </trkpt>
      <trkpt lat="43.28926" lon="2.39963">
        <ele>149</ele>
        <time>2020-06-07T09:53:37Z</time>
      </trkpt>
      <trkpt lat="43.28941" lon="2.39967">
        <ele>150</ele>
        <time>2020-06-07T09:53:40Z</time>
      </trkpt>
      <trkpt lat="43.28951" lon="2.39972">
        <ele>150</ele>
        <time>2020-06-07T09:53:41Z</time>
      </trkpt>
      <trkpt lat="43.29002" lon="2.4001">
        <ele>151</ele>
        <time>2020-06-07T09:53:52Z</time>
      </trkpt>
      <trkpt lat="43.29017" lon="2.40025">
        <ele>151</ele>
        <time>2020-06-07T09:53:55Z</time>
      </trkpt>
      <trkpt lat="43.29072" lon="2.40099">
        <ele>150</ele>
        <time>2020-06-07T09:54:09Z</time>
      </trkpt>
      <trkpt lat="43.29089" lon="2.40117">
        <ele>151</ele>
        <time>2020-06-07T09:54:13Z</time>
      </trkpt>
      <trkpt lat="43.2912" lon="2.40144">
        <ele>152</ele>
        <time>2020-06-07T09:54:19Z</time>
      </trkpt>
      <trkpt lat="43.29164" lon="2.40177">
        <ele>154</ele>
        <time>2020-06-07T09:54:28Z</time>
      </trkpt>
      <trkpt lat="43.29196" lon="2.40199">
        <ele>154</ele>
        <time>2020-06-07T09:54:34Z</time>
      </trkpt>
      <trkpt lat="43.29236" lon="2.40221">
        <ele>155</ele>
        <time>2020-06-07T09:54:42Z</time>
      </trkpt>
      <trkpt lat="43.2926" lon="2.4023">
        <ele>156</ele>
        <time>2020-06-07T09:54:47Z</time>
      </trkpt>
      <trkpt lat="43.29294" lon="2.40233">
        <ele>156</ele>
        <time>2020-06-07T09:54:53Z</time>
      </trkpt>
      <trkpt lat="43.29333" lon="2.40223">
        <ele>157</ele>
        <time>2020-06-07T09:55:00Z</time>
      </trkpt>
      <trkpt lat="43.29412" lon="2.40184">
        <ele>158</ele>
        <time>2020-06-07T09:55:15Z</time>
      </trkpt>
      <trkpt lat="43.29468" lon="2.40161">
        <ele>162</ele>
        <time>2020-06-07T09:55:25Z</time>
      </trkpt>
      <trkpt lat="43.29478" lon="2.4016">
        <ele>162</ele>
        <time>2020-06-07T09:55:27Z</time>
      </trkpt>
      <trkpt lat="43.29516" lon="2.40169">
        <ele>160</ele>
        <time>2020-06-07T09:55:34Z</time>
      </trkpt>
      <trkpt lat="43.29529" lon="2.40167">
        <ele>160</ele>
        <time>2020-06-07T09:55:36Z</time>
      </trkpt>
      <trkpt lat="43.29539" lon="2.40162">
        <ele>159</ele>
        <time>2020-06-07T09:55:38Z</time>
      </trkpt>
      <trkpt lat="43.29553" lon="2.40148">
        <ele>160</ele>
        <time>2020-06-07T09:55:41Z</time>
      </trkpt>
      <trkpt lat="43.29579" lon="2.40104">
        <ele>164</ele>
        <time>2020-06-07T09:55:48Z</time>
      </trkpt>
      <trkpt lat="43.29592" lon="2.40088">
        <ele>164</ele>
        <time>2020-06-07T09:55:51Z</time>
      </trkpt>
      <trkpt lat="43.29625" lon="2.40066">
        <ele>164</ele>
        <time>2020-06-07T09:55:58Z</time>
      </trkpt>
      <trkpt lat="43.29641" lon="2.40052">
        <ele>164</ele>
        <time>2020-06-07T09:56:01Z</time>
      </trkpt>
      <trkpt lat="43.29668" lon="2.40021">
        <ele>165</ele>
        <time>2020-06-07T09:56:08Z</time>
      </trkpt>
      <trkpt lat="43.29711" lon="2.39938">
        <ele>166</ele>
        <time>2020-06-07T09:56:21Z</time>
      </trkpt>
      <trkpt lat="43.29736" lon="2.39879">
        <ele>167</ele>
        <time>2020-06-07T09:56:30Z</time>
      </trkpt>
      <trkpt lat="43.29797" lon="2.39789">
        <ele>169</ele>
        <time>2020-06-07T09:56:45Z</time>
      </trkpt>
      <trkpt lat="43.29831" lon="2.39724">
        <ele>166</ele>
        <time>2020-06-07T09:56:56Z</time>
      </trkpt>
      <trkpt lat="43.2984" lon="2.39706">
        <ele>165</ele>
        <time>2020-06-07T09:56:59Z</time>
      </trkpt>
      <trkpt lat="43.29875" lon="2.39638">
        <ele>165</ele>
        <time>2020-06-07T09:57:09Z</time>
      </trkpt>
      <trkpt lat="43.29901" lon="2.39608">
        <ele>164</ele>
        <time>2020-06-07T09:57:16Z</time>
      </trkpt>
      <trkpt lat="43.29927" lon="2.39586">
        <ele>162</ele>
        <time>2020-06-07T09:57:21Z</time>
      </trkpt>
      <trkpt lat="43.29964" lon="2.39563">
        <ele>161</ele>
        <time>2020-06-07T09:57:28Z</time>
      </trkpt>
      <trkpt lat="43.29992" lon="2.39552">
        <ele>160</ele>
        <time>2020-06-07T09:57:33Z</time>
      </trkpt>
      <trkpt lat="43.30019" lon="2.39538">
        <ele>160</ele>
        <time>2020-06-07T09:57:38Z</time>
      </trkpt>
      <trkpt lat="43.30037" lon="2.39525">
        <ele>161</ele>
        <time>2020-06-07T09:57:42Z</time>
      </trkpt>
      <trkpt lat="43.30073" lon="2.39496">
        <ele>163</ele>
        <time>2020-06-07T09:57:50Z</time>
      </trkpt>
      <trkpt lat="43.30087" lon="2.39481">
        <ele>165</ele>
        <time>2020-06-07T09:57:53Z</time>
      </trkpt>
      <trkpt lat="43.30112" lon="2.39465">
        <ele>167</ele>
        <time>2020-06-07T09:57:58Z</time>
      </trkpt>
      <trkpt lat="43.30117" lon="2.39464">
        <ele>167</ele>
        <time>2020-06-07T09:57:59Z</time>
      </trkpt>
      <trkpt lat="43.30142" lon="2.39457">
        <ele>168</ele>
        <time>2020-06-07T09:58:03Z</time>
      </trkpt>
      <trkpt lat="43.30205" lon="2.39448">
        <ele>168</ele>
        <time>2020-06-07T09:58:14Z</time>
      </trkpt>
      <trkpt lat="43.30298" lon="2.3943">
        <ele>167</ele>
        <time>2020-06-07T09:58:31Z</time>
      </trkpt>
      <trkpt lat="43.30327" lon="2.39422">
        <ele>167</ele>
        <time>2020-06-07T09:58:36Z</time>
      </trkpt>
      <trkpt lat="43.30435" lon="2.39376">
        <ele>168</ele>
        <time>2020-06-07T09:58:56Z</time>
      </trkpt>
      <trkpt lat="43.30456" lon="2.3937">
        <ele>167</ele>
        <time>2020-06-07T09:59:00Z</time>
      </trkpt>
      <trkpt lat="43.30481" lon="2.39368">
        <ele>164</ele>
        <time>2020-06-07T09:59:05Z</time>
      </trkpt>
      <trkpt lat="43.30485" lon="2.39367">
        <ele>164</ele>
        <time>2020-06-07T09:59:05Z</time>
      </trkpt>
      <trkpt lat="43.30534" lon="2.39364">
        <ele>161</ele>
        <time>2020-06-07T09:59:14Z</time>
      </trkpt>
      <trkpt lat="43.30563" lon="2.39356">
        <ele>161</ele>
        <time>2020-06-07T09:59:19Z</time>
      </trkpt>
      <trkpt lat="43.30591" lon="2.39344">
        <ele>161</ele>
        <time>2020-06-07T09:59:25Z</time>
      </trkpt>
      <trkpt lat="43.30611" lon="2.3933">
        <ele>161</ele>
        <time>2020-06-07T09:59:29Z</time>
      </trkpt>
      <trkpt lat="43.30654" lon="2.39292">
        <ele>162</ele>
        <time>2020-06-07T09:59:38Z</time>
      </trkpt>
      <trkpt lat="43.30733" lon="2.39235">
        <ele>164</ele>
        <time>2020-06-07T09:59:54Z</time>
      </trkpt>
      <trkpt lat="43.30746" lon="2.3923">
        <ele>164</ele>
        <time>2020-06-07T09:59:56Z</time>
      </trkpt>
      <trkpt lat="43.30764" lon="2.39229">
        <ele>165</ele>
        <time>2020-06-07T09:59:59Z</time>
      </trkpt>
      <trkpt lat="43.30825" lon="2.39252">
        <ele>167</ele>
        <time>2020-06-07T10:00:10Z</time>
      </trkpt>
      <trkpt lat="43.30861" lon="2.39259">
        <ele>168</ele>
        <time>2020-06-07T10:00:17Z</time>
      </trkpt>
      <trkpt lat="43.30884" lon="2.3926">
        <ele>168</ele>
        <time>2020-06-07T10:00:21Z</time>
      </trkpt>
      <trkpt lat="43.30906" lon="2.3926">
        <ele>169</ele>
        <time>2020-06-07T10:00:25Z</time>
      </trkpt>
      <trkpt lat="43.30943" lon="2.39256">
        <ele>169</ele>
        <time>2020-06-07T10:00:32Z</time>
      </trkpt>
      <trkpt lat="43.30963" lon="2.39258">
        <ele>168</ele>
        <time>2020-06-07T10:00:35Z</time>
      </trkpt>
      <trkpt lat="43.30978" lon="2.39264">
        <ele>167</ele>
        <time>2020-06-07T10:00:38Z</time>
      </trkpt>
      <trkpt lat="43.30995" lon="2.39273">
        <ele>166</ele>
        <time>2020-06-07T10:00:41Z</time>
      </trkpt>
      <trkpt lat="43.31017" lon="2.39291">
        <ele>166</ele>
        <time>2020-06-07T10:00:46Z</time>
      </trkpt>
      <trkpt lat="43.31036" lon="2.3931">
        <ele>166</ele>
        <time>2020-06-07T10:00:50Z</time>
      </trkpt>
      <trkpt lat="43.31055" lon="2.39321">
        <ele>166</ele>
        <time>2020-06-07T10:00:54Z</time>
      </trkpt>
      <trkpt lat="43.3112" lon="2.3935">
        <ele>169</ele>
        <time>2020-06-07T10:01:06Z</time>
      </trkpt>
      <trkpt lat="43.31178" lon="2.39382">
        <ele>169</ele>
        <time>2020-06-07T10:01:17Z</time>
      </trkpt>
      <trkpt lat="43.312" lon="2.39391">
        <ele>168</ele>
        <time>2020-06-07T10:01:21Z</time>
      </trkpt>
      <trkpt lat="43.31251" lon="2.39394">
        <ele>168</ele>
        <time>2020-06-07T10:01:30Z</time>
      </trkpt>
      <trkpt lat="43.31312" lon="2.39393">
        <ele>171</ele>
        <time>2020-06-07T10:01:41Z</time>
      </trkpt>
      <trkpt lat="43.31322" lon="2.39387">
        <ele>172</ele>
        <time>2020-06-07T10:01:43Z</time>
      </trkpt>
      <trkpt lat="43.31335" lon="2.39374">
        <ele>173</ele>
        <time>2020-06-07T10:01:46Z</time>
      </trkpt>
      <trkpt lat="43.31353" lon="2.39336">
        <ele>174</ele>
        <time>2020-06-07T10:01:51Z</time>
      </trkpt>
      <trkpt lat="43.31383" lon="2.39287">
        <ele>176</ele>
        <time>2020-06-07T10:02:00Z</time>
      </trkpt>
      <trkpt lat="43.31398" lon="2.39265">
        <ele>177</ele>
        <time>2020-06-07T10:02:04Z</time>
      </trkpt>
      <trkpt lat="43.31429" lon="2.39236">
        <ele>178</ele>
        <time>2020-06-07T10:02:10Z</time>
      </trkpt>
      <trkpt lat="43.31489" lon="2.39199">
        <ele>177</ele>
        <time>2020-06-07T10:02:22Z</time>
      </trkpt>
      <trkpt lat="43.31523" lon="2.39171">
        <ele>179</ele>
        <time>2020-06-07T10:02:29Z</time>
      </trkpt>
      <trkpt lat="43.31622" lon="2.39076">
        <ele>182</ele>
        <time>2020-06-07T10:02:51Z</time>
      </trkpt>
      <trkpt lat="43.3164" lon="2.39042">
        <ele>183</ele>
        <time>2020-06-07T10:02:56Z</time>
      </trkpt>
      <trkpt lat="43.31654" lon="2.39008">
        <ele>184</ele>
        <time>2020-06-07T10:03:01Z</time>
      </trkpt>
      <trkpt lat="43.31664" lon="2.38978">
        <ele>185</ele>
        <time>2020-06-07T10:03:05Z</time>
      </trkpt>
      <trkpt lat="43.31674" lon="2.38933">
        <ele>189</ele>
        <time>2020-06-07T10:03:11Z</time>
      </trkpt>
      <trkpt lat="43.31687" lon="2.3889">
        <ele>195</ele>
        <time>2020-06-07T10:03:17Z</time>
      </trkpt>
      <trkpt lat="43.31709" lon="2.38858">
        <ele>194</ele>
        <time>2020-06-07T10:03:23Z</time>
      </trkpt>
      <trkpt lat="43.31739" lon="2.38825">
        <ele>188</ele>
        <time>2020-06-07T10:03:30Z</time>
      </trkpt>
      <trkpt lat="43.31762" lon="2.38803">
        <ele>190</ele>
        <time>2020-06-07T10:03:35Z</time>
      </trkpt>
      <trkpt lat="43.31785" lon="2.38776">
        <ele>192</ele>
        <time>2020-06-07T10:03:40Z</time>
      </trkpt>
      <trkpt lat="43.31808" lon="2.38756">
        <ele>189</ele>
        <time>2020-06-07T10:03:45Z</time>
      </trkpt>
      <trkpt lat="43.31851" lon="2.38731">
        <ele>187</ele>
        <time>2020-06-07T10:03:54Z</time>
      </trkpt>
      <trkpt lat="43.31886" lon="2.38694">
        <ele>190</ele>
        <time>2020-06-07T10:04:01Z</time>
      </trkpt>
      <trkpt lat="43.31933" lon="2.38673">
        <ele>183</ele>
        <time>2020-06-07T10:04:10Z</time>
      </trkpt>
      <trkpt lat="43.31986" lon="2.38644">
        <ele>188</ele>
        <time>2020-06-07T10:04:20Z</time>
      </trkpt>
      <trkpt lat="43.32039" lon="2.38623">
        <ele>189</ele>
        <time>2020-06-07T10:04:30Z</time>
      </trkpt>
      <trkpt lat="43.32064" lon="2.38619">
        <ele>187</ele>
        <time>2020-06-07T10:04:35Z</time>
      </trkpt>
      <trkpt lat="43.32083" lon="2.38621">
        <ele>185</ele>
        <time>2020-06-07T10:04:38Z</time>
      </trkpt>
      <trkpt lat="43.32088" lon="2.38622">
        <ele>185</ele>
        <time>2020-06-07T10:04:39Z</time>
      </trkpt>
      <trkpt lat="43.32099" lon="2.38623">
        <ele>186</ele>
        <time>2020-06-07T10:04:41Z</time>
      </trkpt>
      <trkpt lat="43.3211" lon="2.38621">
        <ele>187</ele>
        <time>2020-06-07T10:04:43Z</time>
      </trkpt>
      <trkpt lat="43.32174" lon="2.38597">
        <ele>192</ele>
        <time>2020-06-07T10:04:55Z</time>
      </trkpt>
      <trkpt lat="43.32219" lon="2.38603">
        <ele>193</ele>
        <time>2020-06-07T10:05:03Z</time>
      </trkpt>
      <trkpt lat="43.32245" lon="2.38595">
        <ele>195</ele>
        <time>2020-06-07T10:05:07Z</time>
      </trkpt>
      <trkpt lat="43.32279" lon="2.38594">
        <ele>196</ele>
        <time>2020-06-07T10:05:13Z</time>
      </trkpt>
      <trkpt lat="43.32314" lon="2.38605">
        <ele>197</ele>
        <time>2020-06-07T10:05:20Z</time>
      </trkpt>
      <trkpt lat="43.3234" lon="2.38606">
        <ele>198</ele>
        <time>2020-06-07T10:05:25Z</time>
      </trkpt>
      <trkpt lat="43.32358" lon="2.38604">
        <ele>197</ele>
        <time>2020-06-07T10:05:28Z</time>
      </trkpt>
      <trkpt lat="43.32397" lon="2.38584">
        <ele>191</ele>
        <time>2020-06-07T10:05:35Z</time>
      </trkpt>
      <trkpt lat="43.32426" lon="2.38566">
        <ele>195</ele>
        <time>2020-06-07T10:05:41Z</time>
      </trkpt>
      <trkpt lat="43.32453" lon="2.38556">
        <ele>197</ele>
        <time>2020-06-07T10:05:46Z</time>
      </trkpt>
      <trkpt lat="43.32472" lon="2.38544">
        <ele>198</ele>
        <time>2020-06-07T10:05:49Z</time>
      </trkpt>
      <trkpt lat="43.32495" lon="2.38518">
        <ele>198</ele>
        <time>2020-06-07T10:05:55Z</time>
      </trkpt>
      <trkpt lat="43.32571" lon="2.384">
        <ele>201</ele>
        <time>2020-06-07T10:06:15Z</time>
      </trkpt>
      <trkpt lat="43.32578" lon="2.38386">
        <ele>202</ele>
        <time>2020-06-07T10:06:17Z</time>
      </trkpt>
      <trkpt lat="43.32585" lon="2.38376">
        <ele>201</ele>
        <time>2020-06-07T10:06:19Z</time>
      </trkpt>
      <trkpt lat="43.32635" lon="2.38337">
        <ele>199</ele>
        <time>2020-06-07T10:06:29Z</time>
      </trkpt>
      <trkpt lat="43.3266" lon="2.38315">
        <ele>198</ele>
        <time>2020-06-07T10:06:35Z</time>
      </trkpt>
      <trkpt lat="43.32685" lon="2.38281">
        <ele>205</ele>
        <time>2020-06-07T10:06:41Z</time>
      </trkpt>
      <trkpt lat="43.32695" lon="2.38271">
        <ele>208</ele>
        <time>2020-06-07T10:06:43Z</time>
      </trkpt>
      <trkpt lat="43.32706" lon="2.38267">
        <ele>208</ele>
        <time>2020-06-07T10:06:45Z</time>
      </trkpt>
      <trkpt lat="43.32718" lon="2.38265">
        <ele>208</ele>
        <time>2020-06-07T10:06:47Z</time>
      </trkpt>
      <trkpt lat="43.32741" lon="2.38274">
        <ele>206</ele>
        <time>2020-06-07T10:06:52Z</time>
      </trkpt>
      <trkpt lat="43.32752" lon="2.38284">
        <ele>203</ele>
        <time>2020-06-07T10:06:54Z</time>
      </trkpt>
      <trkpt lat="43.32757" lon="2.38293">
        <ele>201</ele>
        <time>2020-06-07T10:06:55Z</time>
      </trkpt>
      <trkpt lat="43.32766" lon="2.38328">
        <ele>193</ele>
        <time>2020-06-07T10:07:00Z</time>
      </trkpt>
      <trkpt lat="43.32771" lon="2.3834">
        <ele>192</ele>
        <time>2020-06-07T10:07:02Z</time>
      </trkpt>
      <trkpt lat="43.32779" lon="2.38346">
        <ele>193</ele>
        <time>2020-06-07T10:07:04Z</time>
      </trkpt>
      <trkpt lat="43.32785" lon="2.38346">
        <ele>193</ele>
        <time>2020-06-07T10:07:05Z</time>
      </trkpt>
      <trkpt lat="43.32811" lon="2.3833">
        <ele>194</ele>
        <time>2020-06-07T10:07:10Z</time>
      </trkpt>
      <trkpt lat="43.3282" lon="2.38326">
        <ele>195</ele>
        <time>2020-06-07T10:07:11Z</time>
      </trkpt>
      <trkpt lat="43.32869" lon="2.38317">
        <ele>200</ele>
        <time>2020-06-07T10:07:20Z</time>
      </trkpt>
      <trkpt lat="43.3289" lon="2.38307">
        <ele>204</ele>
        <time>2020-06-07T10:07:24Z</time>
      </trkpt>
      <trkpt lat="43.32913" lon="2.38298">
        <ele>208</ele>
        <time>2020-06-07T10:07:28Z</time>
      </trkpt>
      <trkpt lat="43.32926" lon="2.383">
        <ele>207</ele>
        <time>2020-06-07T10:07:31Z</time>
      </trkpt>
      <trkpt lat="43.32942" lon="2.38305">
        <ele>206</ele>
        <time>2020-06-07T10:07:34Z</time>
      </trkpt>
      <trkpt lat="43.32956" lon="2.38312">
        <ele>204</ele>
        <time>2020-06-07T10:07:36Z</time>
      </trkpt>
      <trkpt lat="43.32975" lon="2.38334">
        <ele>199</ele>
        <time>2020-06-07T10:07:41Z</time>
      </trkpt>
      <trkpt lat="43.32992" lon="2.38348">
        <ele>201</ele>
        <time>2020-06-07T10:07:44Z</time>
      </trkpt>
      <trkpt lat="43.3301" lon="2.38358">
        <ele>203</ele>
        <time>2020-06-07T10:07:48Z</time>
      </trkpt>
      <trkpt lat="43.33022" lon="2.3836">
        <ele>204</ele>
        <time>2020-06-07T10:07:50Z</time>
      </trkpt>
      <trkpt lat="43.33033" lon="2.38358">
        <ele>205</ele>
        <time>2020-06-07T10:07:52Z</time>
      </trkpt>
      <trkpt lat="43.33044" lon="2.38351">
        <ele>204</ele>
        <time>2020-06-07T10:07:54Z</time>
      </trkpt>
      <trkpt lat="43.33125" lon="2.38234">
        <ele>204</ele>
        <time>2020-06-07T10:08:15Z</time>
      </trkpt>
      <trkpt lat="43.33165" lon="2.38209">
        <ele>205</ele>
        <time>2020-06-07T10:08:23Z</time>
      </trkpt>
      <trkpt lat="43.33206" lon="2.38161">
        <ele>206</ele>
        <time>2020-06-07T10:08:32Z</time>
      </trkpt>
      <trkpt lat="43.3321" lon="2.38152">
        <ele>208</ele>
        <time>2020-06-07T10:08:34Z</time>
      </trkpt>
      <trkpt lat="43.33215" lon="2.38131">
        <ele>211</ele>
        <time>2020-06-07T10:08:37Z</time>
      </trkpt>
      <trkpt lat="43.3322" lon="2.38119">
        <ele>213</ele>
        <time>2020-06-07T10:08:38Z</time>
      </trkpt>
      <trkpt lat="43.3323" lon="2.38108">
        <ele>215</ele>
        <time>2020-06-07T10:08:41Z</time>
      </trkpt>
      <trkpt lat="43.33241" lon="2.38102">
        <ele>216</ele>
        <time>2020-06-07T10:08:43Z</time>
      </trkpt>
      <trkpt lat="43.33266" lon="2.38096">
        <ele>214</ele>
        <time>2020-06-07T10:08:47Z</time>
      </trkpt>
      <trkpt lat="43.33278" lon="2.38095">
        <ele>213</ele>
        <time>2020-06-07T10:08:49Z</time>
      </trkpt>
      <trkpt lat="43.33289" lon="2.38098">
        <ele>211</ele>
        <time>2020-06-07T10:08:51Z</time>
      </trkpt>
      <trkpt lat="43.33317" lon="2.38114">
        <ele>206</ele>
        <time>2020-06-07T10:08:57Z</time>
      </trkpt>
      <trkpt lat="43.3334" lon="2.38123">
        <ele>205</ele>
        <time>2020-06-07T10:09:01Z</time>
      </trkpt>
      <trkpt lat="43.33346" lon="2.38123">
        <ele>206</ele>
        <time>2020-06-07T10:09:02Z</time>
      </trkpt>
      <trkpt lat="43.33351" lon="2.38118">
        <ele>207</ele>
        <time>2020-06-07T10:09:03Z</time>
      </trkpt>
      <trkpt lat="43.33361" lon="2.38077">
        <ele>208</ele>
        <time>2020-06-07T10:09:09Z</time>
      </trkpt>
      <trkpt lat="43.33361" lon="2.38009">
        <ele>216</ele>
        <time>2020-06-07T10:09:18Z</time>
      </trkpt>
      <trkpt lat="43.33368" lon="2.37922">
        <ele>220</ele>
        <time>2020-06-07T10:09:29Z</time>
      </trkpt>
      <trkpt lat="43.33371" lon="2.37848">
        <ele>224</ele>
        <time>2020-06-07T10:09:38Z</time>
      </trkpt>
      <trkpt lat="43.33374" lon="2.37839">
        <ele>224</ele>
        <time>2020-06-07T10:09:40Z</time>
      </trkpt>
      <trkpt lat="43.33384" lon="2.37822">
        <ele>222</ele>
        <time>2020-06-07T10:09:43Z</time>
      </trkpt>
      <trkpt lat="43.33391" lon="2.37813">
        <ele>220</ele>
        <time>2020-06-07T10:09:44Z</time>
      </trkpt>
      <trkpt lat="43.33405" lon="2.37802">
        <ele>216</ele>
        <time>2020-06-07T10:09:47Z</time>
      </trkpt>
      <trkpt lat="43.33417" lon="2.37798">
        <ele>213</ele>
        <time>2020-06-07T10:09:49Z</time>
      </trkpt>
      <trkpt lat="43.33427" lon="2.37799">
        <ele>217</ele>
        <time>2020-06-07T10:09:51Z</time>
      </trkpt>
      <trkpt lat="43.33436" lon="2.37805">
        <ele>220</ele>
        <time>2020-06-07T10:09:53Z</time>
      </trkpt>
      <trkpt lat="43.33445" lon="2.37813">
        <ele>223</ele>
        <time>2020-06-07T10:09:55Z</time>
      </trkpt>
      <trkpt lat="43.33454" lon="2.37828">
        <ele>225</ele>
        <time>2020-06-07T10:09:57Z</time>
      </trkpt>
      <trkpt lat="43.33466" lon="2.37859">
        <ele>226</ele>
        <time>2020-06-07T10:10:02Z</time>
      </trkpt>
      <trkpt lat="43.3349" lon="2.37968">
        <ele>220</ele>
        <time>2020-06-07T10:10:17Z</time>
      </trkpt>
      <trkpt lat="43.33494" lon="2.37982">
        <ele>220</ele>
        <time>2020-06-07T10:10:19Z</time>
      </trkpt>
      <trkpt lat="43.33502" lon="2.37994">
        <ele>220</ele>
        <time>2020-06-07T10:10:21Z</time>
      </trkpt>
      <trkpt lat="43.33532" lon="2.38024">
        <ele>225</ele>
        <time>2020-06-07T10:10:27Z</time>
      </trkpt>
      <trkpt lat="43.33548" lon="2.38034">
        <ele>226</ele>
        <time>2020-06-07T10:10:30Z</time>
      </trkpt>
      <trkpt lat="43.33569" lon="2.38037">
        <ele>228</ele>
        <time>2020-06-07T10:10:34Z</time>
      </trkpt>
      <trkpt lat="43.33605" lon="2.38035">
        <ele>228</ele>
        <time>2020-06-07T10:10:41Z</time>
      </trkpt>
      <trkpt lat="43.33635" lon="2.38027">
        <ele>227</ele>
        <time>2020-06-07T10:10:46Z</time>
      </trkpt>
      <trkpt lat="43.33656" lon="2.3801">
        <ele>226</ele>
        <time>2020-06-07T10:10:50Z</time>
      </trkpt>
      <trkpt lat="43.33668" lon="2.37995">
        <ele>226</ele>
        <time>2020-06-07T10:10:53Z</time>
      </trkpt>
      <trkpt lat="43.33673" lon="2.37978">
        <ele>234</ele>
        <time>2020-06-07T10:10:56Z</time>
      </trkpt>
      <trkpt lat="43.33682" lon="2.37967">
        <ele>238</ele>
        <time>2020-06-07T10:10:58Z</time>
      </trkpt>
      <trkpt lat="43.33719" lon="2.37943">
        <ele>239</ele>
        <time>2020-06-07T10:11:05Z</time>
      </trkpt>
      <trkpt lat="43.33733" lon="2.37937">
        <ele>237</ele>
        <time>2020-06-07T10:11:08Z</time>
      </trkpt>
      <trkpt lat="43.33752" lon="2.37936">
        <ele>233</ele>
        <time>2020-06-07T10:11:11Z</time>
      </trkpt>
      <trkpt lat="43.33771" lon="2.37938">
        <ele>232</ele>
        <time>2020-06-07T10:11:14Z</time>
      </trkpt>
      <trkpt lat="43.33807" lon="2.37955">
        <ele>229</ele>
        <time>2020-06-07T10:11:21Z</time>
      </trkpt>
      <trkpt lat="43.33839" lon="2.37984">
        <ele>224</ele>
        <time>2020-06-07T10:11:28Z</time>
      </trkpt>
      <trkpt lat="43.33848" lon="2.37988">
        <ele>224</ele>
        <time>2020-06-07T10:11:30Z</time>
      </trkpt>
      <trkpt lat="43.33855" lon="2.37986">
        <ele>224</ele>
        <time>2020-06-07T10:11:31Z</time>
      </trkpt>
      <trkpt lat="43.33868" lon="2.37979">
        <ele>225</ele>
        <time>2020-06-07T10:11:33Z</time>
      </trkpt>
      <trkpt lat="43.3388" lon="2.37968">
        <ele>225</ele>
        <time>2020-06-07T10:11:36Z</time>
      </trkpt>
      <trkpt lat="43.33892" lon="2.37948">
        <ele>226</ele>
        <time>2020-06-07T10:11:39Z</time>
      </trkpt>
      <trkpt lat="43.339" lon="2.37929">
        <ele>226</ele>
        <time>2020-06-07T10:11:42Z</time>
      </trkpt>
      <trkpt lat="43.33904" lon="2.37912">
        <ele>227</ele>
        <time>2020-06-07T10:11:45Z</time>
      </trkpt>
      <trkpt lat="43.33905" lon="2.3783">
        <ele>236</ele>
        <time>2020-06-07T10:11:55Z</time>
      </trkpt>
      <trkpt lat="43.33908" lon="2.37801">
        <ele>239</ele>
        <time>2020-06-07T10:11:59Z</time>
      </trkpt>
      <trkpt lat="43.33914" lon="2.37778">
        <ele>240</ele>
        <time>2020-06-07T10:12:02Z</time>
      </trkpt>
      <trkpt lat="43.33922" lon="2.37759">
        <ele>240</ele>
        <time>2020-06-07T10:12:05Z</time>
      </trkpt>
      <trkpt lat="43.3393" lon="2.37747">
        <ele>241</ele>
        <time>2020-06-07T10:12:07Z</time>
      </trkpt>
      <trkpt lat="43.33947" lon="2.37734">
        <ele>241</ele>
        <time>2020-06-07T10:12:11Z</time>
      </trkpt>
      <trkpt lat="43.33968" lon="2.37723">
        <ele>240</ele>
        <time>2020-06-07T10:12:15Z</time>
      </trkpt>
      <trkpt lat="43.33986" lon="2.37717">
        <ele>240</ele>
        <time>2020-06-07T10:12:18Z</time>
      </trkpt>
      <trkpt lat="43.33997" lon="2.37716">
        <ele>239</ele>
        <time>2020-06-07T10:12:20Z</time>
      </trkpt>
      <trkpt lat="43.34018" lon="2.37725">
        <ele>240</ele>
        <time>2020-06-07T10:12:24Z</time>
      </trkpt>
      <trkpt lat="43.34094" lon="2.37795">
        <ele>241</ele>
        <time>2020-06-07T10:12:40Z</time>
      </trkpt>
      <trkpt lat="43.34111" lon="2.378">
        <ele>241</ele>
        <time>2020-06-07T10:12:43Z</time>
      </trkpt>
      <trkpt lat="43.34123" lon="2.37794">
        <ele>241</ele>
        <time>2020-06-07T10:12:45Z</time>
      </trkpt>
      <trkpt lat="43.34144" lon="2.37771">
        <ele>240</ele>
        <time>2020-06-07T10:12:50Z</time>
      </trkpt>
      <trkpt lat="43.34175" lon="2.37731">
        <ele>245</ele>
        <time>2020-06-07T10:12:58Z</time>
      </trkpt>
      <trkpt lat="43.34208" lon="2.37705">
        <ele>248</ele>
        <time>2020-06-07T10:13:04Z</time>
      </trkpt>
      <trkpt lat="43.34242" lon="2.37683">
        <ele>246</ele>
        <time>2020-06-07T10:13:11Z</time>
      </trkpt>
      <trkpt lat="43.3426" lon="2.37673">
        <ele>248</ele>
        <time>2020-06-07T10:13:15Z</time>
      </trkpt>
      <trkpt lat="43.34272" lon="2.37673">
        <ele>250</ele>
        <time>2020-06-07T10:13:17Z</time>
      </trkpt>
      <trkpt lat="43.34281" lon="2.37682">
        <ele>250</ele>
        <time>2020-06-07T10:13:19Z</time>
      </trkpt>
      <trkpt lat="43.3429" lon="2.37695">
        <ele>250</ele>
        <time>2020-06-07T10:13:21Z</time>
      </trkpt>
      <trkpt lat="43.34298" lon="2.37719">
        <ele>247</ele>
        <time>2020-06-07T10:13:24Z</time>
      </trkpt>
      <trkpt lat="43.34318" lon="2.37793">
        <ele>245</ele>
        <time>2020-06-07T10:13:35Z</time>
      </trkpt>
      <trkpt lat="43.34326" lon="2.37814">
        <ele>244</ele>
        <time>2020-06-07T10:13:38Z</time>
      </trkpt>
      <trkpt lat="43.34331" lon="2.37823">
        <ele>243</ele>
        <time>2020-06-07T10:13:39Z</time>
      </trkpt>
      <trkpt lat="43.34338" lon="2.3783">
        <ele>243</ele>
        <time>2020-06-07T10:13:41Z</time>
      </trkpt>
      <trkpt lat="43.34357" lon="2.37832">
        <ele>244</ele>
        <time>2020-06-07T10:13:44Z</time>
      </trkpt>
      <trkpt lat="43.34399" lon="2.37829">
        <ele>247</ele>
        <time>2020-06-07T10:13:52Z</time>
      </trkpt>
      <trkpt lat="43.34433" lon="2.37835">
        <ele>246</ele>
        <time>2020-06-07T10:13:58Z</time>
      </trkpt>
      <trkpt lat="43.34455" lon="2.37844">
        <ele>246</ele>
        <time>2020-06-07T10:14:02Z</time>
      </trkpt>
      <trkpt lat="43.34466" lon="2.37855">
        <ele>246</ele>
        <time>2020-06-07T10:14:04Z</time>
      </trkpt>
      <trkpt lat="43.34482" lon="2.37898">
        <ele>246</ele>
        <time>2020-06-07T10:14:10Z</time>
      </trkpt>
      <trkpt lat="43.34487" lon="2.379">
        <ele>246</ele>
        <time>2020-06-07T10:14:11Z</time>
      </trkpt>
      <trkpt lat="43.34497" lon="2.37898">
        <ele>244</ele>
        <time>2020-06-07T10:14:13Z</time>
      </trkpt>
      <trkpt lat="43.34506" lon="2.37889">
        <ele>244</ele>
        <time>2020-06-07T10:14:15Z</time>
      </trkpt>
      <trkpt lat="43.34512" lon="2.37874">
        <ele>245</ele>
        <time>2020-06-07T10:14:17Z</time>
      </trkpt>
      <trkpt lat="43.34539" lon="2.37756">
        <ele>252</ele>
        <time>2020-06-07T10:14:33Z</time>
      </trkpt>
      <trkpt lat="43.34548" lon="2.37743">
        <ele>254</ele>
        <time>2020-06-07T10:14:36Z</time>
      </trkpt>
      <trkpt lat="43.34562" lon="2.37736">
        <ele>255</ele>
        <time>2020-06-07T10:14:38Z</time>
      </trkpt>
      <trkpt lat="43.34581" lon="2.37736">
        <ele>252</ele>
        <time>2020-06-07T10:14:42Z</time>
      </trkpt>
      <trkpt lat="43.3459" lon="2.3774">
        <ele>252</ele>
        <time>2020-06-07T10:14:43Z</time>
      </trkpt>
      <trkpt lat="43.34596" lon="2.37747">
        <ele>252</ele>
        <time>2020-06-07T10:14:45Z</time>
      </trkpt>
      <trkpt lat="43.34611" lon="2.37777">
        <ele>253</ele>
        <time>2020-06-07T10:14:50Z</time>
      </trkpt>
      <trkpt lat="43.34623" lon="2.37797">
        <ele>253</ele>
        <time>2020-06-07T10:14:53Z</time>
      </trkpt>
      <trkpt lat="43.34638" lon="2.37814">
        <ele>252</ele>
        <time>2020-06-07T10:14:56Z</time>
      </trkpt>
      <trkpt lat="43.34653" lon="2.37827">
        <ele>251</ele>
        <time>2020-06-07T10:14:59Z</time>
      </trkpt>
      <trkpt lat="43.34673" lon="2.3784">
        <ele>253</ele>
        <time>2020-06-07T10:15:03Z</time>
      </trkpt>
      <trkpt lat="43.34717" lon="2.37847">
        <ele>259</ele>
        <time>2020-06-07T10:15:11Z</time>
      </trkpt>
      <trkpt lat="43.34752" lon="2.37855">
        <ele>263</ele>
        <time>2020-06-07T10:15:18Z</time>
      </trkpt>
      <trkpt lat="43.34779" lon="2.37856">
        <ele>262</ele>
        <time>2020-06-07T10:15:22Z</time>
      </trkpt>
      <trkpt lat="43.34878" lon="2.3784">
        <ele>256</ele>
        <time>2020-06-07T10:15:40Z</time>
      </trkpt>
      <trkpt lat="43.34909" lon="2.37838">
        <ele>252</ele>
        <time>2020-06-07T10:15:46Z</time>
      </trkpt>
      <trkpt lat="43.34997" lon="2.37822">
        <ele>242</ele>
        <time>2020-06-07T10:16:01Z</time>
      </trkpt>
      <trkpt lat="43.35038" lon="2.3781">
        <ele>243</ele>
        <time>2020-06-07T10:16:09Z</time>
      </trkpt>
      <trkpt lat="43.35048" lon="2.37804">
        <ele>243</ele>
        <time>2020-06-07T10:16:11Z</time>
      </trkpt>
      <trkpt lat="43.35086" lon="2.3776">
        <ele>243</ele>
        <time>2020-06-07T10:16:20Z</time>
      </trkpt>
      <trkpt lat="43.35131" lon="2.37734">
        <ele>244</ele>
        <time>2020-06-07T10:16:28Z</time>
      </trkpt>
      <trkpt lat="43.35162" lon="2.37708">
        <ele>243</ele>
        <time>2020-06-07T10:16:35Z</time>
      </trkpt>
      <trkpt lat="43.35168" lon="2.37698">
        <ele>243</ele>
        <time>2020-06-07T10:16:37Z</time>
      </trkpt>
      <trkpt lat="43.35176" lon="2.37677">
        <ele>243</ele>
        <time>2020-06-07T10:16:40Z</time>
      </trkpt>
      <trkpt lat="43.35184" lon="2.37661">
        <ele>244</ele>
        <time>2020-06-07T10:16:42Z</time>
      </trkpt>
      <trkpt lat="43.35212" lon="2.37625">
        <ele>247</ele>
        <time>2020-06-07T10:16:49Z</time>
      </trkpt>
      <trkpt lat="43.35223" lon="2.37609">
        <ele>247</ele>
        <time>2020-06-07T10:16:52Z</time>
      </trkpt>
      <trkpt lat="43.35232" lon="2.37583">
        <ele>247</ele>
        <time>2020-06-07T10:16:56Z</time>
      </trkpt>
      <trkpt lat="43.35235" lon="2.37564">
        <ele>248</ele>
        <time>2020-06-07T10:16:58Z</time>
      </trkpt>
      <trkpt lat="43.35234" lon="2.37545">
        <ele>249</ele>
        <time>2020-06-07T10:17:00Z</time>
      </trkpt>
      <trkpt lat="43.35221" lon="2.3749">
        <ele>258</ele>
        <time>2020-06-07T10:17:08Z</time>
      </trkpt>
      <trkpt lat="43.3522" lon="2.37475">
        <ele>260</ele>
        <time>2020-06-07T10:17:10Z</time>
      </trkpt>
      <trkpt lat="43.35222" lon="2.37464">
        <ele>260</ele>
        <time>2020-06-07T10:17:11Z</time>
      </trkpt>
      <trkpt lat="43.35227" lon="2.37458">
        <ele>258</ele>
        <time>2020-06-07T10:17:13Z</time>
      </trkpt>
      <trkpt lat="43.35258" lon="2.37443">
        <ele>249</ele>
        <time>2020-06-07T10:17:18Z</time>
      </trkpt>
      <trkpt lat="43.35265" lon="2.37439">
        <ele>249</ele>
        <time>2020-06-07T10:17:20Z</time>
      </trkpt>
      <trkpt lat="43.35275" lon="2.3743">
        <ele>250</ele>
        <time>2020-06-07T10:17:22Z</time>
      </trkpt>
      <trkpt lat="43.35286" lon="2.37414">
        <ele>250</ele>
        <time>2020-06-07T10:17:25Z</time>
      </trkpt>
      <trkpt lat="43.35292" lon="2.37408">
        <ele>251</ele>
        <time>2020-06-07T10:17:26Z</time>
      </trkpt>
      <trkpt lat="43.35298" lon="2.37406">
        <ele>252</ele>
        <time>2020-06-07T10:17:27Z</time>
      </trkpt>
      <trkpt lat="43.35305" lon="2.37407">
        <ele>252</ele>
        <time>2020-06-07T10:17:28Z</time>
      </trkpt>
      <trkpt lat="43.35311" lon="2.37413">
        <ele>252</ele>
        <time>2020-06-07T10:17:30Z</time>
      </trkpt>
      <trkpt lat="43.35335" lon="2.37441">
        <ele>256</ele>
        <time>2020-06-07T10:17:35Z</time>
      </trkpt>
      <trkpt lat="43.35346" lon="2.3745">
        <ele>259</ele>
        <time>2020-06-07T10:17:38Z</time>
      </trkpt>
      <trkpt lat="43.35356" lon="2.37452">
        <ele>261</ele>
        <time>2020-06-07T10:17:39Z</time>
      </trkpt>
      <trkpt lat="43.35367" lon="2.37452">
        <ele>262</ele>
        <time>2020-06-07T10:17:41Z</time>
      </trkpt>
      <trkpt lat="43.35383" lon="2.37444">
        <ele>263</ele>
        <time>2020-06-07T10:17:44Z</time>
      </trkpt>
      <trkpt lat="43.35394" lon="2.37434">
        <ele>261</ele>
        <time>2020-06-07T10:17:47Z</time>
      </trkpt>
      <trkpt lat="43.35414" lon="2.37411">
        <ele>259</ele>
        <time>2020-06-07T10:17:51Z</time>
      </trkpt>
      <trkpt lat="43.35449" lon="2.37379">
        <ele>259</ele>
        <time>2020-06-07T10:17:59Z</time>
      </trkpt>
      <trkpt lat="43.35465" lon="2.37371">
        <ele>258</ele>
        <time>2020-06-07T10:18:02Z</time>
      </trkpt>
      <trkpt lat="43.35481" lon="2.37374">
        <ele>257</ele>
        <time>2020-06-07T10:18:05Z</time>
      </trkpt>
      <trkpt lat="43.35495" lon="2.37384">
        <ele>258</ele>
        <time>2020-06-07T10:18:08Z</time>
      </trkpt>
      <trkpt lat="43.35526" lon="2.37411">
        <ele>260</ele>
        <time>2020-06-07T10:18:14Z</time>
      </trkpt>
      <trkpt lat="43.35546" lon="2.37432">
        <ele>261</ele>
        <time>2020-06-07T10:18:19Z</time>
      </trkpt>
      <trkpt lat="43.35554" lon="2.37443">
        <ele>262</ele>
        <time>2020-06-07T10:18:21Z</time>
      </trkpt>
      <trkpt lat="43.35559" lon="2.37453">
        <ele>263</ele>
        <time>2020-06-07T10:18:22Z</time>
      </trkpt>
      <trkpt lat="43.35564" lon="2.37474">
        <ele>265</ele>
        <time>2020-06-07T10:18:25Z</time>
      </trkpt>
      <trkpt lat="43.35562" lon="2.3755">
        <ele>271</ele>
        <time>2020-06-07T10:18:35Z</time>
      </trkpt>
      <trkpt lat="43.35563" lon="2.37567">
        <ele>272</ele>
        <time>2020-06-07T10:18:37Z</time>
      </trkpt>
      <trkpt lat="43.35568" lon="2.37591">
        <ele>273</ele>
        <time>2020-06-07T10:18:40Z</time>
      </trkpt>
      <trkpt lat="43.35578" lon="2.37614">
        <ele>274</ele>
        <time>2020-06-07T10:18:44Z</time>
      </trkpt>
      <trkpt lat="43.35597" lon="2.37641">
        <ele>275</ele>
        <time>2020-06-07T10:18:49Z</time>
      </trkpt>
      <trkpt lat="43.35644" lon="2.37674">
        <ele>274</ele>
        <time>2020-06-07T10:18:58Z</time>
      </trkpt>
      <trkpt lat="43.35661" lon="2.3768">
        <ele>274</ele>
        <time>2020-06-07T10:19:01Z</time>
      </trkpt>
      <trkpt lat="43.35668" lon="2.37679">
        <ele>272</ele>
        <time>2020-06-07T10:19:02Z</time>
      </trkpt>
      <trkpt lat="43.35678" lon="2.37673">
        <ele>270</ele>
        <time>2020-06-07T10:19:04Z</time>
      </trkpt>
      <trkpt lat="43.35819" lon="2.37528">
        <ele>268</ele>
        <time>2020-06-07T10:19:36Z</time>
      </trkpt>
      <trkpt lat="43.35843" lon="2.37507">
        <ele>267</ele>
        <time>2020-06-07T10:19:41Z</time>
      </trkpt>
      <trkpt lat="43.35861" lon="2.37499">
        <ele>267</ele>
        <time>2020-06-07T10:19:44Z</time>
      </trkpt>
      <trkpt lat="43.35869" lon="2.37498">
        <ele>268</ele>
        <time>2020-06-07T10:19:46Z</time>
      </trkpt>
      <trkpt lat="43.3588" lon="2.37501">
        <ele>268</ele>
        <time>2020-06-07T10:19:47Z</time>
      </trkpt>
      <trkpt lat="43.35907" lon="2.37528">
        <ele>270</ele>
        <time>2020-06-07T10:19:53Z</time>
      </trkpt>
      <trkpt lat="43.35918" lon="2.37547">
        <ele>272</ele>
        <time>2020-06-07T10:19:57Z</time>
      </trkpt>
      <trkpt lat="43.35927" lon="2.37574">
        <ele>275</ele>
        <time>2020-06-07T10:20:00Z</time>
      </trkpt>
      <trkpt lat="43.3593" lon="2.37592">
        <ele>275</ele>
        <time>2020-06-07T10:20:03Z</time>
      </trkpt>
      <trkpt lat="43.35931" lon="2.37613">
        <ele>275</ele>
        <time>2020-06-07T10:20:06Z</time>
      </trkpt>
      <trkpt lat="43.35929" lon="2.37629">
        <ele>273</ele>
        <time>2020-06-07T10:20:08Z</time>
      </trkpt>
      <trkpt lat="43.35923" lon="2.37643">
        <ele>272</ele>
        <time>2020-06-07T10:20:10Z</time>
      </trkpt>
      <trkpt lat="43.35903" lon="2.3767">
        <ele>270</ele>
        <time>2020-06-07T10:20:15Z</time>
      </trkpt>
      <trkpt lat="43.35896" lon="2.37686">
        <ele>270</ele>
        <time>2020-06-07T10:20:17Z</time>
      </trkpt>
      <trkpt lat="43.35887" lon="2.37726">
        <ele>269</ele>
        <time>2020-06-07T10:20:23Z</time>
      </trkpt>
      <trkpt lat="43.35884" lon="2.37743">
        <ele>269</ele>
        <time>2020-06-07T10:20:25Z</time>
      </trkpt>
      <trkpt lat="43.35877" lon="2.37759">
        <ele>269</ele>
        <time>2020-06-07T10:20:27Z</time>
      </trkpt>
      <trkpt lat="43.3587" lon="2.37767">
        <ele>269</ele>
        <time>2020-06-07T10:20:29Z</time>
      </trkpt>
      <trkpt lat="43.35856" lon="2.37778">
        <ele>268</ele>
        <time>2020-06-07T10:20:32Z</time>
      </trkpt>
      <trkpt lat="43.35849" lon="2.37786">
        <ele>268</ele>
        <time>2020-06-07T10:20:33Z</time>
      </trkpt>
      <trkpt lat="43.35845" lon="2.37796">
        <ele>268</ele>
        <time>2020-06-07T10:20:35Z</time>
      </trkpt>
      <trkpt lat="43.35843" lon="2.37808">
        <ele>268</ele>
        <time>2020-06-07T10:20:36Z</time>
      </trkpt>
      <trkpt lat="43.35843" lon="2.37822">
        <ele>269</ele>
        <time>2020-06-07T10:20:38Z</time>
      </trkpt>
      <trkpt lat="43.35846" lon="2.37831">
        <ele>269</ele>
        <time>2020-06-07T10:20:40Z</time>
      </trkpt>
      <trkpt lat="43.35853" lon="2.37843">
        <ele>270</ele>
        <time>2020-06-07T10:20:41Z</time>
      </trkpt>
      <trkpt lat="43.35869" lon="2.3785">
        <ele>272</ele>
        <time>2020-06-07T10:20:44Z</time>
      </trkpt>
      <trkpt lat="43.35878" lon="2.37849">
        <ele>273</ele>
        <time>2020-06-07T10:20:46Z</time>
      </trkpt>
      <trkpt lat="43.35925" lon="2.37837">
        <ele>281</ele>
        <time>2020-06-07T10:20:55Z</time>
      </trkpt>
      <trkpt lat="43.35939" lon="2.37841">
        <ele>286</ele>
        <time>2020-06-07T10:20:57Z</time>
      </trkpt>
      <trkpt lat="43.35948" lon="2.37848">
        <ele>289</ele>
        <time>2020-06-07T10:20:59Z</time>
      </trkpt>
      <trkpt lat="43.35958" lon="2.37863">
        <ele>292</ele>
        <time>2020-06-07T10:21:02Z</time>
      </trkpt>
      <trkpt lat="43.35965" lon="2.37891">
        <ele>292</ele>
        <time>2020-06-07T10:21:05Z</time>
      </trkpt>
      <trkpt lat="43.35967" lon="2.37905">
        <ele>292</ele>
        <time>2020-06-07T10:21:07Z</time>
      </trkpt>
      <trkpt lat="43.35964" lon="2.3796">
        <ele>290</ele>
        <time>2020-06-07T10:21:14Z</time>
      </trkpt>
      <trkpt lat="43.3596" lon="2.37981">
        <ele>289</ele>
        <time>2020-06-07T10:21:17Z</time>
      </trkpt>
      <trkpt lat="43.35952" lon="2.38011">
        <ele>286</ele>
        <time>2020-06-07T10:21:21Z</time>
      </trkpt>
      <trkpt lat="43.35936" lon="2.38044">
        <ele>282</ele>
        <time>2020-06-07T10:21:26Z</time>
      </trkpt>
      <trkpt lat="43.35923" lon="2.38064">
        <ele>279</ele>
        <time>2020-06-07T10:21:30Z</time>
      </trkpt>
      <trkpt lat="43.35899" lon="2.38092">
        <ele>281</ele>
        <time>2020-06-07T10:21:36Z</time>
      </trkpt>
      <trkpt lat="43.35898" lon="2.38107">
        <ele>282</ele>
        <time>2020-06-07T10:21:38Z</time>
      </trkpt>
      <trkpt lat="43.359" lon="2.38113">
        <ele>281</ele>
        <time>2020-06-07T10:21:38Z</time>
      </trkpt>
      <trkpt lat="43.3591" lon="2.38121">
        <ele>279</ele>
        <time>2020-06-07T10:21:40Z</time>
      </trkpt>
      <trkpt lat="43.35925" lon="2.38122">
        <ele>279</ele>
        <time>2020-06-07T10:21:43Z</time>
      </trkpt>
      <trkpt lat="43.35949" lon="2.38117">
        <ele>283</ele>
        <time>2020-06-07T10:21:47Z</time>
      </trkpt>
      <trkpt lat="43.35963" lon="2.38124">
        <ele>284</ele>
        <time>2020-06-07T10:21:50Z</time>
      </trkpt>
      <trkpt lat="43.36015" lon="2.38169">
        <ele>283</ele>
        <time>2020-06-07T10:22:01Z</time>
      </trkpt>
      <trkpt lat="43.36047" lon="2.38186">
        <ele>285</ele>
        <time>2020-06-07T10:22:07Z</time>
      </trkpt>
      <trkpt lat="43.3607" lon="2.38195">
        <ele>286</ele>
        <time>2020-06-07T10:22:11Z</time>
      </trkpt>
      <trkpt lat="43.36092" lon="2.38198">
        <ele>285</ele>
        <time>2020-06-07T10:22:15Z</time>
      </trkpt>
      <trkpt lat="43.36107" lon="2.38193">
        <ele>285</ele>
        <time>2020-06-07T10:22:18Z</time>
      </trkpt>
      <trkpt lat="43.36146" lon="2.38166">
        <ele>281</ele>
        <time>2020-06-07T10:22:26Z</time>
      </trkpt>
      <trkpt lat="43.36179" lon="2.38143">
        <ele>283</ele>
        <time>2020-06-07T10:22:32Z</time>
      </trkpt>
      <trkpt lat="43.3619" lon="2.38133">
        <ele>286</ele>
        <time>2020-06-07T10:22:35Z</time>
      </trkpt>
      <trkpt lat="43.36195" lon="2.38126">
        <ele>288</ele>
        <time>2020-06-07T10:22:36Z</time>
      </trkpt>
      <trkpt lat="43.36198" lon="2.38109">
        <ele>289</ele>
        <time>2020-06-07T10:22:38Z</time>
      </trkpt>
      <trkpt lat="43.36196" lon="2.38098">
        <ele>289</ele>
        <time>2020-06-07T10:22:40Z</time>
      </trkpt>
      <trkpt lat="43.36178" lon="2.38061">
        <ele>285</ele>
        <time>2020-06-07T10:22:45Z</time>
      </trkpt>
      <trkpt lat="43.36175" lon="2.38049">
        <ele>285</ele>
        <time>2020-06-07T10:22:47Z</time>
      </trkpt>
      <trkpt lat="43.36175" lon="2.38041">
        <ele>285</ele>
        <time>2020-06-07T10:22:48Z</time>
      </trkpt>
      <trkpt lat="43.36178" lon="2.38032">
        <ele>285</ele>
        <time>2020-06-07T10:22:49Z</time>
      </trkpt>
      <trkpt lat="43.36183" lon="2.38028">
        <ele>286</ele>
        <time>2020-06-07T10:22:50Z</time>
      </trkpt>
      <trkpt lat="43.36198" lon="2.38022">
        <ele>287</ele>
        <time>2020-06-07T10:22:53Z</time>
      </trkpt>
      <trkpt lat="43.3623" lon="2.38025">
        <ele>291</ele>
        <time>2020-06-07T10:22:59Z</time>
      </trkpt>
      <trkpt lat="43.36243" lon="2.38022">
        <ele>292</ele>
        <time>2020-06-07T10:23:01Z</time>
      </trkpt>
      <trkpt lat="43.36261" lon="2.38011">
        <ele>294</ele>
        <time>2020-06-07T10:23:05Z</time>
      </trkpt>
      <trkpt lat="43.36288" lon="2.37982">
        <ele>298</ele>
        <time>2020-06-07T10:23:11Z</time>
      </trkpt>
      <trkpt lat="43.36298" lon="2.37968">
        <ele>299</ele>
        <time>2020-06-07T10:23:13Z</time>
      </trkpt>
      <trkpt lat="43.36306" lon="2.37953">
        <ele>300</ele>
        <time>2020-06-07T10:23:16Z</time>
      </trkpt>
      <trkpt lat="43.36314" lon="2.37931">
        <ele>298</ele>
        <time>2020-06-07T10:23:19Z</time>
      </trkpt>
      <trkpt lat="43.36321" lon="2.37907">
        <ele>298</ele>
        <time>2020-06-07T10:23:22Z</time>
      </trkpt>
      <trkpt lat="43.36324" lon="2.37886">
        <ele>298</ele>
        <time>2020-06-07T10:23:25Z</time>
      </trkpt>
      <trkpt lat="43.36324" lon="2.37862">
        <ele>298</ele>
        <time>2020-06-07T10:23:28Z</time>
      </trkpt>
      <trkpt lat="43.36304" lon="2.37729">
        <ele>298</ele>
        <time>2020-06-07T10:23:46Z</time>
      </trkpt>
      <trkpt lat="43.36302" lon="2.37708">
        <ele>298</ele>
        <time>2020-06-07T10:23:49Z</time>
      </trkpt>
      <trkpt lat="43.36307" lon="2.37679">
        <ele>298</ele>
        <time>2020-06-07T10:23:52Z</time>
      </trkpt>
      <trkpt lat="43.36313" lon="2.37663">
        <ele>299</ele>
        <time>2020-06-07T10:23:55Z</time>
      </trkpt>
      <trkpt lat="43.36327" lon="2.37641">
        <ele>300</ele>
        <time>2020-06-07T10:23:59Z</time>
      </trkpt>
      <trkpt lat="43.36345" lon="2.37621">
        <ele>300</ele>
        <time>2020-06-07T10:24:03Z</time>
      </trkpt>
      <trkpt lat="43.36363" lon="2.37609">
        <ele>300</ele>
        <time>2020-06-07T10:24:06Z</time>
      </trkpt>
      <trkpt lat="43.36385" lon="2.37602">
        <ele>299</ele>
        <time>2020-06-07T10:24:10Z</time>
      </trkpt>
      <trkpt lat="43.36402" lon="2.37605">
        <ele>298</ele>
        <time>2020-06-07T10:24:13Z</time>
      </trkpt>
      <trkpt lat="43.36416" lon="2.37615">
        <ele>298</ele>
        <time>2020-06-07T10:24:16Z</time>
      </trkpt>
      <trkpt lat="43.36422" lon="2.37622">
        <ele>299</ele>
        <time>2020-06-07T10:24:17Z</time>
      </trkpt>
      <trkpt lat="43.3643" lon="2.37638">
        <ele>300</ele>
        <time>2020-06-07T10:24:20Z</time>
      </trkpt>
      <trkpt lat="43.3646" lon="2.37722">
        <ele>314</ele>
        <time>2020-06-07T10:24:32Z</time>
      </trkpt>
      <trkpt lat="43.36466" lon="2.37731">
        <ele>315</ele>
        <time>2020-06-07T10:24:34Z</time>
      </trkpt>
      <trkpt lat="43.36472" lon="2.37736">
        <ele>316</ele>
        <time>2020-06-07T10:24:35Z</time>
      </trkpt>
      <trkpt lat="43.36485" lon="2.37739">
        <ele>315</ele>
        <time>2020-06-07T10:24:37Z</time>
      </trkpt>
      <trkpt lat="43.36507" lon="2.37729">
        <ele>312</ele>
        <time>2020-06-07T10:24:41Z</time>
      </trkpt>
      <trkpt lat="43.36538" lon="2.37709">
        <ele>310</ele>
        <time>2020-06-07T10:24:47Z</time>
      </trkpt>
      <trkpt lat="43.36552" lon="2.37698">
        <ele>308</ele>
        <time>2020-06-07T10:24:50Z</time>
      </trkpt>
      <trkpt lat="43.36574" lon="2.37672">
        <ele>302</ele>
        <time>2020-06-07T10:24:56Z</time>
      </trkpt>
      <trkpt lat="43.36616" lon="2.37614">
        <ele>302</ele>
        <time>2020-06-07T10:25:06Z</time>
      </trkpt>
      <trkpt lat="43.36627" lon="2.37601">
        <ele>301</ele>
        <time>2020-06-07T10:25:09Z</time>
      </trkpt>
      <trkpt lat="43.36642" lon="2.37589">
        <ele>300</ele>
        <time>2020-06-07T10:25:12Z</time>
      </trkpt>
      <trkpt lat="43.36649" lon="2.37587">
        <ele>301</ele>
        <time>2020-06-07T10:25:13Z</time>
      </trkpt>
      <trkpt lat="43.36665" lon="2.37589">
        <ele>302</ele>
        <time>2020-06-07T10:25:16Z</time>
      </trkpt>
      <trkpt lat="43.36733" lon="2.37619">
        <ele>308</ele>
        <time>2020-06-07T10:25:29Z</time>
      </trkpt>
      <trkpt lat="43.36739" lon="2.37617">
        <ele>307</ele>
        <time>2020-06-07T10:25:30Z</time>
      </trkpt>
      <trkpt lat="43.36746" lon="2.3761">
        <ele>305</ele>
        <time>2020-06-07T10:25:31Z</time>
      </trkpt>
      <trkpt lat="43.3675" lon="2.376">
        <ele>302</ele>
        <time>2020-06-07T10:25:33Z</time>
      </trkpt>
      <trkpt lat="43.36751" lon="2.37589">
        <ele>299</ele>
        <time>2020-06-07T10:25:34Z</time>
      </trkpt>
      <trkpt lat="43.36749" lon="2.37573">
        <ele>297</ele>
        <time>2020-06-07T10:25:36Z</time>
      </trkpt>
      <trkpt lat="43.36749" lon="2.37545">
        <ele>297</ele>
        <time>2020-06-07T10:25:40Z</time>
      </trkpt>
      <trkpt lat="43.36753" lon="2.37527">
        <ele>299</ele>
        <time>2020-06-07T10:25:42Z</time>
      </trkpt>
      <trkpt lat="43.36763" lon="2.37505">
        <ele>303</ele>
        <time>2020-06-07T10:25:46Z</time>
      </trkpt>
      <trkpt lat="43.36765" lon="2.37491">
        <ele>304</ele>
        <time>2020-06-07T10:25:48Z</time>
      </trkpt>
      <trkpt lat="43.36764" lon="2.37479">
        <ele>305</ele>
        <time>2020-06-07T10:25:49Z</time>
      </trkpt>
      <trkpt lat="43.36757" lon="2.37463">
        <ele>303</ele>
        <time>2020-06-07T10:25:51Z</time>
      </trkpt>
      <trkpt lat="43.36738" lon="2.37436">
        <ele>302</ele>
        <time>2020-06-07T10:25:56Z</time>
      </trkpt>
      <trkpt lat="43.36732" lon="2.3742">
        <ele>303</ele>
        <time>2020-06-07T10:25:59Z</time>
      </trkpt>
      <trkpt lat="43.36728" lon="2.37404">
        <ele>304</ele>
        <time>2020-06-07T10:26:01Z</time>
      </trkpt>
      <trkpt lat="43.3673" lon="2.37387">
        <ele>306</ele>
        <time>2020-06-07T10:26:03Z</time>
      </trkpt>
      <trkpt lat="43.36744" lon="2.37355">
        <ele>309</ele>
        <time>2020-06-07T10:26:08Z</time>
      </trkpt>
      <trkpt lat="43.36748" lon="2.37333">
        <ele>311</ele>
        <time>2020-06-07T10:26:11Z</time>
      </trkpt>
      <trkpt lat="43.36737" lon="2.37099">
        <ele>315</ele>
        <time>2020-06-07T10:26:41Z</time>
      </trkpt>
      <trkpt lat="43.3674" lon="2.37075">
        <ele>315</ele>
        <time>2020-06-07T10:26:44Z</time>
      </trkpt>
      <trkpt lat="43.36751" lon="2.37061">
        <ele>314</ele>
        <time>2020-06-07T10:26:47Z</time>
      </trkpt>
      <trkpt lat="43.36775" lon="2.37037">
        <ele>323</ele>
        <time>2020-06-07T10:26:52Z</time>
      </trkpt>
      <trkpt lat="43.36786" lon="2.37012">
        <ele>325</ele>
        <time>2020-06-07T10:26:56Z</time>
      </trkpt>
      <trkpt lat="43.36794" lon="2.36988">
        <ele>327</ele>
        <time>2020-06-07T10:26:59Z</time>
      </trkpt>
      <trkpt lat="43.36797" lon="2.36966">
        <ele>327</ele>
        <time>2020-06-07T10:27:02Z</time>
      </trkpt>
      <trkpt lat="43.36797" lon="2.36948">
        <ele>326</ele>
        <time>2020-06-07T10:27:05Z</time>
      </trkpt>
      <trkpt lat="43.36781" lon="2.36873">
        <ele>316</ele>
        <time>2020-06-07T10:27:15Z</time>
      </trkpt>
      <trkpt lat="43.36779" lon="2.36852">
        <ele>314</ele>
        <time>2020-06-07T10:27:18Z</time>
      </trkpt>
      <trkpt lat="43.3678" lon="2.3683">
        <ele>314</ele>
        <time>2020-06-07T10:27:20Z</time>
      </trkpt>
      <trkpt lat="43.36784" lon="2.36814">
        <ele>314</ele>
        <time>2020-06-07T10:27:23Z</time>
      </trkpt>
      <trkpt lat="43.36791" lon="2.36807">
        <ele>315</ele>
        <time>2020-06-07T10:27:24Z</time>
      </trkpt>
      <trkpt lat="43.3681" lon="2.36797">
        <ele>318</ele>
        <time>2020-06-07T10:27:28Z</time>
      </trkpt>
      <trkpt lat="43.36831" lon="2.3677">
        <ele>318</ele>
        <time>2020-06-07T10:27:33Z</time>
      </trkpt>
      <trkpt lat="43.36852" lon="2.36733">
        <ele>322</ele>
        <time>2020-06-07T10:27:39Z</time>
      </trkpt>
      <trkpt lat="43.36875" lon="2.3668">
        <ele>323</ele>
        <time>2020-06-07T10:27:47Z</time>
      </trkpt>
      <trkpt lat="43.36933" lon="2.36563">
        <ele>321</ele>
        <time>2020-06-07T10:28:05Z</time>
      </trkpt>
      <trkpt lat="43.36944" lon="2.36553">
        <ele>322</ele>
        <time>2020-06-07T10:28:08Z</time>
      </trkpt>
      <trkpt lat="43.3695" lon="2.36552">
        <ele>322</ele>
        <time>2020-06-07T10:28:09Z</time>
      </trkpt>
      <trkpt lat="43.36958" lon="2.36563">
        <ele>321</ele>
        <time>2020-06-07T10:28:11Z</time>
      </trkpt>
      <trkpt lat="43.36979" lon="2.36584">
        <ele>319</ele>
        <time>2020-06-07T10:28:15Z</time>
      </trkpt>
      <trkpt lat="43.36993" lon="2.36587">
        <ele>320</ele>
        <time>2020-06-07T10:28:18Z</time>
      </trkpt>
      <trkpt lat="43.37008" lon="2.36578">
        <ele>321</ele>
        <time>2020-06-07T10:28:21Z</time>
      </trkpt>
      <trkpt lat="43.37038" lon="2.36551">
        <ele>327</ele>
        <time>2020-06-07T10:28:27Z</time>
      </trkpt>
      <trkpt lat="43.3707" lon="2.36517">
        <ele>328</ele>
        <time>2020-06-07T10:28:34Z</time>
      </trkpt>
      <trkpt lat="43.37095" lon="2.3648">
        <ele>329</ele>
        <time>2020-06-07T10:28:41Z</time>
      </trkpt>
      <trkpt lat="43.3712" lon="2.36437">
        <ele>333</ele>
        <time>2020-06-07T10:28:48Z</time>
      </trkpt>
      <trkpt lat="43.37133" lon="2.36424">
        <ele>336</ele>
        <time>2020-06-07T10:28:51Z</time>
      </trkpt>
      <trkpt lat="43.37139" lon="2.36415">
        <ele>337</ele>
        <time>2020-06-07T10:28:52Z</time>
      </trkpt>
      <trkpt lat="43.3714" lon="2.36404">
        <ele>337</ele>
        <time>2020-06-07T10:28:54Z</time>
      </trkpt>
      <trkpt lat="43.37138" lon="2.36393">
        <ele>336</ele>
        <time>2020-06-07T10:28:55Z</time>
      </trkpt>
      <trkpt lat="43.37128" lon="2.36369">
        <ele>333</ele>
        <time>2020-06-07T10:28:59Z</time>
      </trkpt>
      <trkpt lat="43.3711" lon="2.36342">
        <ele>329</ele>
        <time>2020-06-07T10:29:04Z</time>
      </trkpt>
      <trkpt lat="43.37095" lon="2.36332">
        <ele>324</ele>
        <time>2020-06-07T10:29:07Z</time>
      </trkpt>
      <trkpt lat="43.37079" lon="2.36327">
        <ele>321</ele>
        <time>2020-06-07T10:29:09Z</time>
      </trkpt>
      <trkpt lat="43.37074" lon="2.36322">
        <ele>322</ele>
        <time>2020-06-07T10:29:11Z</time>
      </trkpt>
      <trkpt lat="43.37062" lon="2.36293">
        <ele>323</ele>
        <time>2020-06-07T10:29:15Z</time>
      </trkpt>
      <trkpt lat="43.37055" lon="2.36281">
        <ele>324</ele>
        <time>2020-06-07T10:29:17Z</time>
      </trkpt>
      <trkpt lat="43.37035" lon="2.3626">
        <ele>324</ele>
        <time>2020-06-07T10:29:21Z</time>
      </trkpt>
      <trkpt lat="43.37028" lon="2.36248">
        <ele>324</ele>
        <time>2020-06-07T10:29:23Z</time>
      </trkpt>
      <trkpt lat="43.37028" lon="2.36158">
        <ele>327</ele>
        <time>2020-06-07T10:29:35Z</time>
      </trkpt>
      <trkpt lat="43.37025" lon="2.36118">
        <ele>331</ele>
        <time>2020-06-07T10:29:40Z</time>
      </trkpt>
      <trkpt lat="43.37" lon="2.3599">
        <ele>333</ele>
        <time>2020-06-07T10:29:57Z</time>
      </trkpt>
      <trkpt lat="43.36999" lon="2.35958">
        <ele>334</ele>
        <time>2020-06-07T10:30:01Z</time>
      </trkpt>
      <trkpt lat="43.37002" lon="2.35912">
        <ele>336</ele>
        <time>2020-06-07T10:30:07Z</time>
      </trkpt>
      <trkpt lat="43.37011" lon="2.35866">
        <ele>342</ele>
        <time>2020-06-07T10:30:14Z</time>
      </trkpt>
      <trkpt lat="43.37018" lon="2.3582">
        <ele>344</ele>
        <time>2020-06-07T10:30:20Z</time>
      </trkpt>
      <trkpt lat="43.37024" lon="2.35756">
        <ele>341</ele>
        <time>2020-06-07T10:30:28Z</time>
      </trkpt>
      <trkpt lat="43.37031" lon="2.35726">
        <ele>343</ele>
        <time>2020-06-07T10:30:32Z</time>
      </trkpt>
      <trkpt lat="43.37042" lon="2.35708">
        <ele>344</ele>
        <time>2020-06-07T10:30:35Z</time>
      </trkpt>
      <trkpt lat="43.37052" lon="2.35695">
        <ele>343</ele>
        <time>2020-06-07T10:30:38Z</time>
      </trkpt>
      <trkpt lat="43.37059" lon="2.35687">
        <ele>342</ele>
        <time>2020-06-07T10:30:39Z</time>
      </trkpt>
      <trkpt lat="43.37068" lon="2.35652">
        <ele>342</ele>
        <time>2020-06-07T10:30:44Z</time>
      </trkpt>
      <trkpt lat="43.37074" lon="2.35641">
        <ele>343</ele>
        <time>2020-06-07T10:30:46Z</time>
      </trkpt>
      <trkpt lat="43.37082" lon="2.35633">
        <ele>343</ele>
        <time>2020-06-07T10:30:48Z</time>
      </trkpt>
      <trkpt lat="43.37134" lon="2.35609">
        <ele>344</ele>
        <time>2020-06-07T10:30:57Z</time>
      </trkpt>
      <trkpt lat="43.37193" lon="2.35569">
        <ele>343</ele>
        <time>2020-06-07T10:31:09Z</time>
      </trkpt>
      <trkpt lat="43.37234" lon="2.35524">
        <ele>345</ele>
        <time>2020-06-07T10:31:18Z</time>
      </trkpt>
      <trkpt lat="43.37276" lon="2.35455">
        <ele>351</ele>
        <time>2020-06-07T10:31:30Z</time>
      </trkpt>
      <trkpt lat="43.37299" lon="2.3539">
        <ele>352</ele>
        <time>2020-06-07T10:31:39Z</time>
      </trkpt>
      <trkpt lat="43.37302" lon="2.35354">
        <ele>351</ele>
        <time>2020-06-07T10:31:44Z</time>
      </trkpt>
      <trkpt lat="43.373" lon="2.35333">
        <ele>352</ele>
        <time>2020-06-07T10:31:47Z</time>
      </trkpt>
      <trkpt lat="43.37286" lon="2.35248">
        <ele>346</ele>
        <time>2020-06-07T10:31:58Z</time>
      </trkpt>
      <trkpt lat="43.37282" lon="2.35215">
        <ele>349</ele>
        <time>2020-06-07T10:32:02Z</time>
      </trkpt>
      <trkpt lat="43.37279" lon="2.35206">
        <ele>349</ele>
        <time>2020-06-07T10:32:04Z</time>
      </trkpt>
      <trkpt lat="43.37271" lon="2.352">
        <ele>347</ele>
        <time>2020-06-07T10:32:05Z</time>
      </trkpt>
      <trkpt lat="43.37233" lon="2.35176">
        <ele>346</ele>
        <time>2020-06-07T10:32:13Z</time>
      </trkpt>
      <trkpt lat="43.37227" lon="2.35166">
        <ele>346</ele>
        <time>2020-06-07T10:32:14Z</time>
      </trkpt>
      <trkpt lat="43.37228" lon="2.35153">
        <ele>347</ele>
        <time>2020-06-07T10:32:16Z</time>
      </trkpt>
      <trkpt lat="43.37236" lon="2.35143">
        <ele>347</ele>
        <time>2020-06-07T10:32:18Z</time>
      </trkpt>
      <trkpt lat="43.37284" lon="2.35098">
        <ele>357</ele>
        <time>2020-06-07T10:32:28Z</time>
      </trkpt>
      <trkpt lat="43.37302" lon="2.35067">
        <ele>362</ele>
        <time>2020-06-07T10:32:33Z</time>
      </trkpt>
      <trkpt lat="43.3731" lon="2.35044">
        <ele>361</ele>
        <time>2020-06-07T10:32:37Z</time>
      </trkpt>
      <trkpt lat="43.37317" lon="2.35014">
        <ele>359</ele>
        <time>2020-06-07T10:32:41Z</time>
      </trkpt>
      <trkpt lat="43.37318" lon="2.34991">
        <ele>357</ele>
        <time>2020-06-07T10:32:44Z</time>
      </trkpt>
      <trkpt lat="43.37314" lon="2.34947">
        <ele>355</ele>
        <time>2020-06-07T10:32:50Z</time>
      </trkpt>
      <trkpt lat="43.37308" lon="2.34906">
        <ele>355</ele>
        <time>2020-06-07T10:32:55Z</time>
      </trkpt>
      <trkpt lat="43.37308" lon="2.34883">
        <ele>356</ele>
        <time>2020-06-07T10:32:58Z</time>
      </trkpt>
      <trkpt lat="43.37316" lon="2.34827">
        <ele>356</ele>
        <time>2020-06-07T10:33:05Z</time>
      </trkpt>
      <trkpt lat="43.37333" lon="2.34744">
        <ele>352</ele>
        <time>2020-06-07T10:33:16Z</time>
      </trkpt>
      <trkpt lat="43.37339" lon="2.34667">
        <ele>357</ele>
        <time>2020-06-07T10:33:27Z</time>
      </trkpt>
      <trkpt lat="43.37342" lon="2.34658">
        <ele>358</ele>
        <time>2020-06-07T10:33:28Z</time>
      </trkpt>
      <trkpt lat="43.37348" lon="2.34648">
        <ele>359</ele>
        <time>2020-06-07T10:33:29Z</time>
      </trkpt>
      <trkpt lat="43.37369" lon="2.34625">
        <ele>359</ele>
        <time>2020-06-07T10:33:34Z</time>
      </trkpt>
      <trkpt lat="43.37383" lon="2.34591">
        <ele>357</ele>
        <time>2020-06-07T10:33:39Z</time>
      </trkpt>
      <trkpt lat="43.37391" lon="2.34567">
        <ele>357</ele>
        <time>2020-06-07T10:33:43Z</time>
      </trkpt>
      <trkpt lat="43.37394" lon="2.34563">
        <ele>357</ele>
        <time>2020-06-07T10:33:43Z</time>
      </trkpt>
      <trkpt lat="43.37398" lon="2.34561">
        <ele>357</ele>
        <time>2020-06-07T10:33:44Z</time>
      </trkpt>
      <trkpt lat="43.37412" lon="2.34561">
        <ele>353</ele>
        <time>2020-06-07T10:33:47Z</time>
      </trkpt>
      <trkpt lat="43.37472" lon="2.34563">
        <ele>358</ele>
        <time>2020-06-07T10:33:57Z</time>
      </trkpt>
      <trkpt lat="43.37519" lon="2.3458">
        <ele>360</ele>
        <time>2020-06-07T10:34:06Z</time>
      </trkpt>
      <trkpt lat="43.37578" lon="2.3462">
        <ele>362</ele>
        <time>2020-06-07T10:34:18Z</time>
      </trkpt>
      <trkpt lat="43.37601" lon="2.34626">
        <ele>363</ele>
        <time>2020-06-07T10:34:22Z</time>
      </trkpt>
      <trkpt lat="43.3763" lon="2.34623">
        <ele>364</ele>
        <time>2020-06-07T10:34:27Z</time>
      </trkpt>
      <trkpt lat="43.37639" lon="2.34624">
        <ele>365</ele>
        <time>2020-06-07T10:34:29Z</time>
      </trkpt>
      <trkpt lat="43.37649" lon="2.34622">
        <ele>365</ele>
        <time>2020-06-07T10:34:30Z</time>
      </trkpt>
      <trkpt lat="43.37656" lon="2.3461">
        <ele>366</ele>
        <time>2020-06-07T10:34:32Z</time>
      </trkpt>
      <trkpt lat="43.37666" lon="2.34577">
        <ele>365</ele>
        <time>2020-06-07T10:34:37Z</time>
      </trkpt>
      <trkpt lat="43.37691" lon="2.34514">
        <ele>373</ele>
        <time>2020-06-07T10:34:46Z</time>
      </trkpt>
      <trkpt lat="43.37757" lon="2.34414">
        <ele>377</ele>
        <time>2020-06-07T10:35:04Z</time>
      </trkpt>
      <trkpt lat="43.37776" lon="2.34392">
        <ele>381</ele>
        <time>2020-06-07T10:35:08Z</time>
      </trkpt>
      <trkpt lat="43.37789" lon="2.34381">
        <ele>383</ele>
        <time>2020-06-07T10:35:11Z</time>
      </trkpt>
      <trkpt lat="43.37818" lon="2.34362">
        <ele>385</ele>
        <time>2020-06-07T10:35:17Z</time>
      </trkpt>
      <trkpt lat="43.37826" lon="2.34359">
        <ele>385</ele>
        <time>2020-06-07T10:35:18Z</time>
      </trkpt>
      <trkpt lat="43.37836" lon="2.3436">
        <ele>386</ele>
        <time>2020-06-07T10:35:20Z</time>
      </trkpt>
      <trkpt lat="43.37868" lon="2.34371">
        <ele>391</ele>
        <time>2020-06-07T10:35:26Z</time>
      </trkpt>
      <trkpt lat="43.37886" lon="2.34383">
        <ele>393</ele>
        <time>2020-06-07T10:35:29Z</time>
      </trkpt>
      <trkpt lat="43.37895" lon="2.34385">
        <ele>394</ele>
        <time>2020-06-07T10:35:31Z</time>
      </trkpt>
      <trkpt lat="43.37937" lon="2.34381">
        <ele>397</ele>
        <time>2020-06-07T10:35:38Z</time>
      </trkpt>
      <trkpt lat="43.3795" lon="2.34384">
        <ele>398</ele>
        <time>2020-06-07T10:35:41Z</time>
      </trkpt>
      <trkpt lat="43.37962" lon="2.3439">
        <ele>399</ele>
        <time>2020-06-07T10:35:43Z</time>
      </trkpt>
      <trkpt lat="43.37972" lon="2.34392">
        <ele>399</ele>
        <time>2020-06-07T10:35:45Z</time>
      </trkpt>
      <trkpt lat="43.37992" lon="2.34389">
        <ele>400</ele>
        <time>2020-06-07T10:35:48Z</time>
      </trkpt>
      <trkpt lat="43.38001" lon="2.34383">
        <ele>400</ele>
        <time>2020-06-07T10:35:50Z</time>
      </trkpt>
      <trkpt lat="43.38024" lon="2.34357">
        <ele>399</ele>
        <time>2020-06-07T10:35:56Z</time>
      </trkpt>
      <trkpt lat="43.38035" lon="2.3435">
        <ele>398</ele>
        <time>2020-06-07T10:35:58Z</time>
      </trkpt>
      <trkpt lat="43.38056" lon="2.34343">
        <ele>396</ele>
        <time>2020-06-07T10:36:02Z</time>
      </trkpt>
      <trkpt lat="43.38112" lon="2.34316">
        <ele>403</ele>
        <time>2020-06-07T10:36:12Z</time>
      </trkpt>
      <trkpt lat="43.38127" lon="2.34312">
        <ele>405</ele>
        <time>2020-06-07T10:36:15Z</time>
      </trkpt>
      <trkpt lat="43.38153" lon="2.34311">
        <ele>407</ele>
        <time>2020-06-07T10:36:19Z</time>
      </trkpt>
      <trkpt lat="43.38171" lon="2.34315">
        <ele>408</ele>
        <time>2020-06-07T10:36:23Z</time>
      </trkpt>
      <trkpt lat="43.38179" lon="2.34324">
        <ele>407</ele>
        <time>2020-06-07T10:36:25Z</time>
      </trkpt>
      <trkpt lat="43.38186" lon="2.34339">
        <ele>406</ele>
        <time>2020-06-07T10:36:27Z</time>
      </trkpt>
      <trkpt lat="43.3819" lon="2.34356">
        <ele>407</ele>
        <time>2020-06-07T10:36:29Z</time>
      </trkpt>
      <trkpt lat="43.38192" lon="2.34371">
        <ele>407</ele>
        <time>2020-06-07T10:36:31Z</time>
      </trkpt>
      <trkpt lat="43.38191" lon="2.34441">
        <ele>403</ele>
        <time>2020-06-07T10:36:40Z</time>
      </trkpt>
      <trkpt lat="43.38189" lon="2.34489">
        <ele>402</ele>
        <time>2020-06-07T10:36:46Z</time>
      </trkpt>
      <trkpt lat="43.38193" lon="2.34548">
        <ele>399</ele>
        <time>2020-06-07T10:36:54Z</time>
      </trkpt>
      <trkpt lat="43.38196" lon="2.34558">
        <ele>399</ele>
        <time>2020-06-07T10:36:55Z</time>
      </trkpt>
      <trkpt lat="43.38202" lon="2.34563">
        <ele>399</ele>
        <time>2020-06-07T10:36:57Z</time>
      </trkpt>
      <trkpt lat="43.3821" lon="2.34561">
        <ele>400</ele>
        <time>2020-06-07T10:36:58Z</time>
      </trkpt>
      <trkpt lat="43.3825" lon="2.34499">
        <ele>408</ele>
        <time>2020-06-07T10:37:09Z</time>
      </trkpt>
      <trkpt lat="43.38264" lon="2.34487">
        <ele>415</ele>
        <time>2020-06-07T10:37:12Z</time>
      </trkpt>
      <trkpt lat="43.38274" lon="2.34483">
        <ele>420</ele>
        <time>2020-06-07T10:37:14Z</time>
      </trkpt>
      <trkpt lat="43.38282" lon="2.34485">
        <ele>422</ele>
        <time>2020-06-07T10:37:15Z</time>
      </trkpt>
      <trkpt lat="43.3829" lon="2.34494">
        <ele>424</ele>
        <time>2020-06-07T10:37:17Z</time>
      </trkpt>
      <trkpt lat="43.38302" lon="2.34517">
        <ele>423</ele>
        <time>2020-06-07T10:37:21Z</time>
      </trkpt>
      <trkpt lat="43.38318" lon="2.34578">
        <ele>413</ele>
        <time>2020-06-07T10:37:29Z</time>
      </trkpt>
      <trkpt lat="43.38326" lon="2.34603">
        <ele>414</ele>
        <time>2020-06-07T10:37:33Z</time>
      </trkpt>
      <trkpt lat="43.38334" lon="2.3462">
        <ele>416</ele>
        <time>2020-06-07T10:37:35Z</time>
      </trkpt>
      <trkpt lat="43.3834" lon="2.3463">
        <ele>417</ele>
        <time>2020-06-07T10:37:37Z</time>
      </trkpt>
      <trkpt lat="43.38366" lon="2.3465">
        <ele>420</ele>
        <time>2020-06-07T10:37:42Z</time>
      </trkpt>
      <trkpt lat="43.38379" lon="2.34656">
        <ele>420</ele>
        <time>2020-06-07T10:37:45Z</time>
      </trkpt>
      <trkpt lat="43.38396" lon="2.34657">
        <ele>421</ele>
        <time>2020-06-07T10:37:48Z</time>
      </trkpt>
      <trkpt lat="43.38434" lon="2.34643">
        <ele>424</ele>
        <time>2020-06-07T10:37:55Z</time>
      </trkpt>
      <trkpt lat="43.38471" lon="2.34639">
        <ele>426</ele>
        <time>2020-06-07T10:38:01Z</time>
      </trkpt>
      <trkpt lat="43.38503" lon="2.34629">
        <ele>427</ele>
        <time>2020-06-07T10:38:07Z</time>
      </trkpt>
      <trkpt lat="43.38539" lon="2.34612">
        <ele>431</ele>
        <time>2020-06-07T10:38:14Z</time>
      </trkpt>
      <trkpt lat="43.38549" lon="2.34605">
        <ele>430</ele>
        <time>2020-06-07T10:38:16Z</time>
      </trkpt>
      <trkpt lat="43.38573" lon="2.34581">
        <ele>426</ele>
        <time>2020-06-07T10:38:21Z</time>
      </trkpt>
      <trkpt lat="43.386" lon="2.34569">
        <ele>431</ele>
        <time>2020-06-07T10:38:26Z</time>
      </trkpt>
      <trkpt lat="43.38618" lon="2.34565">
        <ele>433</ele>
        <time>2020-06-07T10:38:29Z</time>
      </trkpt>
      <trkpt lat="43.38647" lon="2.34566">
        <ele>435</ele>
        <time>2020-06-07T10:38:35Z</time>
      </trkpt>
      <trkpt lat="43.38657" lon="2.34563">
        <ele>435</ele>
        <time>2020-06-07T10:38:36Z</time>
      </trkpt>
      <trkpt lat="43.38665" lon="2.34558">
        <ele>435</ele>
        <time>2020-06-07T10:38:38Z</time>
      </trkpt>
      <trkpt lat="43.38673" lon="2.3455">
        <ele>435</ele>
        <time>2020-06-07T10:38:40Z</time>
      </trkpt>
      <trkpt lat="43.38692" lon="2.34525">
        <ele>433</ele>
        <time>2020-06-07T10:38:44Z</time>
      </trkpt>
      <trkpt lat="43.38701" lon="2.34517">
        <ele>433</ele>
        <time>2020-06-07T10:38:46Z</time>
      </trkpt>
      <trkpt lat="43.38709" lon="2.34512">
        <ele>433</ele>
        <time>2020-06-07T10:38:48Z</time>
      </trkpt>
      <trkpt lat="43.38717" lon="2.34511">
        <ele>433</ele>
        <time>2020-06-07T10:38:49Z</time>
      </trkpt>
      <trkpt lat="43.38727" lon="2.34517">
        <ele>435</ele>
        <time>2020-06-07T10:38:51Z</time>
      </trkpt>
      <trkpt lat="43.38735" lon="2.34525">
        <ele>437</ele>
        <time>2020-06-07T10:38:53Z</time>
      </trkpt>
      <trkpt lat="43.38752" lon="2.34547">
        <ele>441</ele>
        <time>2020-06-07T10:38:57Z</time>
      </trkpt>
      <trkpt lat="43.38765" lon="2.34557">
        <ele>443</ele>
        <time>2020-06-07T10:39:00Z</time>
      </trkpt>
      <trkpt lat="43.38811" lon="2.34588">
        <ele>444</ele>
        <time>2020-06-07T10:39:09Z</time>
      </trkpt>
      <trkpt lat="43.38857" lon="2.34623">
        <ele>457</ele>
        <time>2020-06-07T10:39:18Z</time>
      </trkpt>
      <trkpt lat="43.38866" lon="2.34626">
        <ele>458</ele>
        <time>2020-06-07T10:39:20Z</time>
      </trkpt>
      <trkpt lat="43.38877" lon="2.34626">
        <ele>458</ele>
        <time>2020-06-07T10:39:22Z</time>
      </trkpt>
      <trkpt lat="43.38914" lon="2.34613">
        <ele>454</ele>
        <time>2020-06-07T10:39:29Z</time>
      </trkpt>
      <trkpt lat="43.38922" lon="2.34613">
        <ele>455</ele>
        <time>2020-06-07T10:39:30Z</time>
      </trkpt>
      <trkpt lat="43.38944" lon="2.34627">
        <ele>463</ele>
        <time>2020-06-07T10:39:34Z</time>
      </trkpt>
      <trkpt lat="43.3895" lon="2.34627">
        <ele>464</ele>
        <time>2020-06-07T10:39:35Z</time>
      </trkpt>
      <trkpt lat="43.38956" lon="2.34625">
        <ele>465</ele>
        <time>2020-06-07T10:39:37Z</time>
      </trkpt>
      <trkpt lat="43.38977" lon="2.34603">
        <ele>460</ele>
        <time>2020-06-07T10:39:41Z</time>
      </trkpt>
      <trkpt lat="43.39003" lon="2.34581">
        <ele>456</ele>
        <time>2020-06-07T10:39:47Z</time>
      </trkpt>
      <trkpt lat="43.39022" lon="2.34558">
        <ele>463</ele>
        <time>2020-06-07T10:39:51Z</time>
      </trkpt>
      <trkpt lat="43.39043" lon="2.34537">
        <ele>465</ele>
        <time>2020-06-07T10:39:56Z</time>
      </trkpt>
      <trkpt lat="43.39057" lon="2.34529">
        <ele>465</ele>
        <time>2020-06-07T10:39:58Z</time>
      </trkpt>
      <trkpt lat="43.391" lon="2.34509">
        <ele>465</ele>
        <time>2020-06-07T10:40:07Z</time>
      </trkpt>
      <trkpt lat="43.39112" lon="2.34497">
        <ele>464</ele>
        <time>2020-06-07T10:40:09Z</time>
      </trkpt>
      <trkpt lat="43.3916" lon="2.34439">
        <ele>464</ele>
        <time>2020-06-07T10:40:21Z</time>
      </trkpt>
      <trkpt lat="43.39225" lon="2.34378">
        <ele>476</ele>
        <time>2020-06-07T10:40:35Z</time>
      </trkpt>
      <trkpt lat="43.39249" lon="2.34363">
        <ele>477</ele>
        <time>2020-06-07T10:40:39Z</time>
      </trkpt>
      <trkpt lat="43.39317" lon="2.34332">
        <ele>484</ele>
        <time>2020-06-07T10:40:52Z</time>
      </trkpt>
      <trkpt lat="43.39327" lon="2.34323">
        <ele>485</ele>
        <time>2020-06-07T10:40:54Z</time>
      </trkpt>
      <trkpt lat="43.39335" lon="2.34311">
        <ele>485</ele>
        <time>2020-06-07T10:40:56Z</time>
      </trkpt>
      <trkpt lat="43.39341" lon="2.34293">
        <ele>486</ele>
        <time>2020-06-07T10:40:59Z</time>
      </trkpt>
      <trkpt lat="43.39344" lon="2.34276">
        <ele>484</ele>
        <time>2020-06-07T10:41:01Z</time>
      </trkpt>
      <trkpt lat="43.39344" lon="2.3426">
        <ele>481</ele>
        <time>2020-06-07T10:41:03Z</time>
      </trkpt>
      <trkpt lat="43.39341" lon="2.34246">
        <ele>478</ele>
        <time>2020-06-07T10:41:05Z</time>
      </trkpt>
      <trkpt lat="43.39319" lon="2.3419">
        <ele>477</ele>
        <time>2020-06-07T10:41:13Z</time>
      </trkpt>
      <trkpt lat="43.39313" lon="2.34154">
        <ele>478</ele>
        <time>2020-06-07T10:41:18Z</time>
      </trkpt>
      <trkpt lat="43.39313" lon="2.34134">
        <ele>478</ele>
        <time>2020-06-07T10:41:21Z</time>
      </trkpt>
      <trkpt lat="43.39318" lon="2.34115">
        <ele>476</ele>
        <time>2020-06-07T10:41:23Z</time>
      </trkpt>
      <trkpt lat="43.39323" lon="2.34108">
        <ele>475</ele>
        <time>2020-06-07T10:41:24Z</time>
      </trkpt>
      <trkpt lat="43.39328" lon="2.34106">
        <ele>474</ele>
        <time>2020-06-07T10:41:25Z</time>
      </trkpt>
      <trkpt lat="43.39334" lon="2.34108">
        <ele>473</ele>
        <time>2020-06-07T10:41:27Z</time>
      </trkpt>
      <trkpt lat="43.3934" lon="2.34119">
        <ele>475</ele>
        <time>2020-06-07T10:41:28Z</time>
      </trkpt>
      <trkpt lat="43.39355" lon="2.34159">
        <ele>481</ele>
        <time>2020-06-07T10:41:34Z</time>
      </trkpt>
      <trkpt lat="43.39363" lon="2.34174">
        <ele>484</ele>
        <time>2020-06-07T10:41:37Z</time>
      </trkpt>
      <trkpt lat="43.39371" lon="2.34181">
        <ele>487</ele>
        <time>2020-06-07T10:41:38Z</time>
      </trkpt>
      <trkpt lat="43.3938" lon="2.34184">
        <ele>490</ele>
        <time>2020-06-07T10:41:40Z</time>
      </trkpt>
      <trkpt lat="43.3939" lon="2.34183">
        <ele>493</ele>
        <time>2020-06-07T10:41:42Z</time>
      </trkpt>
      <trkpt lat="43.39401" lon="2.34179">
        <ele>496</ele>
        <time>2020-06-07T10:41:44Z</time>
      </trkpt>
      <trkpt lat="43.39409" lon="2.34171">
        <ele>497</ele>
        <time>2020-06-07T10:41:45Z</time>
      </trkpt>
      <trkpt lat="43.39434" lon="2.34101">
        <ele>490</ele>
        <time>2020-06-07T10:41:56Z</time>
      </trkpt>
      <trkpt lat="43.39439" lon="2.34092">
        <ele>489</ele>
        <time>2020-06-07T10:41:57Z</time>
      </trkpt>
      <trkpt lat="43.39452" lon="2.34077">
        <ele>491</ele>
        <time>2020-06-07T10:42:00Z</time>
      </trkpt>
      <trkpt lat="43.39479" lon="2.34067">
        <ele>497</ele>
        <time>2020-06-07T10:42:05Z</time>
      </trkpt>
      <trkpt lat="43.39492" lon="2.34066">
        <ele>500</ele>
        <time>2020-06-07T10:42:07Z</time>
      </trkpt>
      <trkpt lat="43.39516" lon="2.3407">
        <ele>506</ele>
        <time>2020-06-07T10:42:12Z</time>
      </trkpt>
      <trkpt lat="43.39531" lon="2.34068">
        <ele>509</ele>
        <time>2020-06-07T10:42:14Z</time>
      </trkpt>
      <trkpt lat="43.39545" lon="2.34061">
        <ele>512</ele>
        <time>2020-06-07T10:42:17Z</time>
      </trkpt>
      <trkpt lat="43.39555" lon="2.34052">
        <ele>512</ele>
        <time>2020-06-07T10:42:19Z</time>
      </trkpt>
      <trkpt lat="43.39562" lon="2.34042">
        <ele>511</ele>
        <time>2020-06-07T10:42:21Z</time>
      </trkpt>
      <trkpt lat="43.39585" lon="2.34002">
        <ele>503</ele>
        <time>2020-06-07T10:42:27Z</time>
      </trkpt>
      <trkpt lat="43.39597" lon="2.33991">
        <ele>507</ele>
        <time>2020-06-07T10:42:30Z</time>
      </trkpt>
      <trkpt lat="43.39607" lon="2.33989">
        <ele>509</ele>
        <time>2020-06-07T10:42:32Z</time>
      </trkpt>
      <trkpt lat="43.39616" lon="2.33994">
        <ele>509</ele>
        <time>2020-06-07T10:42:34Z</time>
      </trkpt>
      <trkpt lat="43.39641" lon="2.34013">
        <ele>516</ele>
        <time>2020-06-07T10:42:39Z</time>
      </trkpt>
      <trkpt lat="43.39661" lon="2.34017">
        <ele>522</ele>
        <time>2020-06-07T10:42:42Z</time>
      </trkpt>
      <trkpt lat="43.3967" lon="2.34016">
        <ele>523</ele>
        <time>2020-06-07T10:42:44Z</time>
      </trkpt>
      <trkpt lat="43.39682" lon="2.34011">
        <ele>525</ele>
        <time>2020-06-07T10:42:46Z</time>
      </trkpt>
      <trkpt lat="43.39702" lon="2.33994">
        <ele>528</ele>
        <time>2020-06-07T10:42:50Z</time>
      </trkpt>
      <trkpt lat="43.39724" lon="2.33968">
        <ele>531</ele>
        <time>2020-06-07T10:42:55Z</time>
      </trkpt>
      <trkpt lat="43.39739" lon="2.33943">
        <ele>528</ele>
        <time>2020-06-07T10:43:00Z</time>
      </trkpt>
      <trkpt lat="43.39757" lon="2.33903">
        <ele>525</ele>
        <time>2020-06-07T10:43:06Z</time>
      </trkpt>
      <trkpt lat="43.39771" lon="2.33877">
        <ele>528</ele>
        <time>2020-06-07T10:43:10Z</time>
      </trkpt>
      <trkpt lat="43.39783" lon="2.33858">
        <ele>528</ele>
        <time>2020-06-07T10:43:13Z</time>
      </trkpt>
      <trkpt lat="43.39799" lon="2.33839">
        <ele>527</ele>
        <time>2020-06-07T10:43:17Z</time>
      </trkpt>
      <trkpt lat="43.39812" lon="2.33827">
        <ele>529</ele>
        <time>2020-06-07T10:43:20Z</time>
      </trkpt>
      <trkpt lat="43.39822" lon="2.33822">
        <ele>531</ele>
        <time>2020-06-07T10:43:22Z</time>
      </trkpt>
      <trkpt lat="43.39832" lon="2.33819">
        <ele>532</ele>
        <time>2020-06-07T10:43:23Z</time>
      </trkpt>
      <trkpt lat="43.39845" lon="2.3382">
        <ele>534</ele>
        <time>2020-06-07T10:43:26Z</time>
      </trkpt>
      <trkpt lat="43.39857" lon="2.33824">
        <ele>535</ele>
        <time>2020-06-07T10:43:28Z</time>
      </trkpt>
      <trkpt lat="43.39891" lon="2.33842">
        <ele>542</ele>
        <time>2020-06-07T10:43:34Z</time>
      </trkpt>
      <trkpt lat="43.399" lon="2.33845">
        <ele>546</ele>
        <time>2020-06-07T10:43:36Z</time>
      </trkpt>
      <trkpt lat="43.39913" lon="2.33844">
        <ele>548</ele>
        <time>2020-06-07T10:43:38Z</time>
      </trkpt>
      <trkpt lat="43.39937" lon="2.33831">
        <ele>546</ele>
        <time>2020-06-07T10:43:43Z</time>
      </trkpt>
      <trkpt lat="43.39949" lon="2.33827">
        <ele>547</ele>
        <time>2020-06-07T10:43:45Z</time>
      </trkpt>
      <trkpt lat="43.39969" lon="2.33827">
        <ele>549</ele>
        <time>2020-06-07T10:43:49Z</time>
      </trkpt>
      <trkpt lat="43.39979" lon="2.33824">
        <ele>550</ele>
        <time>2020-06-07T10:43:50Z</time>
      </trkpt>
      <trkpt lat="43.39985" lon="2.3382">
        <ele>551</ele>
        <time>2020-06-07T10:43:52Z</time>
      </trkpt>
      <trkpt lat="43.39991" lon="2.33809">
        <ele>553</ele>
        <time>2020-06-07T10:43:53Z</time>
      </trkpt>
      <trkpt lat="43.39993" lon="2.33796">
        <ele>556</ele>
        <time>2020-06-07T10:43:55Z</time>
      </trkpt>
      <trkpt lat="43.39996" lon="2.33786">
        <ele>558</ele>
        <time>2020-06-07T10:43:57Z</time>
      </trkpt>
      <trkpt lat="43.40002" lon="2.33779">
        <ele>559</ele>
        <time>2020-06-07T10:43:58Z</time>
      </trkpt>
      <trkpt lat="43.40012" lon="2.33776">
        <ele>560</ele>
        <time>2020-06-07T10:44:00Z</time>
      </trkpt>
      <trkpt lat="43.40032" lon="2.33777">
        <ele>560</ele>
        <time>2020-06-07T10:44:03Z</time>
      </trkpt>
      <trkpt lat="43.40044" lon="2.33786">
        <ele>561</ele>
        <time>2020-06-07T10:44:06Z</time>
      </trkpt>
      <trkpt lat="43.40051" lon="2.33801">
        <ele>562</ele>
        <time>2020-06-07T10:44:08Z</time>
      </trkpt>
      <trkpt lat="43.40049" lon="2.33817">
        <ele>563</ele>
        <time>2020-06-07T10:44:10Z</time>
      </trkpt>
      <trkpt lat="43.40045" lon="2.33822">
        <ele>563</ele>
        <time>2020-06-07T10:44:11Z</time>
      </trkpt>
      <trkpt lat="43.40033" lon="2.33823">
        <ele>559</ele>
        <time>2020-06-07T10:44:13Z</time>
      </trkpt>
      <trkpt lat="43.40015" lon="2.3382">
        <ele>555</ele>
        <time>2020-06-07T10:44:16Z</time>
      </trkpt>
      <trkpt lat="43.40002" lon="2.33822">
        <ele>552</ele>
        <time>2020-06-07T10:44:19Z</time>
      </trkpt>
      <trkpt lat="43.39921" lon="2.33871">
        <ele>563</ele>
        <time>2020-06-07T10:44:35Z</time>
      </trkpt>
      <trkpt lat="43.39914" lon="2.33873">
        <ele>563</ele>
        <time>2020-06-07T10:44:36Z</time>
      </trkpt>
      <trkpt lat="43.39889" lon="2.33873">
        <ele>555</ele>
        <time>2020-06-07T10:44:40Z</time>
      </trkpt>
      <trkpt lat="43.39853" lon="2.33865">
        <ele>541</ele>
        <time>2020-06-07T10:44:47Z</time>
      </trkpt>
      <trkpt lat="43.39842" lon="2.33866">
        <ele>539</ele>
        <time>2020-06-07T10:44:49Z</time>
      </trkpt>
      <trkpt lat="43.39828" lon="2.33873">
        <ele>537</ele>
        <time>2020-06-07T10:44:51Z</time>
      </trkpt>
      <trkpt lat="43.39822" lon="2.3388">
        <ele>538</ele>
        <time>2020-06-07T10:44:53Z</time>
      </trkpt>
      <trkpt lat="43.39817" lon="2.33893">
        <ele>540</ele>
        <time>2020-06-07T10:44:55Z</time>
      </trkpt>
      <trkpt lat="43.39777" lon="2.34039">
        <ele>569</ele>
        <time>2020-06-07T10:45:15Z</time>
      </trkpt>
      <trkpt lat="43.3977" lon="2.34052">
        <ele>570</ele>
        <time>2020-06-07T10:45:17Z</time>
      </trkpt>
      <trkpt lat="43.39762" lon="2.34061">
        <ele>569</ele>
        <time>2020-06-07T10:45:19Z</time>
      </trkpt>
      <trkpt lat="43.39739" lon="2.34078">
        <ele>566</ele>
        <time>2020-06-07T10:45:23Z</time>
      </trkpt>
      <trkpt lat="43.39728" lon="2.34082">
        <ele>564</ele>
        <time>2020-06-07T10:45:25Z</time>
      </trkpt>
      <trkpt lat="43.39707" lon="2.34075">
        <ele>556</ele>
        <time>2020-06-07T10:45:29Z</time>
      </trkpt>
      <trkpt lat="43.39695" lon="2.34078">
        <ele>554</ele>
        <time>2020-06-07T10:45:31Z</time>
      </trkpt>
      <trkpt lat="43.39688" lon="2.34084">
        <ele>555</ele>
        <time>2020-06-07T10:45:33Z</time>
      </trkpt>
      <trkpt lat="43.39684" lon="2.34092">
        <ele>557</ele>
        <time>2020-06-07T10:45:34Z</time>
      </trkpt>
      <trkpt lat="43.39682" lon="2.34104">
        <ele>561</ele>
        <time>2020-06-07T10:45:36Z</time>
      </trkpt>
      <trkpt lat="43.39686" lon="2.34114">
        <ele>566</ele>
        <time>2020-06-07T10:45:37Z</time>
      </trkpt>
      <trkpt lat="43.39693" lon="2.34117">
        <ele>569</ele>
        <time>2020-06-07T10:45:39Z</time>
      </trkpt>
      <trkpt lat="43.39703" lon="2.34117">
        <ele>572</ele>
        <time>2020-06-07T10:45:40Z</time>
      </trkpt>
      <trkpt lat="43.39716" lon="2.34113">
        <ele>574</ele>
        <time>2020-06-07T10:45:43Z</time>
      </trkpt>
      <trkpt lat="43.39757" lon="2.3409">
        <ele>576</ele>
        <time>2020-06-07T10:45:51Z</time>
      </trkpt>
      <trkpt lat="43.39778" lon="2.34071">
        <ele>579</ele>
        <time>2020-06-07T10:45:55Z</time>
      </trkpt>
      <trkpt lat="43.39789" lon="2.34056">
        <ele>580</ele>
        <time>2020-06-07T10:45:58Z</time>
      </trkpt>
      <trkpt lat="43.39838" lon="2.33935">
        <ele>561</ele>
        <time>2020-06-07T10:46:16Z</time>
      </trkpt>
      <trkpt lat="43.39845" lon="2.33924">
        <ele>560</ele>
        <time>2020-06-07T10:46:18Z</time>
      </trkpt>
      <trkpt lat="43.39855" lon="2.33919">
        <ele>562</ele>
        <time>2020-06-07T10:46:20Z</time>
      </trkpt>
      <trkpt lat="43.39945" lon="2.33914">
        <ele>586</ele>
        <time>2020-06-07T10:46:36Z</time>
      </trkpt>
      <trkpt lat="43.40005" lon="2.33906">
        <ele>588</ele>
        <time>2020-06-07T10:46:46Z</time>
      </trkpt>
      <trkpt lat="43.40081" lon="2.33892">
        <ele>600</ele>
        <time>2020-06-07T10:47:00Z</time>
      </trkpt>
      <trkpt lat="43.40088" lon="2.33889">
        <ele>601</ele>
        <time>2020-06-07T10:47:01Z</time>
      </trkpt>
      <trkpt lat="43.40095" lon="2.33884">
        <ele>603</ele>
        <time>2020-06-07T10:47:03Z</time>
      </trkpt>
      <trkpt lat="43.40105" lon="2.33871">
        <ele>603</ele>
        <time>2020-06-07T10:47:05Z</time>
      </trkpt>
      <trkpt lat="43.40141" lon="2.33799">
        <ele>594</ele>
        <time>2020-06-07T10:47:16Z</time>
      </trkpt>
      <trkpt lat="43.40164" lon="2.33766">
        <ele>588</ele>
        <time>2020-06-07T10:47:22Z</time>
      </trkpt>
      <trkpt lat="43.40181" lon="2.33752">
        <ele>590</ele>
        <time>2020-06-07T10:47:26Z</time>
      </trkpt>
      <trkpt lat="43.40247" lon="2.33714">
        <ele>624</ele>
        <time>2020-06-07T10:47:39Z</time>
      </trkpt>
      <trkpt lat="43.40253" lon="2.33702">
        <ele>626</ele>
        <time>2020-06-07T10:47:40Z</time>
      </trkpt>
      <trkpt lat="43.40258" lon="2.33686">
        <ele>627</ele>
        <time>2020-06-07T10:47:43Z</time>
      </trkpt>
      <trkpt lat="43.40259" lon="2.33667">
        <ele>625</ele>
        <time>2020-06-07T10:47:45Z</time>
      </trkpt>
      <trkpt lat="43.40257" lon="2.33648">
        <ele>621</ele>
        <time>2020-06-07T10:47:48Z</time>
      </trkpt>
      <trkpt lat="43.40251" lon="2.3363">
        <ele>614</ele>
        <time>2020-06-07T10:47:50Z</time>
      </trkpt>
      <trkpt lat="43.40228" lon="2.3359">
        <ele>604</ele>
        <time>2020-06-07T10:47:57Z</time>
      </trkpt>
      <trkpt lat="43.40225" lon="2.33576">
        <ele>605</ele>
        <time>2020-06-07T10:47:59Z</time>
      </trkpt>
      <trkpt lat="43.40227" lon="2.33557">
        <ele>609</ele>
        <time>2020-06-07T10:48:01Z</time>
      </trkpt>
      <trkpt lat="43.40237" lon="2.33544">
        <ele>611</ele>
        <time>2020-06-07T10:48:04Z</time>
      </trkpt>
      <trkpt lat="43.40284" lon="2.33519">
        <ele>625</ele>
        <time>2020-06-07T10:48:13Z</time>
      </trkpt>
      <trkpt lat="43.40347" lon="2.33452">
        <ele>645</ele>
        <time>2020-06-07T10:48:27Z</time>
      </trkpt>
      <trkpt lat="43.40352" lon="2.33436">
        <ele>648</ele>
        <time>2020-06-07T10:48:29Z</time>
      </trkpt>
      <trkpt lat="43.40341" lon="2.33275">
        <ele>653</ele>
        <time>2020-06-07T10:48:50Z</time>
      </trkpt>
      <trkpt lat="43.40343" lon="2.33243">
        <ele>657</ele>
        <time>2020-06-07T10:48:54Z</time>
      </trkpt>
      <trkpt lat="43.40355" lon="2.33222">
        <ele>664</ele>
        <time>2020-06-07T10:48:57Z</time>
      </trkpt>
      <trkpt lat="43.40379" lon="2.33201">
        <ele>666</ele>
        <time>2020-06-07T10:49:03Z</time>
      </trkpt>
      <trkpt lat="43.40423" lon="2.3318">
        <ele>660</ele>
        <time>2020-06-07T10:49:11Z</time>
      </trkpt>
      <trkpt lat="43.40478" lon="2.33144">
        <ele>666</ele>
        <time>2020-06-07T10:49:22Z</time>
      </trkpt>
      <trkpt lat="43.40543" lon="2.33117">
        <ele>674</ele>
        <time>2020-06-07T10:49:34Z</time>
      </trkpt>
      <trkpt lat="43.40563" lon="2.33106">
        <ele>675</ele>
        <time>2020-06-07T10:49:38Z</time>
      </trkpt>
      <trkpt lat="43.40575" lon="2.33093">
        <ele>673</ele>
        <time>2020-06-07T10:49:40Z</time>
      </trkpt>
      <trkpt lat="43.40578" lon="2.33078">
        <ele>669</ele>
        <time>2020-06-07T10:49:42Z</time>
      </trkpt>
      <trkpt lat="43.40578" lon="2.33042">
        <ele>669</ele>
        <time>2020-06-07T10:49:47Z</time>
      </trkpt>
      <trkpt lat="43.40583" lon="2.33024">
        <ele>669</ele>
        <time>2020-06-07T10:49:49Z</time>
      </trkpt>
      <trkpt lat="43.40598" lon="2.33008">
        <ele>672</ele>
        <time>2020-06-07T10:49:53Z</time>
      </trkpt>
      <trkpt lat="43.40624" lon="2.32989">
        <ele>680</ele>
        <time>2020-06-07T10:49:58Z</time>
      </trkpt>
      <trkpt lat="43.40664" lon="2.32965">
        <ele>688</ele>
        <time>2020-06-07T10:50:06Z</time>
      </trkpt>
      <trkpt lat="43.40713" lon="2.32925">
        <ele>691</ele>
        <time>2020-06-07T10:50:16Z</time>
      </trkpt>
      <trkpt lat="43.40765" lon="2.3286">
        <ele>693</ele>
        <time>2020-06-07T10:50:28Z</time>
      </trkpt>
      <trkpt lat="43.40864" lon="2.32777">
        <ele>698</ele>
        <time>2020-06-07T10:50:49Z</time>
      </trkpt>
      <trkpt lat="43.40882" lon="2.32749">
        <ele>697</ele>
        <time>2020-06-07T10:50:54Z</time>
      </trkpt>
      <trkpt lat="43.40891" lon="2.32719">
        <ele>698</ele>
        <time>2020-06-07T10:50:58Z</time>
      </trkpt>
      <trkpt lat="43.40894" lon="2.32681">
        <ele>698</ele>
        <time>2020-06-07T10:51:03Z</time>
      </trkpt>
      <trkpt lat="43.40902" lon="2.32636">
        <ele>698</ele>
        <time>2020-06-07T10:51:09Z</time>
      </trkpt>
      <trkpt lat="43.40917" lon="2.32585">
        <ele>695</ele>
        <time>2020-06-07T10:51:16Z</time>
      </trkpt>
      <trkpt lat="43.40984" lon="2.32503">
        <ele>693</ele>
        <time>2020-06-07T10:51:32Z</time>
      </trkpt>
      <trkpt lat="43.41004" lon="2.32467">
        <ele>693</ele>
        <time>2020-06-07T10:51:38Z</time>
      </trkpt>
      <trkpt lat="43.41019" lon="2.32408">
        <ele>699</ele>
        <time>2020-06-07T10:51:46Z</time>
      </trkpt>
      <trkpt lat="43.41029" lon="2.32329">
        <ele>705</ele>
        <time>2020-06-07T10:51:56Z</time>
      </trkpt>
      <trkpt lat="43.41041" lon="2.32299">
        <ele>707</ele>
        <time>2020-06-07T10:52:01Z</time>
      </trkpt>
      <trkpt lat="43.41059" lon="2.32273">
        <ele>707</ele>
        <time>2020-06-07T10:52:05Z</time>
      </trkpt>
      <trkpt lat="43.41099" lon="2.32238">
        <ele>706</ele>
        <time>2020-06-07T10:52:14Z</time>
      </trkpt>
      <trkpt lat="43.41123" lon="2.32211">
        <ele>708</ele>
        <time>2020-06-07T10:52:19Z</time>
      </trkpt>
      <trkpt lat="43.41164" lon="2.3215">
        <ele>703</ele>
        <time>2020-06-07T10:52:30Z</time>
      </trkpt>
      <trkpt lat="43.41225" lon="2.3208">
        <ele>709</ele>
        <time>2020-06-07T10:52:44Z</time>
      </trkpt>
      <trkpt lat="43.41266" lon="2.32017">
        <ele>710</ele>
        <time>2020-06-07T10:52:55Z</time>
      </trkpt>
      <trkpt lat="43.41281" lon="2.31979">
        <ele>714</ele>
        <time>2020-06-07T10:53:01Z</time>
      </trkpt>
      <trkpt lat="43.41294" lon="2.31921">
        <ele>717</ele>
        <time>2020-06-07T10:53:09Z</time>
      </trkpt>
      <trkpt lat="43.41309" lon="2.31765">
        <ele>713</ele>
        <time>2020-06-07T10:53:29Z</time>
      </trkpt>
      <trkpt lat="43.41307" lon="2.31738">
        <ele>713</ele>
        <time>2020-06-07T10:53:33Z</time>
      </trkpt>
      <trkpt lat="43.413" lon="2.31707">
        <ele>716</ele>
        <time>2020-06-07T10:53:37Z</time>
      </trkpt>
      <trkpt lat="43.41299" lon="2.31697">
        <ele>717</ele>
        <time>2020-06-07T10:53:38Z</time>
      </trkpt>
      <trkpt lat="43.413" lon="2.3169">
        <ele>718</ele>
        <time>2020-06-07T10:53:39Z</time>
      </trkpt>
      <trkpt lat="43.41304" lon="2.31682">
        <ele>717</ele>
        <time>2020-06-07T10:53:40Z</time>
      </trkpt>
      <trkpt lat="43.41306" lon="2.31676">
        <ele>717</ele>
        <time>2020-06-07T10:53:41Z</time>
      </trkpt>
      <trkpt lat="43.41331" lon="2.31648">
        <ele>712</ele>
        <time>2020-06-07T10:53:47Z</time>
      </trkpt>
      <trkpt lat="43.41344" lon="2.31625">
        <ele>715</ele>
        <time>2020-06-07T10:53:51Z</time>
      </trkpt>
      <trkpt lat="43.41358" lon="2.3159">
        <ele>718</ele>
        <time>2020-06-07T10:53:56Z</time>
      </trkpt>
      <trkpt lat="43.4137" lon="2.3155">
        <ele>720</ele>
        <time>2020-06-07T10:54:01Z</time>
      </trkpt>
      <trkpt lat="43.41378" lon="2.31507">
        <ele>721</ele>
        <time>2020-06-07T10:54:07Z</time>
      </trkpt>
      <trkpt lat="43.41381" lon="2.31481">
        <ele>721</ele>
        <time>2020-06-07T10:54:10Z</time>
      </trkpt>
      <trkpt lat="43.41384" lon="2.31415">
        <ele>721</ele>
        <time>2020-06-07T10:54:19Z</time>
      </trkpt>
      <trkpt lat="43.41384" lon="2.31358">
        <ele>723</ele>
        <time>2020-06-07T10:54:26Z</time>
      </trkpt>
      <trkpt lat="43.41389" lon="2.31308">
        <ele>723</ele>
        <time>2020-06-07T10:54:33Z</time>
      </trkpt>
      <trkpt lat="43.41397" lon="2.31264">
        <ele>722</ele>
        <time>2020-06-07T10:54:39Z</time>
      </trkpt>
      <trkpt lat="43.41426" lon="2.31204">
        <ele>723</ele>
        <time>2020-06-07T10:54:48Z</time>
      </trkpt>
      <trkpt lat="43.41449" lon="2.3117">
        <ele>724</ele>
        <time>2020-06-07T10:54:54Z</time>
      </trkpt>
      <trkpt lat="43.41467" lon="2.31156">
        <ele>724</ele>
        <time>2020-06-07T10:54:58Z</time>
      </trkpt>
      <trkpt lat="43.41528" lon="2.31136">
        <ele>724</ele>
        <time>2020-06-07T10:55:09Z</time>
      </trkpt>
      <trkpt lat="43.41556" lon="2.31136">
        <ele>725</ele>
        <time>2020-06-07T10:55:14Z</time>
      </trkpt>
      <trkpt lat="43.4157" lon="2.31136">
        <ele>725</ele>
        <time>2020-06-07T10:55:16Z</time>
      </trkpt>
      <trkpt lat="43.41605" lon="2.3115">
        <ele>723</ele>
        <time>2020-06-07T10:55:23Z</time>
      </trkpt>
      <trkpt lat="43.41619" lon="2.31151">
        <ele>723</ele>
        <time>2020-06-07T10:55:25Z</time>
      </trkpt>
      <trkpt lat="43.41631" lon="2.31146">
        <ele>724</ele>
        <time>2020-06-07T10:55:28Z</time>
      </trkpt>
      <trkpt lat="43.41637" lon="2.31137">
        <ele>724</ele>
        <time>2020-06-07T10:55:29Z</time>
      </trkpt>
      <trkpt lat="43.41639" lon="2.3112">
        <ele>726</ele>
        <time>2020-06-07T10:55:31Z</time>
      </trkpt>
      <trkpt lat="43.41642" lon="2.31087">
        <ele>729</ele>
        <time>2020-06-07T10:55:36Z</time>
      </trkpt>
      <trkpt lat="43.41652" lon="2.31061">
        <ele>733</ele>
        <time>2020-06-07T10:55:39Z</time>
      </trkpt>
      <trkpt lat="43.41664" lon="2.31045">
        <ele>735</ele>
        <time>2020-06-07T10:55:42Z</time>
      </trkpt>
      <trkpt lat="43.41674" lon="2.31034">
        <ele>737</ele>
        <time>2020-06-07T10:55:45Z</time>
      </trkpt>
      <trkpt lat="43.41693" lon="2.31021">
        <ele>739</ele>
        <time>2020-06-07T10:55:49Z</time>
      </trkpt>
      <trkpt lat="43.41702" lon="2.31018">
        <ele>739</ele>
        <time>2020-06-07T10:55:50Z</time>
      </trkpt>
      <trkpt lat="43.41744" lon="2.31016">
        <ele>738</ele>
        <time>2020-06-07T10:55:58Z</time>
      </trkpt>
      <trkpt lat="43.41769" lon="2.31011">
        <ele>738</ele>
        <time>2020-06-07T10:56:02Z</time>
      </trkpt>
      <trkpt lat="43.41853" lon="2.30978">
        <ele>741</ele>
        <time>2020-06-07T10:56:18Z</time>
      </trkpt>
      <trkpt lat="43.41866" lon="2.3098">
        <ele>740</ele>
        <time>2020-06-07T10:56:20Z</time>
      </trkpt>
      <trkpt lat="43.41888" lon="2.30995">
        <ele>738</ele>
        <time>2020-06-07T10:56:24Z</time>
      </trkpt>
      <trkpt lat="43.41901" lon="2.31">
        <ele>737</ele>
        <time>2020-06-07T10:56:27Z</time>
      </trkpt>
      <trkpt lat="43.41906" lon="2.30999">
        <ele>737</ele>
        <time>2020-06-07T10:56:28Z</time>
      </trkpt>
      <trkpt lat="43.41913" lon="2.30996">
        <ele>737</ele>
        <time>2020-06-07T10:56:29Z</time>
      </trkpt>
      <trkpt lat="43.41928" lon="2.30984">
        <ele>739</ele>
        <time>2020-06-07T10:56:32Z</time>
      </trkpt>
      <trkpt lat="43.41936" lon="2.30973">
        <ele>741</ele>
        <time>2020-06-07T10:56:34Z</time>
      </trkpt>
      <trkpt lat="43.41939" lon="2.30966">
        <ele>741</ele>
        <time>2020-06-07T10:56:35Z</time>
      </trkpt>
      <trkpt lat="43.41939" lon="2.30958">
        <ele>742</ele>
        <time>2020-06-07T10:56:36Z</time>
      </trkpt>
      <trkpt lat="43.41929" lon="2.3089">
        <ele>745</ele>
        <time>2020-06-07T10:56:45Z</time>
      </trkpt>
      <trkpt lat="43.41931" lon="2.30793">
        <ele>747</ele>
        <time>2020-06-07T10:56:58Z</time>
      </trkpt>
      <trkpt lat="43.41932" lon="2.30768">
        <ele>747</ele>
        <time>2020-06-07T10:57:01Z</time>
      </trkpt>
      <trkpt lat="43.41913" lon="2.30751">
        <ele>748</ele>
        <time>2020-06-07T10:57:05Z</time>
      </trkpt>
      <trkpt lat="43.419" lon="2.30733">
        <ele>750</ele>
        <time>2020-06-07T10:57:08Z</time>
      </trkpt>
      <trkpt lat="43.41885" lon="2.30704">
        <ele>752</ele>
        <time>2020-06-07T10:57:13Z</time>
      </trkpt>
      <trkpt lat="43.41847" lon="2.30594">
        <ele>756</ele>
        <time>2020-06-07T10:57:29Z</time>
      </trkpt>
      <trkpt lat="43.41706" lon="2.30213">
        <ele>766</ele>
        <time>2020-06-07T10:58:24Z</time>
      </trkpt>
      <trkpt lat="43.41689" lon="2.30175">
        <ele>768</ele>
        <time>2020-06-07T10:58:30Z</time>
      </trkpt>
      <trkpt lat="43.4166" lon="2.30127">
        <ele>770</ele>
        <time>2020-06-07T10:58:38Z</time>
      </trkpt>
      <trkpt lat="43.41628" lon="2.30082">
        <ele>770</ele>
        <time>2020-06-07T10:58:46Z</time>
      </trkpt>
      <trkpt lat="43.41585" lon="2.30038">
        <ele>773</ele>
        <time>2020-06-07T10:58:55Z</time>
      </trkpt>
      <trkpt lat="43.41567" lon="2.30026">
        <ele>774</ele>
        <time>2020-06-07T10:58:59Z</time>
      </trkpt>
      <trkpt lat="43.41548" lon="2.30018">
        <ele>775</ele>
        <time>2020-06-07T10:59:02Z</time>
      </trkpt>
      <trkpt lat="43.41462" lon="2.30005">
        <ele>777</ele>
        <time>2020-06-07T10:59:18Z</time>
      </trkpt>
      <trkpt lat="43.41448" lon="2.3">
        <ele>777</ele>
        <time>2020-06-07T10:59:20Z</time>
      </trkpt>
      <trkpt lat="43.41433" lon="2.29991">
        <ele>777</ele>
        <time>2020-06-07T10:59:23Z</time>
      </trkpt>
      <trkpt lat="43.41412" lon="2.29971">
        <ele>777</ele>
        <time>2020-06-07T10:59:28Z</time>
      </trkpt>
      <trkpt lat="43.41314" lon="2.29815">
        <ele>777</ele>
        <time>2020-06-07T10:59:54Z</time>
      </trkpt>
      <trkpt lat="43.4129" lon="2.29789">
        <ele>775</ele>
        <time>2020-06-07T11:00:00Z</time>
      </trkpt>
      <trkpt lat="43.41274" lon="2.2978">
        <ele>774</ele>
        <time>2020-06-07T11:00:03Z</time>
      </trkpt>
      <trkpt lat="43.41263" lon="2.29776">
        <ele>773</ele>
        <time>2020-06-07T11:00:05Z</time>
      </trkpt>
      <trkpt lat="43.41247" lon="2.29777">
        <ele>773</ele>
        <time>2020-06-07T11:00:08Z</time>
      </trkpt>
      <trkpt lat="43.41234" lon="2.29783">
        <ele>773</ele>
        <time>2020-06-07T11:00:10Z</time>
      </trkpt>
      <trkpt lat="43.41221" lon="2.29791">
        <ele>773</ele>
        <time>2020-06-07T11:00:13Z</time>
      </trkpt>
      <trkpt lat="43.4121" lon="2.29806">
        <ele>774</ele>
        <time>2020-06-07T11:00:16Z</time>
      </trkpt>
      <trkpt lat="43.41144" lon="2.29927">
        <ele>775</ele>
        <time>2020-06-07T11:00:35Z</time>
      </trkpt>
      <trkpt lat="43.41134" lon="2.29944">
        <ele>775</ele>
        <time>2020-06-07T11:00:38Z</time>
      </trkpt>
      <trkpt lat="43.41115" lon="2.29965">
        <ele>775</ele>
        <time>2020-06-07T11:00:42Z</time>
      </trkpt>
      <trkpt lat="43.41098" lon="2.29971">
        <ele>774</ele>
        <time>2020-06-07T11:00:45Z</time>
      </trkpt>
      <trkpt lat="43.41084" lon="2.2997">
        <ele>774</ele>
        <time>2020-06-07T11:00:48Z</time>
      </trkpt>
      <trkpt lat="43.40987" lon="2.29956">
        <ele>774</ele>
        <time>2020-06-07T11:01:05Z</time>
      </trkpt>
      <trkpt lat="43.40969" lon="2.29949">
        <ele>775</ele>
        <time>2020-06-07T11:01:09Z</time>
      </trkpt>
      <trkpt lat="43.40948" lon="2.2993">
        <ele>775</ele>
        <time>2020-06-07T11:01:13Z</time>
      </trkpt>
      <trkpt lat="43.4094" lon="2.29916">
        <ele>775</ele>
        <time>2020-06-07T11:01:15Z</time>
      </trkpt>
      <trkpt lat="43.40897" lon="2.29807">
        <ele>773</ele>
        <time>2020-06-07T11:01:31Z</time>
      </trkpt>
      <trkpt lat="43.40887" lon="2.29788">
        <ele>772</ele>
        <time>2020-06-07T11:01:34Z</time>
      </trkpt>
      <trkpt lat="43.40881" lon="2.29779">
        <ele>771</ele>
        <time>2020-06-07T11:01:36Z</time>
      </trkpt>
      <trkpt lat="43.40865" lon="2.29768">
        <ele>771</ele>
        <time>2020-06-07T11:01:39Z</time>
      </trkpt>
      <trkpt lat="43.40844" lon="2.29761">
        <ele>772</ele>
        <time>2020-06-07T11:01:43Z</time>
      </trkpt>
      <trkpt lat="43.40752" lon="2.29751">
        <ele>770</ele>
        <time>2020-06-07T11:01:59Z</time>
      </trkpt>
      <trkpt lat="43.40575" lon="2.29737">
        <ele>762</ele>
        <time>2020-06-07T11:02:31Z</time>
      </trkpt>
      <trkpt lat="43.40556" lon="2.29741">
        <ele>760</ele>
        <time>2020-06-07T11:02:34Z</time>
      </trkpt>
      <trkpt lat="43.40547" lon="2.29748">
        <ele>761</ele>
        <time>2020-06-07T11:02:36Z</time>
      </trkpt>
      <trkpt lat="43.40541" lon="2.29759">
        <ele>761</ele>
        <time>2020-06-07T11:02:38Z</time>
      </trkpt>
      <trkpt lat="43.40538" lon="2.29776">
        <ele>762</ele>
        <time>2020-06-07T11:02:40Z</time>
      </trkpt>
      <trkpt lat="43.40538" lon="2.29789">
        <ele>763</ele>
        <time>2020-06-07T11:02:42Z</time>
      </trkpt>
      <trkpt lat="43.40543" lon="2.29839">
        <ele>766</ele>
        <time>2020-06-07T11:02:49Z</time>
      </trkpt>
      <trkpt lat="43.40543" lon="2.29857">
        <ele>767</ele>
        <time>2020-06-07T11:02:51Z</time>
      </trkpt>
      <trkpt lat="43.40538" lon="2.29875">
        <ele>768</ele>
        <time>2020-06-07T11:02:53Z</time>
      </trkpt>
      <trkpt lat="43.40529" lon="2.29884">
        <ele>768</ele>
        <time>2020-06-07T11:02:55Z</time>
      </trkpt>
      <trkpt lat="43.40517" lon="2.29886">
        <ele>768</ele>
        <time>2020-06-07T11:02:57Z</time>
      </trkpt>
      <trkpt lat="43.40507" lon="2.2988">
        <ele>767</ele>
        <time>2020-06-07T11:02:59Z</time>
      </trkpt>
      <trkpt lat="43.40485" lon="2.29842">
        <ele>765</ele>
        <time>2020-06-07T11:03:06Z</time>
      </trkpt>
      <trkpt lat="43.40472" lon="2.29823">
        <ele>765</ele>
        <time>2020-06-07T11:03:09Z</time>
      </trkpt>
      <trkpt lat="43.40453" lon="2.29806">
        <ele>765</ele>
        <time>2020-06-07T11:03:13Z</time>
      </trkpt>
      <trkpt lat="43.40428" lon="2.2979">
        <ele>765</ele>
        <time>2020-06-07T11:03:18Z</time>
      </trkpt>
      <trkpt lat="43.40404" lon="2.29781">
        <ele>764</ele>
        <time>2020-06-07T11:03:22Z</time>
      </trkpt>
      <trkpt lat="43.40391" lon="2.29779">
        <ele>762</ele>
        <time>2020-06-07T11:03:25Z</time>
      </trkpt>
      <trkpt lat="43.40377" lon="2.29782">
        <ele>762</ele>
        <time>2020-06-07T11:03:27Z</time>
      </trkpt>
      <trkpt lat="43.40362" lon="2.29791">
        <ele>762</ele>
        <time>2020-06-07T11:03:30Z</time>
      </trkpt>
      <trkpt lat="43.40351" lon="2.29799">
        <ele>762</ele>
        <time>2020-06-07T11:03:32Z</time>
      </trkpt>
      <trkpt lat="43.40315" lon="2.29848">
        <ele>767</ele>
        <time>2020-06-07T11:03:41Z</time>
      </trkpt>
      <trkpt lat="43.40293" lon="2.29868">
        <ele>768</ele>
        <time>2020-06-07T11:03:46Z</time>
      </trkpt>
      <trkpt lat="43.40283" lon="2.29871">
        <ele>767</ele>
        <time>2020-06-07T11:03:48Z</time>
      </trkpt>
      <trkpt lat="43.40233" lon="2.29877">
        <ele>765</ele>
        <time>2020-06-07T11:03:57Z</time>
      </trkpt>
      <trkpt lat="43.4022" lon="2.29882">
        <ele>765</ele>
        <time>2020-06-07T11:03:59Z</time>
      </trkpt>
      <trkpt lat="43.40204" lon="2.29894">
        <ele>766</ele>
        <time>2020-06-07T11:04:03Z</time>
      </trkpt>
      <trkpt lat="43.40189" lon="2.29913">
        <ele>766</ele>
        <time>2020-06-07T11:04:06Z</time>
      </trkpt>
      <trkpt lat="43.40179" lon="2.2993">
        <ele>766</ele>
        <time>2020-06-07T11:04:09Z</time>
      </trkpt>
      <trkpt lat="43.40171" lon="2.29955">
        <ele>768</ele>
        <time>2020-06-07T11:04:13Z</time>
      </trkpt>
      <trkpt lat="43.40167" lon="2.29977">
        <ele>769</ele>
        <time>2020-06-07T11:04:15Z</time>
      </trkpt>
      <trkpt lat="43.40166" lon="2.29999">
        <ele>770</ele>
        <time>2020-06-07T11:04:18Z</time>
      </trkpt>
      <trkpt lat="43.40169" lon="2.30025">
        <ele>771</ele>
        <time>2020-06-07T11:04:22Z</time>
      </trkpt>
      <trkpt lat="43.40174" lon="2.3005">
        <ele>773</ele>
        <time>2020-06-07T11:04:25Z</time>
      </trkpt>
      <trkpt lat="43.40189" lon="2.30096">
        <ele>776</ele>
        <time>2020-06-07T11:04:32Z</time>
      </trkpt>
      <trkpt lat="43.40206" lon="2.30128">
        <ele>776</ele>
        <time>2020-06-07T11:04:37Z</time>
      </trkpt>
      <trkpt lat="43.40243" lon="2.30188">
        <ele>780</ele>
        <time>2020-06-07T11:04:47Z</time>
      </trkpt>
      <trkpt lat="43.4025" lon="2.30206">
        <ele>780</ele>
        <time>2020-06-07T11:04:49Z</time>
      </trkpt>
      <trkpt lat="43.40252" lon="2.30225">
        <ele>779</ele>
        <time>2020-06-07T11:04:52Z</time>
      </trkpt>
      <trkpt lat="43.40251" lon="2.30249">
        <ele>777</ele>
        <time>2020-06-07T11:04:55Z</time>
      </trkpt>
      <trkpt lat="43.40244" lon="2.30284">
        <ele>779</ele>
        <time>2020-06-07T11:05:00Z</time>
      </trkpt>
      <trkpt lat="43.40237" lon="2.30306">
        <ele>780</ele>
        <time>2020-06-07T11:05:03Z</time>
      </trkpt>
      <trkpt lat="43.40227" lon="2.30324">
        <ele>779</ele>
        <time>2020-06-07T11:05:06Z</time>
      </trkpt>
      <trkpt lat="43.40214" lon="2.30336">
        <ele>778</ele>
        <time>2020-06-07T11:05:09Z</time>
      </trkpt>
      <trkpt lat="43.40197" lon="2.30346">
        <ele>777</ele>
        <time>2020-06-07T11:05:12Z</time>
      </trkpt>
      <trkpt lat="43.40168" lon="2.30357">
        <ele>774</ele>
        <time>2020-06-07T11:05:17Z</time>
      </trkpt>
      <trkpt lat="43.40146" lon="2.30367">
        <ele>769</ele>
        <time>2020-06-07T11:05:21Z</time>
      </trkpt>
      <trkpt lat="43.40125" lon="2.30382">
        <ele>766</ele>
        <time>2020-06-07T11:05:26Z</time>
      </trkpt>
      <trkpt lat="43.40111" lon="2.30401">
        <ele>766</ele>
        <time>2020-06-07T11:05:29Z</time>
      </trkpt>
      <trkpt lat="43.40018" lon="2.30548">
        <ele>765</ele>
        <time>2020-06-07T11:05:54Z</time>
      </trkpt>
      <trkpt lat="43.39992" lon="2.30577">
        <ele>765</ele>
        <time>2020-06-07T11:06:00Z</time>
      </trkpt>
      <trkpt lat="43.39976" lon="2.30589">
        <ele>765</ele>
        <time>2020-06-07T11:06:03Z</time>
      </trkpt>
      <trkpt lat="43.39939" lon="2.30606">
        <ele>761</ele>
        <time>2020-06-07T11:06:10Z</time>
      </trkpt>
      <trkpt lat="43.39798" lon="2.30651">
        <ele>752</ele>
        <time>2020-06-07T11:06:36Z</time>
      </trkpt>
      <trkpt lat="43.39666" lon="2.30682">
        <ele>733</ele>
        <time>2020-06-07T11:07:00Z</time>
      </trkpt>
      <trkpt lat="43.39635" lon="2.30698">
        <ele>732</ele>
        <time>2020-06-07T11:07:06Z</time>
      </trkpt>
      <trkpt lat="43.39499" lon="2.30777">
        <ele>728</ele>
        <time>2020-06-07T11:07:32Z</time>
      </trkpt>
      <trkpt lat="43.39461" lon="2.30802">
        <ele>724</ele>
        <time>2020-06-07T11:07:40Z</time>
      </trkpt>
      <trkpt lat="43.39421" lon="2.3084">
        <ele>722</ele>
        <time>2020-06-07T11:07:48Z</time>
      </trkpt>
      <trkpt lat="43.39317" lon="2.3093">
        <ele>719</ele>
        <time>2020-06-07T11:08:10Z</time>
      </trkpt>
      <trkpt lat="43.39234" lon="2.30992">
        <ele>714</ele>
        <time>2020-06-07T11:08:27Z</time>
      </trkpt>
      <trkpt lat="43.39089" lon="2.31134">
        <ele>711</ele>
        <time>2020-06-07T11:08:59Z</time>
      </trkpt>
      <trkpt lat="43.38953" lon="2.3129">
        <ele>701</ele>
        <time>2020-06-07T11:09:30Z</time>
      </trkpt>
      <trkpt lat="43.38913" lon="2.31324">
        <ele>696</ele>
        <time>2020-06-07T11:09:38Z</time>
      </trkpt>
      <trkpt lat="43.38827" lon="2.31369">
        <ele>691</ele>
        <time>2020-06-07T11:09:55Z</time>
      </trkpt>
      <trkpt lat="43.38714" lon="2.31418">
        <ele>687</ele>
        <time>2020-06-07T11:10:16Z</time>
      </trkpt>
      <trkpt lat="43.38675" lon="2.3143">
        <ele>687</ele>
        <time>2020-06-07T11:10:23Z</time>
      </trkpt>
      <trkpt lat="43.38597" lon="2.31448">
        <ele>684</ele>
        <time>2020-06-07T11:10:37Z</time>
      </trkpt>
      <trkpt lat="43.38503" lon="2.3146">
        <ele>675</ele>
        <time>2020-06-07T11:10:54Z</time>
      </trkpt>
      <trkpt lat="43.38491" lon="2.31463">
        <ele>674</ele>
        <time>2020-06-07T11:10:56Z</time>
      </trkpt>
      <trkpt lat="43.38473" lon="2.31473">
        <ele>672</ele>
        <time>2020-06-07T11:11:00Z</time>
      </trkpt>
      <trkpt lat="43.38452" lon="2.31489">
        <ele>672</ele>
        <time>2020-06-07T11:11:04Z</time>
      </trkpt>
      <trkpt lat="43.3842" lon="2.31527">
        <ele>676</ele>
        <time>2020-06-07T11:11:11Z</time>
      </trkpt>
      <trkpt lat="43.38399" lon="2.31542">
        <ele>681</ele>
        <time>2020-06-07T11:11:16Z</time>
      </trkpt>
      <trkpt lat="43.38385" lon="2.31547">
        <ele>684</ele>
        <time>2020-06-07T11:11:18Z</time>
      </trkpt>
      <trkpt lat="43.38369" lon="2.31545">
        <ele>684</ele>
        <time>2020-06-07T11:11:21Z</time>
      </trkpt>
      <trkpt lat="43.3836" lon="2.3154">
        <ele>683</ele>
        <time>2020-06-07T11:11:23Z</time>
      </trkpt>
      <trkpt lat="43.38318" lon="2.31494">
        <ele>669</ele>
        <time>2020-06-07T11:11:32Z</time>
      </trkpt>
      <trkpt lat="43.38281" lon="2.31464">
        <ele>665</ele>
        <time>2020-06-07T11:11:40Z</time>
      </trkpt>
      <trkpt lat="43.38177" lon="2.31407">
        <ele>662</ele>
        <time>2020-06-07T11:12:00Z</time>
      </trkpt>
      <trkpt lat="43.38118" lon="2.31369">
        <ele>653</ele>
        <time>2020-06-07T11:12:11Z</time>
      </trkpt>
      <trkpt lat="43.38098" lon="2.31353">
        <ele>650</ele>
        <time>2020-06-07T11:12:16Z</time>
      </trkpt>
      <trkpt lat="43.38078" lon="2.31345">
        <ele>648</ele>
        <time>2020-06-07T11:12:19Z</time>
      </trkpt>
      <trkpt lat="43.38062" lon="2.31344">
        <ele>646</ele>
        <time>2020-06-07T11:12:22Z</time>
      </trkpt>
      <trkpt lat="43.38047" lon="2.31347">
        <ele>644</ele>
        <time>2020-06-07T11:12:25Z</time>
      </trkpt>
      <trkpt lat="43.38032" lon="2.31355">
        <ele>645</ele>
        <time>2020-06-07T11:12:28Z</time>
      </trkpt>
      <trkpt lat="43.3801" lon="2.3137">
        <ele>646</ele>
        <time>2020-06-07T11:12:32Z</time>
      </trkpt>
      <trkpt lat="43.37931" lon="2.31442">
        <ele>650</ele>
        <time>2020-06-07T11:12:49Z</time>
      </trkpt>
      <trkpt lat="43.37917" lon="2.3145">
        <ele>649</ele>
        <time>2020-06-07T11:12:52Z</time>
      </trkpt>
      <trkpt lat="43.37899" lon="2.31454">
        <ele>650</ele>
        <time>2020-06-07T11:12:55Z</time>
      </trkpt>
      <trkpt lat="43.37884" lon="2.31454">
        <ele>649</ele>
        <time>2020-06-07T11:12:57Z</time>
      </trkpt>
      <trkpt lat="43.37862" lon="2.3145">
        <ele>648</ele>
        <time>2020-06-07T11:13:01Z</time>
      </trkpt>
      <trkpt lat="43.37839" lon="2.31437">
        <ele>644</ele>
        <time>2020-06-07T11:13:06Z</time>
      </trkpt>
      <trkpt lat="43.37827" lon="2.31423">
        <ele>643</ele>
        <time>2020-06-07T11:13:09Z</time>
      </trkpt>
      <trkpt lat="43.37818" lon="2.31405">
        <ele>643</ele>
        <time>2020-06-07T11:13:11Z</time>
      </trkpt>
      <trkpt lat="43.37812" lon="2.31381">
        <ele>641</ele>
        <time>2020-06-07T11:13:15Z</time>
      </trkpt>
      <trkpt lat="43.37805" lon="2.31344">
        <ele>638</ele>
        <time>2020-06-07T11:13:20Z</time>
      </trkpt>
      <trkpt lat="43.37798" lon="2.31318">
        <ele>635</ele>
        <time>2020-06-07T11:13:23Z</time>
      </trkpt>
      <trkpt lat="43.37789" lon="2.31299">
        <ele>633</ele>
        <time>2020-06-07T11:13:26Z</time>
      </trkpt>
      <trkpt lat="43.37775" lon="2.31277">
        <ele>631</ele>
        <time>2020-06-07T11:13:30Z</time>
      </trkpt>
      <trkpt lat="43.37753" lon="2.31255">
        <ele>631</ele>
        <time>2020-06-07T11:13:35Z</time>
      </trkpt>
      <trkpt lat="43.3772" lon="2.31233">
        <ele>630</ele>
        <time>2020-06-07T11:13:41Z</time>
      </trkpt>
      <trkpt lat="43.37679" lon="2.31196">
        <ele>630</ele>
        <time>2020-06-07T11:13:50Z</time>
      </trkpt>
      <trkpt lat="43.37664" lon="2.31171">
        <ele>629</ele>
        <time>2020-06-07T11:13:54Z</time>
      </trkpt>
      <trkpt lat="43.3763" lon="2.31097">
        <ele>619</ele>
        <time>2020-06-07T11:14:06Z</time>
      </trkpt>
      <trkpt lat="43.37614" lon="2.31072">
        <ele>617</ele>
        <time>2020-06-07T11:14:10Z</time>
      </trkpt>
      <trkpt lat="43.37606" lon="2.31062">
        <ele>617</ele>
        <time>2020-06-07T11:14:12Z</time>
      </trkpt>
      <trkpt lat="43.37593" lon="2.31052">
        <ele>618</ele>
        <time>2020-06-07T11:14:14Z</time>
      </trkpt>
      <trkpt lat="43.37576" lon="2.31044">
        <ele>619</ele>
        <time>2020-06-07T11:14:18Z</time>
      </trkpt>
      <trkpt lat="43.37535" lon="2.31032">
        <ele>618</ele>
        <time>2020-06-07T11:14:25Z</time>
      </trkpt>
      <trkpt lat="43.37514" lon="2.31021">
        <ele>617</ele>
        <time>2020-06-07T11:14:29Z</time>
      </trkpt>
      <trkpt lat="43.37494" lon="2.31008">
        <ele>616</ele>
        <time>2020-06-07T11:14:33Z</time>
      </trkpt>
      <trkpt lat="43.37299" lon="2.30861">
        <ele>604</ele>
        <time>2020-06-07T11:15:13Z</time>
      </trkpt>
      <trkpt lat="43.37285" lon="2.30848">
        <ele>603</ele>
        <time>2020-06-07T11:15:16Z</time>
      </trkpt>
      <trkpt lat="43.37263" lon="2.30823">
        <ele>601</ele>
        <time>2020-06-07T11:15:21Z</time>
      </trkpt>
      <trkpt lat="43.37243" lon="2.30785">
        <ele>598</ele>
        <time>2020-06-07T11:15:27Z</time>
      </trkpt>
      <trkpt lat="43.37232" lon="2.30746">
        <ele>597</ele>
        <time>2020-06-07T11:15:32Z</time>
      </trkpt>
      <trkpt lat="43.37218" lon="2.30662">
        <ele>592</ele>
        <time>2020-06-07T11:15:43Z</time>
      </trkpt>
      <trkpt lat="43.37214" lon="2.30643">
        <ele>590</ele>
        <time>2020-06-07T11:15:46Z</time>
      </trkpt>
      <trkpt lat="43.37204" lon="2.30615">
        <ele>588</ele>
        <time>2020-06-07T11:15:50Z</time>
      </trkpt>
      <trkpt lat="43.37197" lon="2.30601">
        <ele>587</ele>
        <time>2020-06-07T11:15:52Z</time>
      </trkpt>
      <trkpt lat="43.37149" lon="2.30528">
        <ele>584</ele>
        <time>2020-06-07T11:16:05Z</time>
      </trkpt>
      <trkpt lat="43.37128" lon="2.30506">
        <ele>582</ele>
        <time>2020-06-07T11:16:10Z</time>
      </trkpt>
      <trkpt lat="43.3711" lon="2.30494">
        <ele>582</ele>
        <time>2020-06-07T11:16:13Z</time>
      </trkpt>
      <trkpt lat="43.37094" lon="2.30489">
        <ele>582</ele>
        <time>2020-06-07T11:16:16Z</time>
      </trkpt>
      <trkpt lat="43.37037" lon="2.3048">
        <ele>587</ele>
        <time>2020-06-07T11:16:26Z</time>
      </trkpt>
      <trkpt lat="43.37017" lon="2.3047">
        <ele>586</ele>
        <time>2020-06-07T11:16:30Z</time>
      </trkpt>
      <trkpt lat="43.36991" lon="2.30445">
        <ele>584</ele>
        <time>2020-06-07T11:16:36Z</time>
      </trkpt>
      <trkpt lat="43.36972" lon="2.30406">
        <ele>579</ele>
        <time>2020-06-07T11:16:42Z</time>
      </trkpt>
      <trkpt lat="43.36927" lon="2.30213">
        <ele>564</ele>
        <time>2020-06-07T11:17:08Z</time>
      </trkpt>
      <trkpt lat="43.36924" lon="2.30189">
        <ele>563</ele>
        <time>2020-06-07T11:17:11Z</time>
      </trkpt>
      <trkpt lat="43.36915" lon="2.30158">
        <ele>562</ele>
        <time>2020-06-07T11:17:15Z</time>
      </trkpt>
      <trkpt lat="43.36907" lon="2.30135">
        <ele>560</ele>
        <time>2020-06-07T11:17:19Z</time>
      </trkpt>
      <trkpt lat="43.36895" lon="2.30111">
        <ele>558</ele>
        <time>2020-06-07T11:17:22Z</time>
      </trkpt>
      <trkpt lat="43.36876" lon="2.30088">
        <ele>556</ele>
        <time>2020-06-07T11:17:27Z</time>
      </trkpt>
      <trkpt lat="43.36858" lon="2.30073">
        <ele>555</ele>
        <time>2020-06-07T11:17:31Z</time>
      </trkpt>
      <trkpt lat="43.36838" lon="2.30064">
        <ele>555</ele>
        <time>2020-06-07T11:17:34Z</time>
      </trkpt>
      <trkpt lat="43.36798" lon="2.30056">
        <ele>554</ele>
        <time>2020-06-07T11:17:42Z</time>
      </trkpt>
      <trkpt lat="43.3678" lon="2.30049">
        <ele>553</ele>
        <time>2020-06-07T11:17:45Z</time>
      </trkpt>
      <trkpt lat="43.36762" lon="2.30036">
        <ele>553</ele>
        <time>2020-06-07T11:17:49Z</time>
      </trkpt>
      <trkpt lat="43.36753" lon="2.30026">
        <ele>552</ele>
        <time>2020-06-07T11:17:51Z</time>
      </trkpt>
      <trkpt lat="43.36739" lon="2.3">
        <ele>551</ele>
        <time>2020-06-07T11:17:55Z</time>
      </trkpt>
      <trkpt lat="43.367" lon="2.30026">
        <ele>553</ele>
        <time>2020-06-07T11:18:03Z</time>
      </trkpt>
      <trkpt lat="43.36694" lon="2.30038">
        <ele>553</ele>
        <time>2020-06-07T11:18:04Z</time>
      </trkpt>
      <trkpt lat="43.367" lon="2.30071">
        <ele>553</ele>
        <time>2020-06-07T11:18:09Z</time>
      </trkpt>
      <trkpt lat="43.36696" lon="2.30093">
        <ele>553</ele>
        <time>2020-06-07T11:18:12Z</time>
      </trkpt>
      <trkpt lat="43.36602" lon="2.30428">
        <ele>545</ele>
        <time>2020-06-07T11:18:58Z</time>
      </trkpt>
      <trkpt lat="43.36584" lon="2.30484">
        <ele>544</ele>
        <time>2020-06-07T11:19:06Z</time>
      </trkpt>
      <trkpt lat="43.36522" lon="2.30633">
        <ele>543</ele>
        <time>2020-06-07T11:19:28Z</time>
      </trkpt>
      <trkpt lat="43.36491" lon="2.30744">
        <ele>546</ele>
        <time>2020-06-07T11:19:44Z</time>
      </trkpt>
      <trkpt lat="43.36478" lon="2.30774">
        <ele>546</ele>
        <time>2020-06-07T11:19:48Z</time>
      </trkpt>
      <trkpt lat="43.36467" lon="2.30794">
        <ele>546</ele>
        <time>2020-06-07T11:19:52Z</time>
      </trkpt>
      <trkpt lat="43.3641" lon="2.30862">
        <ele>544</ele>
        <time>2020-06-07T11:20:05Z</time>
      </trkpt>
      <trkpt lat="43.36401" lon="2.30883">
        <ele>544</ele>
        <time>2020-06-07T11:20:08Z</time>
      </trkpt>
      <trkpt lat="43.36395" lon="2.30905">
        <ele>545</ele>
        <time>2020-06-07T11:20:11Z</time>
      </trkpt>
      <trkpt lat="43.36393" lon="2.30928">
        <ele>545</ele>
        <time>2020-06-07T11:20:14Z</time>
      </trkpt>
      <trkpt lat="43.36387" lon="2.31058">
        <ele>547</ele>
        <time>2020-06-07T11:20:31Z</time>
      </trkpt>
      <trkpt lat="43.36386" lon="2.31112">
        <ele>547</ele>
        <time>2020-06-07T11:20:38Z</time>
      </trkpt>
      <trkpt lat="43.36403" lon="2.31243">
        <ele>552</ele>
        <time>2020-06-07T11:20:55Z</time>
      </trkpt>
      <trkpt lat="43.36393" lon="2.31268">
        <ele>552</ele>
        <time>2020-06-07T11:20:59Z</time>
      </trkpt>
      <trkpt lat="43.36217" lon="2.31426">
        <ele>540</ele>
        <time>2020-06-07T11:21:36Z</time>
      </trkpt>
      <trkpt lat="43.36202" lon="2.31437">
        <ele>538</ele>
        <time>2020-06-07T11:21:39Z</time>
      </trkpt>
      <trkpt lat="43.36184" lon="2.31445">
        <ele>537</ele>
        <time>2020-06-07T11:21:43Z</time>
      </trkpt>
      <trkpt lat="43.3596" lon="2.31506">
        <ele>522</ele>
        <time>2020-06-07T11:22:23Z</time>
      </trkpt>
      <trkpt lat="43.35872" lon="2.31558">
        <ele>517</ele>
        <time>2020-06-07T11:22:40Z</time>
      </trkpt>
      <trkpt lat="43.35715" lon="2.31698">
        <ele>508</ele>
        <time>2020-06-07T11:23:14Z</time>
      </trkpt>
      <trkpt lat="43.35535" lon="2.31954">
        <ele>494</ele>
        <time>2020-06-07T11:24:00Z</time>
      </trkpt>
      <trkpt lat="43.35526" lon="2.31973">
        <ele>494</ele>
        <time>2020-06-07T11:24:03Z</time>
      </trkpt>
      <trkpt lat="43.35512" lon="2.32015">
        <ele>492</ele>
        <time>2020-06-07T11:24:09Z</time>
      </trkpt>
      <trkpt lat="43.35495" lon="2.32049">
        <ele>491</ele>
        <time>2020-06-07T11:24:14Z</time>
      </trkpt>
      <trkpt lat="43.35444" lon="2.32131">
        <ele>489</ele>
        <time>2020-06-07T11:24:28Z</time>
      </trkpt>
      <trkpt lat="43.35372" lon="2.3224">
        <ele>486</ele>
        <time>2020-06-07T11:24:47Z</time>
      </trkpt>
      <trkpt lat="43.35313" lon="2.32345">
        <ele>484</ele>
        <time>2020-06-07T11:25:04Z</time>
      </trkpt>
      <trkpt lat="43.35249" lon="2.3247">
        <ele>480</ele>
        <time>2020-06-07T11:25:24Z</time>
      </trkpt>
      <trkpt lat="43.3514" lon="2.32719">
        <ele>473</ele>
        <time>2020-06-07T11:26:02Z</time>
      </trkpt>
      <trkpt lat="43.35066" lon="2.32845">
        <ele>471</ele>
        <time>2020-06-07T11:26:22Z</time>
      </trkpt>
      <trkpt lat="43.35023" lon="2.32959">
        <ele>468</ele>
        <time>2020-06-07T11:26:39Z</time>
      </trkpt>
      <trkpt lat="43.34914" lon="2.33179">
        <ele>465</ele>
        <time>2020-06-07T11:27:14Z</time>
      </trkpt>
      <trkpt lat="43.3489" lon="2.33248">
        <ele>465</ele>
        <time>2020-06-07T11:27:23Z</time>
      </trkpt>
      <trkpt lat="43.34876" lon="2.33297">
        <ele>466</ele>
        <time>2020-06-07T11:27:30Z</time>
      </trkpt>
      <trkpt lat="43.34874" lon="2.3332">
        <ele>466</ele>
        <time>2020-06-07T11:27:33Z</time>
      </trkpt>
      <trkpt lat="43.34876" lon="2.33344">
        <ele>466</ele>
        <time>2020-06-07T11:27:36Z</time>
      </trkpt>
      <trkpt lat="43.34923" lon="2.33467">
        <ele>466</ele>
        <time>2020-06-07T11:27:54Z</time>
      </trkpt>
      <trkpt lat="43.34929" lon="2.33504">
        <ele>466</ele>
        <time>2020-06-07T11:27:59Z</time>
      </trkpt>
      <trkpt lat="43.34929" lon="2.33531">
        <ele>465</ele>
        <time>2020-06-07T11:28:03Z</time>
      </trkpt>
      <trkpt lat="43.34917" lon="2.336">
        <ele>464</ele>
        <time>2020-06-07T11:28:12Z</time>
      </trkpt>
      <trkpt lat="43.34888" lon="2.33767">
        <ele>463</ele>
        <time>2020-06-07T11:28:34Z</time>
      </trkpt>
      <trkpt lat="43.34873" lon="2.33845">
        <ele>461</ele>
        <time>2020-06-07T11:28:45Z</time>
      </trkpt>
      <trkpt lat="43.34862" lon="2.33869">
        <ele>460</ele>
        <time>2020-06-07T11:28:48Z</time>
      </trkpt>
      <trkpt lat="43.34826" lon="2.33914">
        <ele>461</ele>
        <time>2020-06-07T11:28:57Z</time>
      </trkpt>
      <trkpt lat="43.34722" lon="2.34062">
        <ele>459</ele>
        <time>2020-06-07T11:29:24Z</time>
      </trkpt>
      <trkpt lat="43.34524" lon="2.34442">
        <ele>445</ele>
        <time>2020-06-07T11:30:24Z</time>
      </trkpt>
      <trkpt lat="43.34504" lon="2.34501">
        <ele>444</ele>
        <time>2020-06-07T11:30:32Z</time>
      </trkpt>
      <trkpt lat="43.34498" lon="2.34601">
        <ele>441</ele>
        <time>2020-06-07T11:30:45Z</time>
      </trkpt>
      <trkpt lat="43.34473" lon="2.34601">
        <ele>440</ele>
        <time>2020-06-07T11:30:50Z</time>
      </trkpt>
      <trkpt lat="43.3445" lon="2.3459">
        <ele>439</ele>
        <time>2020-06-07T11:30:54Z</time>
      </trkpt>
      <trkpt lat="43.34374" lon="2.34537">
        <ele>435</ele>
        <time>2020-06-07T11:31:09Z</time>
      </trkpt>
      <trkpt lat="43.34314" lon="2.34488">
        <ele>427</ele>
        <time>2020-06-07T11:31:22Z</time>
      </trkpt>
      <trkpt lat="43.34215" lon="2.34388">
        <ele>417</ele>
        <time>2020-06-07T11:31:44Z</time>
      </trkpt>
      <trkpt lat="43.34199" lon="2.3438">
        <ele>416</ele>
        <time>2020-06-07T11:31:47Z</time>
      </trkpt>
      <trkpt lat="43.34187" lon="2.34381">
        <ele>415</ele>
        <time>2020-06-07T11:31:49Z</time>
      </trkpt>
      <trkpt lat="43.34169" lon="2.34394">
        <ele>414</ele>
        <time>2020-06-07T11:31:52Z</time>
      </trkpt>
      <trkpt lat="43.34158" lon="2.34416">
        <ele>413</ele>
        <time>2020-06-07T11:31:56Z</time>
      </trkpt>
      <trkpt lat="43.34152" lon="2.34458">
        <ele>411</ele>
        <time>2020-06-07T11:32:01Z</time>
      </trkpt>
      <trkpt lat="43.34158" lon="2.345">
        <ele>410</ele>
        <time>2020-06-07T11:32:07Z</time>
      </trkpt>
      <trkpt lat="43.3417" lon="2.34525">
        <ele>412</ele>
        <time>2020-06-07T11:32:11Z</time>
      </trkpt>
      <trkpt lat="43.3418" lon="2.34539">
        <ele>414</ele>
        <time>2020-06-07T11:32:13Z</time>
      </trkpt>
      <trkpt lat="43.34183" lon="2.34556">
        <ele>415</ele>
        <time>2020-06-07T11:32:16Z</time>
      </trkpt>
      <trkpt lat="43.34176" lon="2.34572">
        <ele>413</ele>
        <time>2020-06-07T11:32:18Z</time>
      </trkpt>
      <trkpt lat="43.34168" lon="2.34583">
        <ele>411</ele>
        <time>2020-06-07T11:32:20Z</time>
      </trkpt>
      <trkpt lat="43.34155" lon="2.34585">
        <ele>409</ele>
        <time>2020-06-07T11:32:22Z</time>
      </trkpt>
      <trkpt lat="43.34142" lon="2.34579">
        <ele>407</ele>
        <time>2020-06-07T11:32:25Z</time>
      </trkpt>
      <trkpt lat="43.3413" lon="2.34578">
        <ele>405</ele>
        <time>2020-06-07T11:32:27Z</time>
      </trkpt>
      <trkpt lat="43.34116" lon="2.34587">
        <ele>403</ele>
        <time>2020-06-07T11:32:30Z</time>
      </trkpt>
      <trkpt lat="43.34103" lon="2.34614">
        <ele>402</ele>
        <time>2020-06-07T11:32:34Z</time>
      </trkpt>
      <trkpt lat="43.34081" lon="2.34679">
        <ele>400</ele>
        <time>2020-06-07T11:32:43Z</time>
      </trkpt>
      <trkpt lat="43.34066" lon="2.34695">
        <ele>400</ele>
        <time>2020-06-07T11:32:47Z</time>
      </trkpt>
      <trkpt lat="43.33958" lon="2.34727">
        <ele>390</ele>
        <time>2020-06-07T11:33:06Z</time>
      </trkpt>
      <trkpt lat="43.33899" lon="2.34757">
        <ele>387</ele>
        <time>2020-06-07T11:33:17Z</time>
      </trkpt>
      <trkpt lat="43.33879" lon="2.34773">
        <ele>386</ele>
        <time>2020-06-07T11:33:22Z</time>
      </trkpt>
      <trkpt lat="43.33837" lon="2.3479">
        <ele>383</ele>
        <time>2020-06-07T11:33:29Z</time>
      </trkpt>
      <trkpt lat="43.33743" lon="2.34888">
        <ele>376</ele>
        <time>2020-06-07T11:33:50Z</time>
      </trkpt>
      <trkpt lat="43.33731" lon="2.34914">
        <ele>375</ele>
        <time>2020-06-07T11:33:54Z</time>
      </trkpt>
      <trkpt lat="43.33712" lon="2.34988">
        <ele>376</ele>
        <time>2020-06-07T11:34:04Z</time>
      </trkpt>
      <trkpt lat="43.33705" lon="2.35011">
        <ele>376</ele>
        <time>2020-06-07T11:34:08Z</time>
      </trkpt>
      <trkpt lat="43.33698" lon="2.35026">
        <ele>375</ele>
        <time>2020-06-07T11:34:10Z</time>
      </trkpt>
      <trkpt lat="43.33686" lon="2.35041">
        <ele>373</ele>
        <time>2020-06-07T11:34:13Z</time>
      </trkpt>
      <trkpt lat="43.33672" lon="2.35055">
        <ele>370</ele>
        <time>2020-06-07T11:34:16Z</time>
      </trkpt>
      <trkpt lat="43.3365" lon="2.35071">
        <ele>368</ele>
        <time>2020-06-07T11:34:20Z</time>
      </trkpt>
      <trkpt lat="43.33638" lon="2.35076">
        <ele>367</ele>
        <time>2020-06-07T11:34:23Z</time>
      </trkpt>
      <trkpt lat="43.33626" lon="2.35078">
        <ele>366</ele>
        <time>2020-06-07T11:34:25Z</time>
      </trkpt>
      <trkpt lat="43.33615" lon="2.35074">
        <ele>365</ele>
        <time>2020-06-07T11:34:27Z</time>
      </trkpt>
      <trkpt lat="43.33589" lon="2.35047">
        <ele>361</ele>
        <time>2020-06-07T11:34:33Z</time>
      </trkpt>
      <trkpt lat="43.33582" lon="2.35044">
        <ele>361</ele>
        <time>2020-06-07T11:34:34Z</time>
      </trkpt>
      <trkpt lat="43.33574" lon="2.35044">
        <ele>360</ele>
        <time>2020-06-07T11:34:35Z</time>
      </trkpt>
      <trkpt lat="43.33543" lon="2.35054">
        <ele>359</ele>
        <time>2020-06-07T11:34:41Z</time>
      </trkpt>
      <trkpt lat="43.33518" lon="2.35053">
        <ele>358</ele>
        <time>2020-06-07T11:34:45Z</time>
      </trkpt>
      <trkpt lat="43.33509" lon="2.35049">
        <ele>357</ele>
        <time>2020-06-07T11:34:47Z</time>
      </trkpt>
      <trkpt lat="43.33502" lon="2.35042">
        <ele>356</ele>
        <time>2020-06-07T11:34:49Z</time>
      </trkpt>
      <trkpt lat="43.33472" lon="2.34994">
        <ele>350</ele>
        <time>2020-06-07T11:34:57Z</time>
      </trkpt>
      <trkpt lat="43.33465" lon="2.34987">
        <ele>349</ele>
        <time>2020-06-07T11:34:58Z</time>
      </trkpt>
      <trkpt lat="43.33457" lon="2.34981">
        <ele>349</ele>
        <time>2020-06-07T11:35:00Z</time>
      </trkpt>
      <trkpt lat="43.33443" lon="2.3498">
        <ele>348</ele>
        <time>2020-06-07T11:35:02Z</time>
      </trkpt>
      <trkpt lat="43.33435" lon="2.34982">
        <ele>347</ele>
        <time>2020-06-07T11:35:04Z</time>
      </trkpt>
      <trkpt lat="43.33425" lon="2.34987">
        <ele>346</ele>
        <time>2020-06-07T11:35:06Z</time>
      </trkpt>
      <trkpt lat="43.3332" lon="2.35091">
        <ele>338</ele>
        <time>2020-06-07T11:35:29Z</time>
      </trkpt>
      <trkpt lat="43.33298" lon="2.35127">
        <ele>336</ele>
        <time>2020-06-07T11:35:35Z</time>
      </trkpt>
      <trkpt lat="43.33275" lon="2.35188">
        <ele>331</ele>
        <time>2020-06-07T11:35:44Z</time>
      </trkpt>
      <trkpt lat="43.33226" lon="2.35304">
        <ele>319</ele>
        <time>2020-06-07T11:36:01Z</time>
      </trkpt>
      <trkpt lat="43.33199" lon="2.35427">
        <ele>313</ele>
        <time>2020-06-07T11:36:18Z</time>
      </trkpt>
      <trkpt lat="43.33191" lon="2.35447">
        <ele>312</ele>
        <time>2020-06-07T11:36:21Z</time>
      </trkpt>
      <trkpt lat="43.33179" lon="2.35465">
        <ele>311</ele>
        <time>2020-06-07T11:36:24Z</time>
      </trkpt>
      <trkpt lat="43.33119" lon="2.3552">
        <ele>305</ele>
        <time>2020-06-07T11:36:37Z</time>
      </trkpt>
      <trkpt lat="43.33091" lon="2.35544">
        <ele>303</ele>
        <time>2020-06-07T11:36:43Z</time>
      </trkpt>
      <trkpt lat="43.33085" lon="2.35542">
        <ele>303</ele>
        <time>2020-06-07T11:36:44Z</time>
      </trkpt>
      <trkpt lat="43.33067" lon="2.35582">
        <ele>301</ele>
        <time>2020-06-07T11:36:50Z</time>
      </trkpt>
      <trkpt lat="43.33054" lon="2.356">
        <ele>299</ele>
        <time>2020-06-07T11:36:53Z</time>
      </trkpt>
      <trkpt lat="43.33019" lon="2.35687">
        <ele>295</ele>
        <time>2020-06-07T11:37:06Z</time>
      </trkpt>
      <trkpt lat="43.33015" lon="2.35703">
        <ele>293</ele>
        <time>2020-06-07T11:37:08Z</time>
      </trkpt>
      <trkpt lat="43.33015" lon="2.35748">
        <ele>290</ele>
        <time>2020-06-07T11:37:14Z</time>
      </trkpt>
      <trkpt lat="43.33013" lon="2.35777">
        <ele>291</ele>
        <time>2020-06-07T11:37:18Z</time>
      </trkpt>
      <trkpt lat="43.32997" lon="2.35812">
        <ele>291</ele>
        <time>2020-06-07T11:37:23Z</time>
      </trkpt>
      <trkpt lat="43.32926" lon="2.35879">
        <ele>289</ele>
        <time>2020-06-07T11:37:38Z</time>
      </trkpt>
      <trkpt lat="43.32917" lon="2.35902">
        <ele>289</ele>
        <time>2020-06-07T11:37:42Z</time>
      </trkpt>
      <trkpt lat="43.32888" lon="2.36021">
        <ele>288</ele>
        <time>2020-06-07T11:37:58Z</time>
      </trkpt>
      <trkpt lat="43.32878" lon="2.36049">
        <ele>288</ele>
        <time>2020-06-07T11:38:02Z</time>
      </trkpt>
      <trkpt lat="43.32862" lon="2.36077">
        <ele>288</ele>
        <time>2020-06-07T11:38:07Z</time>
      </trkpt>
      <trkpt lat="43.32771" lon="2.36195">
        <ele>283</ele>
        <time>2020-06-07T11:38:29Z</time>
      </trkpt>
      <trkpt lat="43.32758" lon="2.36218">
        <ele>283</ele>
        <time>2020-06-07T11:38:33Z</time>
      </trkpt>
      <trkpt lat="43.32748" lon="2.36242">
        <ele>283</ele>
        <time>2020-06-07T11:38:36Z</time>
      </trkpt>
      <trkpt lat="43.32732" lon="2.36293">
        <ele>282</ele>
        <time>2020-06-07T11:38:43Z</time>
      </trkpt>
      <trkpt lat="43.32721" lon="2.36345">
        <ele>281</ele>
        <time>2020-06-07T11:38:51Z</time>
      </trkpt>
      <trkpt lat="43.32699" lon="2.36517">
        <ele>278</ele>
        <time>2020-06-07T11:39:13Z</time>
      </trkpt>
      <trkpt lat="43.32695" lon="2.36534">
        <ele>278</ele>
        <time>2020-06-07T11:39:15Z</time>
      </trkpt>
      <trkpt lat="43.32685" lon="2.36559">
        <ele>278</ele>
        <time>2020-06-07T11:39:19Z</time>
      </trkpt>
      <trkpt lat="43.32598" lon="2.36672">
        <ele>279</ele>
        <time>2020-06-07T11:39:40Z</time>
      </trkpt>
      <trkpt lat="43.32569" lon="2.36739">
        <ele>281</ele>
        <time>2020-06-07T11:39:51Z</time>
      </trkpt>
      <trkpt lat="43.32546" lon="2.36772">
        <ele>282</ele>
        <time>2020-06-07T11:39:56Z</time>
      </trkpt>
      <trkpt lat="43.32519" lon="2.36796">
        <ele>283</ele>
        <time>2020-06-07T11:40:02Z</time>
      </trkpt>
      <trkpt lat="43.32441" lon="2.36889">
        <ele>284</ele>
        <time>2020-06-07T11:40:21Z</time>
      </trkpt>
      <trkpt lat="43.32392" lon="2.36952">
        <ele>283</ele>
        <time>2020-06-07T11:40:32Z</time>
      </trkpt>
      <trkpt lat="43.32279" lon="2.36831">
        <ele>272</ele>
        <time>2020-06-07T11:40:58Z</time>
      </trkpt>
      <trkpt lat="43.32255" lon="2.36904">
        <ele>271</ele>
        <time>2020-06-07T11:41:08Z</time>
      </trkpt>
      <trkpt lat="43.32242" lon="2.36974">
        <ele>272</ele>
        <time>2020-06-07T11:41:18Z</time>
      </trkpt>
      <trkpt lat="43.32236" lon="2.36991">
        <ele>272</ele>
        <time>2020-06-07T11:41:20Z</time>
      </trkpt>
      <trkpt lat="43.3223" lon="2.36999">
        <ele>272</ele>
        <time>2020-06-07T11:41:22Z</time>
      </trkpt>
      <trkpt lat="43.32219" lon="2.37004">
        <ele>272</ele>
        <time>2020-06-07T11:41:24Z</time>
      </trkpt>
      <trkpt lat="43.32204" lon="2.37007">
        <ele>271</ele>
        <time>2020-06-07T11:41:26Z</time>
      </trkpt>
      <trkpt lat="43.32148" lon="2.37009">
        <ele>269</ele>
        <time>2020-06-07T11:41:36Z</time>
      </trkpt>
      <trkpt lat="43.32135" lon="2.37011">
        <ele>268</ele>
        <time>2020-06-07T11:41:39Z</time>
      </trkpt>
      <trkpt lat="43.32124" lon="2.37017">
        <ele>268</ele>
        <time>2020-06-07T11:41:41Z</time>
      </trkpt>
      <trkpt lat="43.32113" lon="2.37025">
        <ele>267</ele>
        <time>2020-06-07T11:41:43Z</time>
      </trkpt>
      <trkpt lat="43.32102" lon="2.37039">
        <ele>268</ele>
        <time>2020-06-07T11:41:46Z</time>
      </trkpt>
      <trkpt lat="43.32073" lon="2.37089">
        <ele>269</ele>
        <time>2020-06-07T11:41:54Z</time>
      </trkpt>
      <trkpt lat="43.32064" lon="2.37098">
        <ele>270</ele>
        <time>2020-06-07T11:41:56Z</time>
      </trkpt>
      <trkpt lat="43.32055" lon="2.37102">
        <ele>270</ele>
        <time>2020-06-07T11:41:58Z</time>
      </trkpt>
      <trkpt lat="43.32046" lon="2.371">
        <ele>270</ele>
        <time>2020-06-07T11:41:59Z</time>
      </trkpt>
      <trkpt lat="43.32037" lon="2.37094">
        <ele>269</ele>
        <time>2020-06-07T11:42:01Z</time>
      </trkpt>
      <trkpt lat="43.32016" lon="2.37069">
        <ele>266</ele>
        <time>2020-06-07T11:42:06Z</time>
      </trkpt>
      <trkpt lat="43.32008" lon="2.37067">
        <ele>266</ele>
        <time>2020-06-07T11:42:07Z</time>
      </trkpt>
      <trkpt lat="43.31999" lon="2.37069">
        <ele>266</ele>
        <time>2020-06-07T11:42:09Z</time>
      </trkpt>
      <trkpt lat="43.31973" lon="2.3708">
        <ele>266</ele>
        <time>2020-06-07T11:42:14Z</time>
      </trkpt>
      <trkpt lat="43.31943" lon="2.37099">
        <ele>266</ele>
        <time>2020-06-07T11:42:20Z</time>
      </trkpt>
      <trkpt lat="43.31935" lon="2.37108">
        <ele>266</ele>
        <time>2020-06-07T11:42:22Z</time>
      </trkpt>
      <trkpt lat="43.31927" lon="2.37122">
        <ele>266</ele>
        <time>2020-06-07T11:42:24Z</time>
      </trkpt>
      <trkpt lat="43.31875" lon="2.37239">
        <ele>266</ele>
        <time>2020-06-07T11:42:42Z</time>
      </trkpt>
      <trkpt lat="43.31855" lon="2.37268">
        <ele>266</ele>
        <time>2020-06-07T11:42:47Z</time>
      </trkpt>
      <trkpt lat="43.31846" lon="2.37278">
        <ele>266</ele>
        <time>2020-06-07T11:42:49Z</time>
      </trkpt>
      <trkpt lat="43.31809" lon="2.37303">
        <ele>264</ele>
        <time>2020-06-07T11:42:56Z</time>
      </trkpt>
      <trkpt lat="43.31755" lon="2.37343">
        <ele>263</ele>
        <time>2020-06-07T11:43:07Z</time>
      </trkpt>
      <trkpt lat="43.31703" lon="2.37389">
        <ele>262</ele>
        <time>2020-06-07T11:43:18Z</time>
      </trkpt>
      <trkpt lat="43.31692" lon="2.37401">
        <ele>261</ele>
        <time>2020-06-07T11:43:21Z</time>
      </trkpt>
      <trkpt lat="43.31654" lon="2.37452">
        <ele>261</ele>
        <time>2020-06-07T11:43:30Z</time>
      </trkpt>
      <trkpt lat="43.31645" lon="2.37471">
        <ele>261</ele>
        <time>2020-06-07T11:43:33Z</time>
      </trkpt>
      <trkpt lat="43.31638" lon="2.3749">
        <ele>261</ele>
        <time>2020-06-07T11:43:36Z</time>
      </trkpt>
      <trkpt lat="43.31623" lon="2.37565">
        <ele>261</ele>
        <time>2020-06-07T11:43:46Z</time>
      </trkpt>
      <trkpt lat="43.31611" lon="2.37624">
        <ele>262</ele>
        <time>2020-06-07T11:43:54Z</time>
      </trkpt>
      <trkpt lat="43.31609" lon="2.37636">
        <ele>262</ele>
        <time>2020-06-07T11:43:55Z</time>
      </trkpt>
      <trkpt lat="43.3161" lon="2.37651">
        <ele>262</ele>
        <time>2020-06-07T11:43:57Z</time>
      </trkpt>
      <trkpt lat="43.31612" lon="2.37667">
        <ele>263</ele>
        <time>2020-06-07T11:43:59Z</time>
      </trkpt>
      <trkpt lat="43.31618" lon="2.37683">
        <ele>262</ele>
        <time>2020-06-07T11:44:02Z</time>
      </trkpt>
      <trkpt lat="43.31665" lon="2.37802">
        <ele>255</ele>
        <time>2020-06-07T11:44:19Z</time>
      </trkpt>
      <trkpt lat="43.31667" lon="2.37822">
        <ele>254</ele>
        <time>2020-06-07T11:44:22Z</time>
      </trkpt>
      <trkpt lat="43.31666" lon="2.37841">
        <ele>253</ele>
        <time>2020-06-07T11:44:24Z</time>
      </trkpt>
      <trkpt lat="43.31657" lon="2.37879">
        <ele>251</ele>
        <time>2020-06-07T11:44:29Z</time>
      </trkpt>
      <trkpt lat="43.31641" lon="2.37929">
        <ele>249</ele>
        <time>2020-06-07T11:44:37Z</time>
      </trkpt>
      <trkpt lat="43.31639" lon="2.37936">
        <ele>249</ele>
        <time>2020-06-07T11:44:38Z</time>
      </trkpt>
      <trkpt lat="43.31628" lon="2.37961">
        <ele>248</ele>
        <time>2020-06-07T11:44:41Z</time>
      </trkpt>
      <trkpt lat="43.3162" lon="2.37975">
        <ele>248</ele>
        <time>2020-06-07T11:44:44Z</time>
      </trkpt>
      <trkpt lat="43.31584" lon="2.38007">
        <ele>244</ele>
        <time>2020-06-07T11:44:51Z</time>
      </trkpt>
      <trkpt lat="43.31576" lon="2.38017">
        <ele>244</ele>
        <time>2020-06-07T11:44:53Z</time>
      </trkpt>
      <trkpt lat="43.31569" lon="2.3803">
        <ele>243</ele>
        <time>2020-06-07T11:44:55Z</time>
      </trkpt>
      <trkpt lat="43.31547" lon="2.38081">
        <ele>241</ele>
        <time>2020-06-07T11:45:03Z</time>
      </trkpt>
      <trkpt lat="43.3153" lon="2.38134">
        <ele>239</ele>
        <time>2020-06-07T11:45:10Z</time>
      </trkpt>
      <trkpt lat="43.31525" lon="2.38161">
        <ele>238</ele>
        <time>2020-06-07T11:45:14Z</time>
      </trkpt>
      <trkpt lat="43.31509" lon="2.3828">
        <ele>233</ele>
        <time>2020-06-07T11:45:30Z</time>
      </trkpt>
      <trkpt lat="43.31507" lon="2.38308">
        <ele>233</ele>
        <time>2020-06-07T11:45:33Z</time>
      </trkpt>
      <trkpt lat="43.3151" lon="2.38405">
        <ele>231</ele>
        <time>2020-06-07T11:45:46Z</time>
      </trkpt>
      <trkpt lat="43.31509" lon="2.38428">
        <ele>230</ele>
        <time>2020-06-07T11:45:49Z</time>
      </trkpt>
      <trkpt lat="43.31507" lon="2.38448">
        <ele>229</ele>
        <time>2020-06-07T11:45:52Z</time>
      </trkpt>
      <trkpt lat="43.31501" lon="2.38465">
        <ele>227</ele>
        <time>2020-06-07T11:45:54Z</time>
      </trkpt>
      <trkpt lat="43.31485" lon="2.38496">
        <ele>224</ele>
        <time>2020-06-07T11:45:59Z</time>
      </trkpt>
      <trkpt lat="43.31471" lon="2.38535">
        <ele>223</ele>
        <time>2020-06-07T11:46:05Z</time>
      </trkpt>
      <trkpt lat="43.31445" lon="2.38617">
        <ele>220</ele>
        <time>2020-06-07T11:46:16Z</time>
      </trkpt>
      <trkpt lat="43.31438" lon="2.38651">
        <ele>218</ele>
        <time>2020-06-07T11:46:21Z</time>
      </trkpt>
      <trkpt lat="43.31435" lon="2.38671">
        <ele>217</ele>
        <time>2020-06-07T11:46:23Z</time>
      </trkpt>
      <trkpt lat="43.31434" lon="2.38685">
        <ele>216</ele>
        <time>2020-06-07T11:46:25Z</time>
      </trkpt>
      <trkpt lat="43.31444" lon="2.38794">
        <ele>210</ele>
        <time>2020-06-07T11:46:39Z</time>
      </trkpt>
      <trkpt lat="43.31448" lon="2.38812">
        <ele>209</ele>
        <time>2020-06-07T11:46:42Z</time>
      </trkpt>
      <trkpt lat="43.31461" lon="2.38851">
        <ele>210</ele>
        <time>2020-06-07T11:46:47Z</time>
      </trkpt>
      <trkpt lat="43.31462" lon="2.38862">
        <ele>209</ele>
        <time>2020-06-07T11:46:49Z</time>
      </trkpt>
      <trkpt lat="43.3146" lon="2.38872">
        <ele>208</ele>
        <time>2020-06-07T11:46:50Z</time>
      </trkpt>
      <trkpt lat="43.31453" lon="2.38885">
        <ele>207</ele>
        <time>2020-06-07T11:46:52Z</time>
      </trkpt>
      <trkpt lat="43.31431" lon="2.38921">
        <ele>203</ele>
        <time>2020-06-07T11:46:58Z</time>
      </trkpt>
      <trkpt lat="43.31423" lon="2.38938">
        <ele>202</ele>
        <time>2020-06-07T11:47:01Z</time>
      </trkpt>
      <trkpt lat="43.31417" lon="2.38966">
        <ele>201</ele>
        <time>2020-06-07T11:47:05Z</time>
      </trkpt>
      <trkpt lat="43.31415" lon="2.39004">
        <ele>201</ele>
        <time>2020-06-07T11:47:10Z</time>
      </trkpt>
      <trkpt lat="43.31407" lon="2.39037">
        <ele>199</ele>
        <time>2020-06-07T11:47:14Z</time>
      </trkpt>
      <trkpt lat="43.31392" lon="2.39059">
        <ele>197</ele>
        <time>2020-06-07T11:47:18Z</time>
      </trkpt>
      <trkpt lat="43.31362" lon="2.39097">
        <ele>193</ele>
        <time>2020-06-07T11:47:25Z</time>
      </trkpt>
      <trkpt lat="43.31354" lon="2.39114">
        <ele>191</ele>
        <time>2020-06-07T11:47:28Z</time>
      </trkpt>
      <trkpt lat="43.31354" lon="2.39127">
        <ele>190</ele>
        <time>2020-06-07T11:47:30Z</time>
      </trkpt>
      <trkpt lat="43.3136" lon="2.39141">
        <ele>189</ele>
        <time>2020-06-07T11:47:32Z</time>
      </trkpt>
      <trkpt lat="43.31371" lon="2.3915">
        <ele>188</ele>
        <time>2020-06-07T11:47:34Z</time>
      </trkpt>
      <trkpt lat="43.31382" lon="2.39155">
        <ele>188</ele>
        <time>2020-06-07T11:47:36Z</time>
      </trkpt>
      <trkpt lat="43.31396" lon="2.39155">
        <ele>188</ele>
        <time>2020-06-07T11:47:39Z</time>
      </trkpt>
      <trkpt lat="43.31425" lon="2.3914">
        <ele>190</ele>
        <time>2020-06-07T11:47:44Z</time>
      </trkpt>
      <trkpt lat="43.31443" lon="2.39136">
        <ele>189</ele>
        <time>2020-06-07T11:47:47Z</time>
      </trkpt>
      <trkpt lat="43.31479" lon="2.39145">
        <ele>186</ele>
        <time>2020-06-07T11:47:54Z</time>
      </trkpt>
      <trkpt lat="43.31488" lon="2.39142">
        <ele>186</ele>
        <time>2020-06-07T11:47:55Z</time>
      </trkpt>
      <trkpt lat="43.31497" lon="2.39137">
        <ele>186</ele>
        <time>2020-06-07T11:47:57Z</time>
      </trkpt>
      <trkpt lat="43.31525" lon="2.39107">
        <ele>188</ele>
        <time>2020-06-07T11:48:03Z</time>
      </trkpt>
      <trkpt lat="43.31577" lon="2.39083">
        <ele>186</ele>
        <time>2020-06-07T11:48:13Z</time>
      </trkpt>
      <trkpt lat="43.3161" lon="2.39059">
        <ele>185</ele>
        <time>2020-06-07T11:48:20Z</time>
      </trkpt>
      <trkpt lat="43.31622" lon="2.39045">
        <ele>185</ele>
        <time>2020-06-07T11:48:23Z</time>
      </trkpt>
      <trkpt lat="43.31631" lon="2.39026">
        <ele>186</ele>
        <time>2020-06-07T11:48:26Z</time>
      </trkpt>
      <trkpt lat="43.31645" lon="2.3898">
        <ele>189</ele>
        <time>2020-06-07T11:48:32Z</time>
      </trkpt>
      <trkpt lat="43.31652" lon="2.38972">
        <ele>188</ele>
        <time>2020-06-07T11:48:34Z</time>
      </trkpt>
      <trkpt lat="43.31664" lon="2.38978">
        <ele>185</ele>
        <time>2020-06-07T11:48:36Z</time>
      </trkpt>
      <trkpt lat="43.31654" lon="2.39008">
        <ele>184</ele>
        <time>2020-06-07T11:48:40Z</time>
      </trkpt>
      <trkpt lat="43.3164" lon="2.39042">
        <ele>183</ele>
        <time>2020-06-07T11:48:45Z</time>
      </trkpt>
      <trkpt lat="43.31622" lon="2.39076">
        <ele>182</ele>
        <time>2020-06-07T11:48:51Z</time>
      </trkpt>
      <trkpt lat="43.31523" lon="2.39171">
        <ele>179</ele>
        <time>2020-06-07T11:49:12Z</time>
      </trkpt>
      <trkpt lat="43.31489" lon="2.39199">
        <ele>177</ele>
        <time>2020-06-07T11:49:19Z</time>
      </trkpt>
      <trkpt lat="43.31429" lon="2.39236">
        <ele>178</ele>
        <time>2020-06-07T11:49:31Z</time>
      </trkpt>
      <trkpt lat="43.31398" lon="2.39265">
        <ele>177</ele>
        <time>2020-06-07T11:49:38Z</time>
      </trkpt>
      <trkpt lat="43.31383" lon="2.39287">
        <ele>176</ele>
        <time>2020-06-07T11:49:42Z</time>
      </trkpt>
      <trkpt lat="43.31353" lon="2.39336">
        <ele>174</ele>
        <time>2020-06-07T11:49:50Z</time>
      </trkpt>
      <trkpt lat="43.31335" lon="2.39374">
        <ele>173</ele>
        <time>2020-06-07T11:49:56Z</time>
      </trkpt>
      <trkpt lat="43.31322" lon="2.39387">
        <ele>172</ele>
        <time>2020-06-07T11:49:59Z</time>
      </trkpt>
      <trkpt lat="43.31312" lon="2.39393">
        <ele>171</ele>
        <time>2020-06-07T11:50:01Z</time>
      </trkpt>
      <trkpt lat="43.31251" lon="2.39394">
        <ele>168</ele>
        <time>2020-06-07T11:50:11Z</time>
      </trkpt>
      <trkpt lat="43.312" lon="2.39391">
        <ele>168</ele>
        <time>2020-06-07T11:50:20Z</time>
      </trkpt>
      <trkpt lat="43.31178" lon="2.39382">
        <ele>169</ele>
        <time>2020-06-07T11:50:25Z</time>
      </trkpt>
      <trkpt lat="43.3112" lon="2.3935">
        <ele>169</ele>
        <time>2020-06-07T11:50:36Z</time>
      </trkpt>
      <trkpt lat="43.31055" lon="2.39321">
        <ele>166</ele>
        <time>2020-06-07T11:50:48Z</time>
      </trkpt>
      <trkpt lat="43.31036" lon="2.3931">
        <ele>166</ele>
        <time>2020-06-07T11:50:51Z</time>
      </trkpt>
      <trkpt lat="43.31017" lon="2.39291">
        <ele>166</ele>
        <time>2020-06-07T11:50:56Z</time>
      </trkpt>
      <trkpt lat="43.30995" lon="2.39273">
        <ele>166</ele>
        <time>2020-06-07T11:51:00Z</time>
      </trkpt>
      <trkpt lat="43.30978" lon="2.39264">
        <ele>167</ele>
        <time>2020-06-07T11:51:03Z</time>
      </trkpt>
      <trkpt lat="43.30963" lon="2.39258">
        <ele>168</ele>
        <time>2020-06-07T11:51:06Z</time>
      </trkpt>
      <trkpt lat="43.30943" lon="2.39256">
        <ele>169</ele>
        <time>2020-06-07T11:51:10Z</time>
      </trkpt>
      <trkpt lat="43.30906" lon="2.3926">
        <ele>169</ele>
        <time>2020-06-07T11:51:16Z</time>
      </trkpt>
      <trkpt lat="43.30884" lon="2.3926">
        <ele>168</ele>
        <time>2020-06-07T11:51:20Z</time>
      </trkpt>
      <trkpt lat="43.30861" lon="2.39259">
        <ele>168</ele>
        <time>2020-06-07T11:51:24Z</time>
      </trkpt>
      <trkpt lat="43.30825" lon="2.39252">
        <ele>167</ele>
        <time>2020-06-07T11:51:31Z</time>
      </trkpt>
      <trkpt lat="43.30764" lon="2.39229">
        <ele>165</ele>
        <time>2020-06-07T11:51:42Z</time>
      </trkpt>
      <trkpt lat="43.30746" lon="2.3923">
        <ele>164</ele>
        <time>2020-06-07T11:51:45Z</time>
      </trkpt>
      <trkpt lat="43.30733" lon="2.39235">
        <ele>164</ele>
        <time>2020-06-07T11:51:48Z</time>
      </trkpt>
      <trkpt lat="43.30654" lon="2.39292">
        <ele>162</ele>
        <time>2020-06-07T11:52:04Z</time>
      </trkpt>
      <trkpt lat="43.30611" lon="2.3933">
        <ele>161</ele>
        <time>2020-06-07T11:52:13Z</time>
      </trkpt>
      <trkpt lat="43.30591" lon="2.39344">
        <ele>161</ele>
        <time>2020-06-07T11:52:17Z</time>
      </trkpt>
      <trkpt lat="43.30563" lon="2.39356">
        <ele>161</ele>
        <time>2020-06-07T11:52:22Z</time>
      </trkpt>
      <trkpt lat="43.30534" lon="2.39364">
        <ele>161</ele>
        <time>2020-06-07T11:52:27Z</time>
      </trkpt>
      <trkpt lat="43.30485" lon="2.39367">
        <ele>164</ele>
        <time>2020-06-07T11:52:36Z</time>
      </trkpt>
      <trkpt lat="43.30481" lon="2.39368">
        <ele>164</ele>
        <time>2020-06-07T11:52:37Z</time>
      </trkpt>
      <trkpt lat="43.30456" lon="2.3937">
        <ele>167</ele>
        <time>2020-06-07T11:52:41Z</time>
      </trkpt>
      <trkpt lat="43.30435" lon="2.39376">
        <ele>168</ele>
        <time>2020-06-07T11:52:45Z</time>
      </trkpt>
      <trkpt lat="43.30327" lon="2.39422">
        <ele>167</ele>
        <time>2020-06-07T11:53:05Z</time>
      </trkpt>
      <trkpt lat="43.30298" lon="2.3943">
        <ele>167</ele>
        <time>2020-06-07T11:53:10Z</time>
      </trkpt>
      <trkpt lat="43.30205" lon="2.39448">
        <ele>168</ele>
        <time>2020-06-07T11:53:27Z</time>
      </trkpt>
      <trkpt lat="43.30142" lon="2.39457">
        <ele>168</ele>
        <time>2020-06-07T11:53:38Z</time>
      </trkpt>
      <trkpt lat="43.30117" lon="2.39464">
        <ele>167</ele>
        <time>2020-06-07T11:53:43Z</time>
      </trkpt>
      <trkpt lat="43.30112" lon="2.39465">
        <ele>167</ele>
        <time>2020-06-07T11:53:44Z</time>
      </trkpt>
      <trkpt lat="43.30087" lon="2.39481">
        <ele>165</ele>
        <time>2020-06-07T11:53:49Z</time>
      </trkpt>
      <trkpt lat="43.30073" lon="2.39496">
        <ele>163</ele>
        <time>2020-06-07T11:53:52Z</time>
      </trkpt>
      <trkpt lat="43.30037" lon="2.39525">
        <ele>161</ele>
        <time>2020-06-07T11:53:59Z</time>
      </trkpt>
      <trkpt lat="43.30019" lon="2.39538">
        <ele>160</ele>
        <time>2020-06-07T11:54:03Z</time>
      </trkpt>
      <trkpt lat="43.29992" lon="2.39552">
        <ele>160</ele>
        <time>2020-06-07T11:54:08Z</time>
      </trkpt>
      <trkpt lat="43.29964" lon="2.39563">
        <ele>161</ele>
        <time>2020-06-07T11:54:13Z</time>
      </trkpt>
      <trkpt lat="43.29927" lon="2.39586">
        <ele>162</ele>
        <time>2020-06-07T11:54:20Z</time>
      </trkpt>
      <trkpt lat="43.29901" lon="2.39608">
        <ele>164</ele>
        <time>2020-06-07T11:54:26Z</time>
      </trkpt>
      <trkpt lat="43.29875" lon="2.39638">
        <ele>165</ele>
        <time>2020-06-07T11:54:32Z</time>
      </trkpt>
      <trkpt lat="43.2984" lon="2.39706">
        <ele>165</ele>
        <time>2020-06-07T11:54:43Z</time>
      </trkpt>
      <trkpt lat="43.29831" lon="2.39724">
        <ele>166</ele>
        <time>2020-06-07T11:54:45Z</time>
      </trkpt>
      <trkpt lat="43.29797" lon="2.39789">
        <ele>169</ele>
        <time>2020-06-07T11:54:56Z</time>
      </trkpt>
      <trkpt lat="43.29736" lon="2.39879">
        <ele>167</ele>
        <time>2020-06-07T11:55:12Z</time>
      </trkpt>
      <trkpt lat="43.29711" lon="2.39938">
        <ele>166</ele>
        <time>2020-06-07T11:55:21Z</time>
      </trkpt>
      <trkpt lat="43.29668" lon="2.40021">
        <ele>165</ele>
        <time>2020-06-07T11:55:34Z</time>
      </trkpt>
      <trkpt lat="43.29641" lon="2.40052">
        <ele>164</ele>
        <time>2020-06-07T11:55:40Z</time>
      </trkpt>
      <trkpt lat="43.29625" lon="2.40066">
        <ele>164</ele>
        <time>2020-06-07T11:55:43Z</time>
      </trkpt>
      <trkpt lat="43.29592" lon="2.40088">
        <ele>164</ele>
        <time>2020-06-07T11:55:50Z</time>
      </trkpt>
      <trkpt lat="43.29579" lon="2.40104">
        <ele>164</ele>
        <time>2020-06-07T11:55:53Z</time>
      </trkpt>
      <trkpt lat="43.29553" lon="2.40148">
        <ele>160</ele>
        <time>2020-06-07T11:56:00Z</time>
      </trkpt>
      <trkpt lat="43.29539" lon="2.40162">
        <ele>159</ele>
        <time>2020-06-07T11:56:03Z</time>
      </trkpt>
      <trkpt lat="43.29529" lon="2.40167">
        <ele>160</ele>
        <time>2020-06-07T11:56:05Z</time>
      </trkpt>
      <trkpt lat="43.29516" lon="2.40169">
        <ele>160</ele>
        <time>2020-06-07T11:56:08Z</time>
      </trkpt>
      <trkpt lat="43.29478" lon="2.4016">
        <ele>162</ele>
        <time>2020-06-07T11:56:15Z</time>
      </trkpt>
      <trkpt lat="43.29468" lon="2.40161">
        <ele>162</ele>
        <time>2020-06-07T11:56:16Z</time>
      </trkpt>
      <trkpt lat="43.29412" lon="2.40184">
        <ele>158</ele>
        <time>2020-06-07T11:56:27Z</time>
      </trkpt>
      <trkpt lat="43.29333" lon="2.40223">
        <ele>157</ele>
        <time>2020-06-07T11:56:42Z</time>
      </trkpt>
      <trkpt lat="43.29294" lon="2.40233">
        <ele>156</ele>
        <time>2020-06-07T11:56:49Z</time>
      </trkpt>
      <trkpt lat="43.2926" lon="2.4023">
        <ele>156</ele>
        <time>2020-06-07T11:56:55Z</time>
      </trkpt>
      <trkpt lat="43.29236" lon="2.40221">
        <ele>155</ele>
        <time>2020-06-07T11:56:59Z</time>
      </trkpt>
      <trkpt lat="43.29196" lon="2.40199">
        <ele>154</ele>
        <time>2020-06-07T11:57:07Z</time>
      </trkpt>
      <trkpt lat="43.29164" lon="2.40177">
        <ele>154</ele>
        <time>2020-06-07T11:57:13Z</time>
      </trkpt>
      <trkpt lat="43.2912" lon="2.40144">
        <ele>152</ele>
        <time>2020-06-07T11:57:22Z</time>
      </trkpt>
      <trkpt lat="43.29089" lon="2.40117">
        <ele>151</ele>
        <time>2020-06-07T11:57:29Z</time>
      </trkpt>
      <trkpt lat="43.29072" lon="2.40099">
        <ele>150</ele>
        <time>2020-06-07T11:57:33Z</time>
      </trkpt>
      <trkpt lat="43.29017" lon="2.40025">
        <ele>151</ele>
        <time>2020-06-07T11:57:46Z</time>
      </trkpt>
      <trkpt lat="43.29002" lon="2.4001">
        <ele>151</ele>
        <time>2020-06-07T11:57:50Z</time>
      </trkpt>
      <trkpt lat="43.28951" lon="2.39972">
        <ele>150</ele>
        <time>2020-06-07T11:58:00Z</time>
      </trkpt>
      <trkpt lat="43.28941" lon="2.39967">
        <ele>150</ele>
        <time>2020-06-07T11:58:02Z</time>
      </trkpt>
      <trkpt lat="43.28926" lon="2.39963">
        <ele>149</ele>
        <time>2020-06-07T11:58:04Z</time>
      </trkpt>
      <trkpt lat="43.28859" lon="2.3997">
        <ele>148</ele>
        <time>2020-06-07T11:58:16Z</time>
      </trkpt>
      <trkpt lat="43.28718" lon="2.39979">
        <ele>151</ele>
        <time>2020-06-07T11:58:42Z</time>
      </trkpt>
      <trkpt lat="43.28701" lon="2.39982">
        <ele>151</ele>
        <time>2020-06-07T11:58:45Z</time>
      </trkpt>
      <trkpt lat="43.28682" lon="2.39991">
        <ele>151</ele>
        <time>2020-06-07T11:58:48Z</time>
      </trkpt>
      <trkpt lat="43.28664" lon="2.40005">
        <ele>151</ele>
        <time>2020-06-07T11:58:52Z</time>
      </trkpt>
      <trkpt lat="43.28652" lon="2.4002">
        <ele>150</ele>
        <time>2020-06-07T11:58:55Z</time>
      </trkpt>
      <trkpt lat="43.28641" lon="2.40041">
        <ele>149</ele>
        <time>2020-06-07T11:58:58Z</time>
      </trkpt>
      <trkpt lat="43.28617" lon="2.40114">
        <ele>145</ele>
        <time>2020-06-07T11:59:08Z</time>
      </trkpt>
      <trkpt lat="43.28609" lon="2.40129">
        <ele>145</ele>
        <time>2020-06-07T11:59:11Z</time>
      </trkpt>
      <trkpt lat="43.28597" lon="2.40141">
        <ele>144</ele>
        <time>2020-06-07T11:59:14Z</time>
      </trkpt>
      <trkpt lat="43.28583" lon="2.40147">
        <ele>144</ele>
        <time>2020-06-07T11:59:16Z</time>
      </trkpt>
      <trkpt lat="43.28569" lon="2.40145">
        <ele>144</ele>
        <time>2020-06-07T11:59:19Z</time>
      </trkpt>
      <trkpt lat="43.28532" lon="2.40132">
        <ele>143</ele>
        <time>2020-06-07T11:59:25Z</time>
      </trkpt>
      <trkpt lat="43.28485" lon="2.40114">
        <ele>141</ele>
        <time>2020-06-07T11:59:34Z</time>
      </trkpt>
      <trkpt lat="43.28411" lon="2.40096">
        <ele>139</ele>
        <time>2020-06-07T11:59:47Z</time>
      </trkpt>
      <trkpt lat="43.28401" lon="2.40094">
        <ele>138</ele>
        <time>2020-06-07T11:59:49Z</time>
      </trkpt>
      <trkpt lat="43.28322" lon="2.40079">
        <ele>135</ele>
        <time>2020-06-07T12:00:03Z</time>
      </trkpt>
      <trkpt lat="43.2831" lon="2.40077">
        <ele>135</ele>
        <time>2020-06-07T12:00:06Z</time>
      </trkpt>
      <trkpt lat="43.28252" lon="2.40071">
        <ele>134</ele>
        <time>2020-06-07T12:00:16Z</time>
      </trkpt>
      <trkpt lat="43.28234" lon="2.40074">
        <ele>134</ele>
        <time>2020-06-07T12:00:19Z</time>
      </trkpt>
      <trkpt lat="43.28193" lon="2.40098">
        <ele>133</ele>
        <time>2020-06-07T12:00:27Z</time>
      </trkpt>
      <trkpt lat="43.28155" lon="2.40118">
        <ele>132</ele>
        <time>2020-06-07T12:00:34Z</time>
      </trkpt>
      <trkpt lat="43.2814" lon="2.40124">
        <ele>132</ele>
        <time>2020-06-07T12:00:37Z</time>
      </trkpt>
      <trkpt lat="43.28122" lon="2.40126">
        <ele>132</ele>
        <time>2020-06-07T12:00:40Z</time>
      </trkpt>
      <trkpt lat="43.28097" lon="2.40125">
        <ele>131</ele>
        <time>2020-06-07T12:00:45Z</time>
      </trkpt>
      <trkpt lat="43.28017" lon="2.40108">
        <ele>130</ele>
        <time>2020-06-07T12:00:59Z</time>
      </trkpt>
      <trkpt lat="43.27955" lon="2.401">
        <ele>130</ele>
        <time>2020-06-07T12:01:10Z</time>
      </trkpt>
      <trkpt lat="43.2791" lon="2.40092">
        <ele>130</ele>
        <time>2020-06-07T12:01:18Z</time>
      </trkpt>
      <trkpt lat="43.27833" lon="2.40078">
        <ele>130</ele>
        <time>2020-06-07T12:01:32Z</time>
      </trkpt>
      <trkpt lat="43.27752" lon="2.40061">
        <ele>129</ele>
        <time>2020-06-07T12:01:47Z</time>
      </trkpt>
      <trkpt lat="43.27669" lon="2.40044">
        <ele>127</ele>
        <time>2020-06-07T12:02:02Z</time>
      </trkpt>
      <trkpt lat="43.27584" lon="2.40027">
        <ele>126</ele>
        <time>2020-06-07T12:02:17Z</time>
      </trkpt>
      <trkpt lat="43.27551" lon="2.40014">
        <ele>126</ele>
        <time>2020-06-07T12:02:23Z</time>
      </trkpt>
      <trkpt lat="43.27516" lon="2.39991">
        <ele>127</ele>
        <time>2020-06-07T12:02:30Z</time>
      </trkpt>
      <trkpt lat="43.27499" lon="2.39977">
        <ele>127</ele>
        <time>2020-06-07T12:02:34Z</time>
      </trkpt>
      <trkpt lat="43.27483" lon="2.39958">
        <ele>127</ele>
        <time>2020-06-07T12:02:37Z</time>
      </trkpt>
      <trkpt lat="43.27453" lon="2.39917">
        <ele>126</ele>
        <time>2020-06-07T12:02:45Z</time>
      </trkpt>
      <trkpt lat="43.27449" lon="2.39909">
        <ele>126</ele>
        <time>2020-06-07T12:02:46Z</time>
      </trkpt>
      <trkpt lat="43.27447" lon="2.39904">
        <ele>127</ele>
        <time>2020-06-07T12:02:47Z</time>
      </trkpt>
      <trkpt lat="43.27436" lon="2.39882">
        <ele>127</ele>
        <time>2020-06-07T12:02:50Z</time>
      </trkpt>
      <trkpt lat="43.27384" lon="2.39742">
        <ele>125</ele>
        <time>2020-06-07T12:03:11Z</time>
      </trkpt>
      <trkpt lat="43.27363" lon="2.397">
        <ele>125</ele>
        <time>2020-06-07T12:03:17Z</time>
      </trkpt>
      <trkpt lat="43.27351" lon="2.39682">
        <ele>124</ele>
        <time>2020-06-07T12:03:20Z</time>
      </trkpt>
      <trkpt lat="43.27326" lon="2.39651">
        <ele>124</ele>
        <time>2020-06-07T12:03:26Z</time>
      </trkpt>
      <trkpt lat="43.27309" lon="2.39635">
        <ele>125</ele>
        <time>2020-06-07T12:03:30Z</time>
      </trkpt>
      <trkpt lat="43.27298" lon="2.39625">
        <ele>125</ele>
        <time>2020-06-07T12:03:32Z</time>
      </trkpt>
      <trkpt lat="43.27278" lon="2.39612">
        <ele>125</ele>
        <time>2020-06-07T12:03:36Z</time>
      </trkpt>
      <trkpt lat="43.27239" lon="2.39596">
        <ele>126</ele>
        <time>2020-06-07T12:03:44Z</time>
      </trkpt>
      <trkpt lat="43.2717" lon="2.39574">
        <ele>126</ele>
        <time>2020-06-07T12:03:56Z</time>
      </trkpt>
      <trkpt lat="43.27091" lon="2.39553">
        <ele>126</ele>
        <time>2020-06-07T12:04:10Z</time>
      </trkpt>
      <trkpt lat="43.27083" lon="2.3955">
        <ele>125</ele>
        <time>2020-06-07T12:04:12Z</time>
      </trkpt>
      <trkpt lat="43.27051" lon="2.39551">
        <ele>125</ele>
        <time>2020-06-07T12:04:18Z</time>
      </trkpt>
      <trkpt lat="43.27032" lon="2.39554">
        <ele>125</ele>
        <time>2020-06-07T12:04:21Z</time>
      </trkpt>
      <trkpt lat="43.27019" lon="2.39556">
        <ele>125</ele>
        <time>2020-06-07T12:04:23Z</time>
      </trkpt>
      <trkpt lat="43.26995" lon="2.39564">
        <ele>125</ele>
        <time>2020-06-07T12:04:28Z</time>
      </trkpt>
      <trkpt lat="43.2697" lon="2.39579">
        <ele>127</ele>
        <time>2020-06-07T12:04:33Z</time>
      </trkpt>
      <trkpt lat="43.2695" lon="2.39594">
        <ele>128</ele>
        <time>2020-06-07T12:04:37Z</time>
      </trkpt>
      <trkpt lat="43.26931" lon="2.39611">
        <ele>128</ele>
        <time>2020-06-07T12:04:41Z</time>
      </trkpt>
      <trkpt lat="43.26867" lon="2.39671">
        <ele>128</ele>
        <time>2020-06-07T12:04:55Z</time>
      </trkpt>
      <trkpt lat="43.26867" lon="2.39648">
        <ele>129</ele>
        <time>2020-06-07T12:04:57Z</time>
      </trkpt>
      <trkpt lat="43.26902" lon="2.396">
        <ele>130</ele>
        <time>2020-06-07T12:05:06Z</time>
      </trkpt>
      <trkpt lat="43.26912" lon="2.39578">
        <ele>131</ele>
        <time>2020-06-07T12:05:10Z</time>
      </trkpt>
      <trkpt lat="43.26916" lon="2.39535">
        <ele>131</ele>
        <time>2020-06-07T12:05:15Z</time>
      </trkpt>
      <trkpt lat="43.26929" lon="2.39466">
        <ele>131</ele>
        <time>2020-06-07T12:05:25Z</time>
      </trkpt>
      <trkpt lat="43.26933" lon="2.39386">
        <ele>133</ele>
        <time>2020-06-07T12:05:35Z</time>
      </trkpt>
      <trkpt lat="43.26942" lon="2.39334">
        <ele>134</ele>
        <time>2020-06-07T12:05:42Z</time>
      </trkpt>
      <trkpt lat="43.26961" lon="2.39242">
        <ele>140</ele>
        <time>2020-06-07T12:05:54Z</time>
      </trkpt>
      <trkpt lat="43.26965" lon="2.39165">
        <ele>145</ele>
        <time>2020-06-07T12:06:04Z</time>
      </trkpt>
      <trkpt lat="43.26974" lon="2.39144">
        <ele>145</ele>
        <time>2020-06-07T12:06:07Z</time>
      </trkpt>
      <trkpt lat="43.27007" lon="2.39107">
        <ele>145</ele>
        <time>2020-06-07T12:06:15Z</time>
      </trkpt>
      <trkpt lat="43.27035" lon="2.39083">
        <ele>144</ele>
        <time>2020-06-07T12:06:21Z</time>
      </trkpt>
      <trkpt lat="43.27046" lon="2.39055">
        <ele>146</ele>
        <time>2020-06-07T12:06:25Z</time>
      </trkpt>
      <trkpt lat="43.27068" lon="2.38893">
        <ele>152</ele>
        <time>2020-06-07T12:06:46Z</time>
      </trkpt>
      <trkpt lat="43.2707" lon="2.38825">
        <ele>151</ele>
        <time>2020-06-07T12:06:55Z</time>
      </trkpt>
      <trkpt lat="43.27067" lon="2.38728">
        <ele>147</ele>
        <time>2020-06-07T12:07:08Z</time>
      </trkpt>
      <trkpt lat="43.2707" lon="2.38569">
        <ele>143</ele>
        <time>2020-06-07T12:07:28Z</time>
      </trkpt>
      <trkpt lat="43.27084" lon="2.38375">
        <ele>141</ele>
        <time>2020-06-07T12:07:54Z</time>
      </trkpt>
      <trkpt lat="43.2707" lon="2.38569">
        <ele>143</ele>
        <time>2020-06-07T12:08:19Z</time>
      </trkpt>
      <trkpt lat="43.27067" lon="2.38728">
        <ele>147</ele>
        <time>2020-06-07T12:08:39Z</time>
      </trkpt>
      <trkpt lat="43.2707" lon="2.38825">
        <ele>151</ele>
        <time>2020-06-07T12:08:52Z</time>
      </trkpt>
      <trkpt lat="43.27068" lon="2.38893">
        <ele>152</ele>
        <time>2020-06-07T12:09:01Z</time>
      </trkpt>
      <trkpt lat="43.27046" lon="2.39055">
        <ele>146</ele>
        <time>2020-06-07T12:09:22Z</time>
      </trkpt>
      <trkpt lat="43.27035" lon="2.39083">
        <ele>144</ele>
        <time>2020-06-07T12:09:26Z</time>
      </trkpt>
      <trkpt lat="43.27007" lon="2.39107">
        <ele>145</ele>
        <time>2020-06-07T12:09:32Z</time>
      </trkpt>
      <trkpt lat="43.26974" lon="2.39144">
        <ele>145</ele>
        <time>2020-06-07T12:09:40Z</time>
      </trkpt>
      <trkpt lat="43.26965" lon="2.39165">
        <ele>145</ele>
        <time>2020-06-07T12:09:43Z</time>
      </trkpt>
      <trkpt lat="43.26961" lon="2.39242">
        <ele>140</ele>
        <time>2020-06-07T12:09:53Z</time>
      </trkpt>
      <trkpt lat="43.26942" lon="2.39334">
        <ele>134</ele>
        <time>2020-06-07T12:10:05Z</time>
      </trkpt>
      <trkpt lat="43.26933" lon="2.39386">
        <ele>133</ele>
        <time>2020-06-07T12:10:12Z</time>
      </trkpt>
      <trkpt lat="43.26929" lon="2.39466">
        <ele>131</ele>
        <time>2020-06-07T12:10:23Z</time>
      </trkpt>
      <trkpt lat="43.26916" lon="2.39535">
        <ele>131</ele>
        <time>2020-06-07T12:10:32Z</time>
      </trkpt>
      <trkpt lat="43.26912" lon="2.39578">
        <ele>131</ele>
        <time>2020-06-07T12:10:37Z</time>
      </trkpt>
      <trkpt lat="43.26902" lon="2.396">
        <ele>130</ele>
        <time>2020-06-07T12:10:41Z</time>
      </trkpt>
      <trkpt lat="43.26867" lon="2.39648">
        <ele>129</ele>
        <time>2020-06-07T12:10:50Z</time>
      </trkpt>
      <trkpt lat="43.26867" lon="2.39671">
        <ele>128</ele>
        <time>2020-06-07T12:10:53Z</time>
      </trkpt>
      <trkpt lat="43.26814" lon="2.39723">
        <ele>127</ele>
        <time>2020-06-07T12:11:04Z</time>
      </trkpt>
      <trkpt lat="43.26776" lon="2.39752">
        <ele>125</ele>
        <time>2020-06-07T12:11:12Z</time>
      </trkpt>
      <trkpt lat="43.26734" lon="2.3977">
        <ele>125</ele>
        <time>2020-06-07T12:11:20Z</time>
      </trkpt>
      <trkpt lat="43.26753" lon="2.39799">
        <ele>123</ele>
        <time>2020-06-07T12:11:25Z</time>
      </trkpt>
      <trkpt lat="43.2677" lon="2.39826">
        <ele>123</ele>
        <time>2020-06-07T12:11:29Z</time>
      </trkpt>
      <trkpt lat="43.26771" lon="2.39829">
        <ele>123</ele>
        <time>2020-06-07T12:11:30Z</time>
      </trkpt>
      <trkpt lat="43.26799" lon="2.39867">
        <ele>123</ele>
        <time>2020-06-07T12:11:37Z</time>
      </trkpt>
      <trkpt lat="43.26809" lon="2.39883">
        <ele>123</ele>
        <time>2020-06-07T12:11:40Z</time>
      </trkpt>
      <trkpt lat="43.26827" lon="2.39909">
        <ele>124</ele>
        <time>2020-06-07T12:11:44Z</time>
      </trkpt>
      <trkpt lat="43.26831" lon="2.39914">
        <ele>124</ele>
        <time>2020-06-07T12:11:45Z</time>
      </trkpt>
      <trkpt lat="43.26843" lon="2.39953">
        <ele>126</ele>
        <time>2020-06-07T12:11:51Z</time>
      </trkpt>
      <trkpt lat="43.26843" lon="2.4">
        <ele>128</ele>
        <time>2020-06-07T12:11:57Z</time>
      </trkpt>
      <trkpt lat="43.26831" lon="2.40028">
        <ele>130</ele>
        <time>2020-06-07T12:12:01Z</time>
      </trkpt>
      <trkpt lat="43.26829" lon="2.40033">
        <ele>130</ele>
        <time>2020-06-07T12:12:02Z</time>
      </trkpt>
      <trkpt lat="43.26756" lon="2.40071">
        <ele>126</ele>
        <time>2020-06-07T12:12:16Z</time>
      </trkpt>
      <trkpt lat="43.26726" lon="2.40084">
        <ele>126</ele>
        <time>2020-06-07T12:12:21Z</time>
      </trkpt>
      <trkpt lat="43.26691" lon="2.40088">
        <ele>126</ele>
        <time>2020-06-07T12:12:27Z</time>
      </trkpt>
      <trkpt lat="43.26683" lon="2.40091">
        <ele>126</ele>
        <time>2020-06-07T12:12:29Z</time>
      </trkpt>
      <trkpt lat="43.26671" lon="2.40091">
        <ele>126</ele>
        <time>2020-06-07T12:12:31Z</time>
      </trkpt>
      <trkpt lat="43.26653" lon="2.40095">
        <ele>126</ele>
        <time>2020-06-07T12:12:34Z</time>
      </trkpt>
      <trkpt lat="43.2664" lon="2.40103">
        <ele>126</ele>
        <time>2020-06-07T12:12:37Z</time>
      </trkpt>
      <trkpt lat="43.26628" lon="2.40122">
        <ele>127</ele>
        <time>2020-06-07T12:12:40Z</time>
      </trkpt>
      <trkpt lat="43.26586" lon="2.40213">
        <ele>129</ele>
        <time>2020-06-07T12:12:54Z</time>
      </trkpt>
      <trkpt lat="43.26547" lon="2.40282">
        <ele>131</ele>
        <time>2020-06-07T12:13:05Z</time>
      </trkpt>
      <trkpt lat="43.26534" lon="2.40302">
        <ele>132</ele>
        <time>2020-06-07T12:13:09Z</time>
      </trkpt>
      <trkpt lat="43.26529" lon="2.40315">
        <ele>132</ele>
        <time>2020-06-07T12:13:11Z</time>
      </trkpt>
      <trkpt lat="43.26527" lon="2.40332">
        <ele>132</ele>
        <time>2020-06-07T12:13:13Z</time>
      </trkpt>
      <trkpt lat="43.26518" lon="2.40353">
        <ele>132</ele>
        <time>2020-06-07T12:13:16Z</time>
      </trkpt>
      <trkpt lat="43.26512" lon="2.40365">
        <ele>132</ele>
        <time>2020-06-07T12:13:18Z</time>
      </trkpt>
      <trkpt lat="43.26457" lon="2.40493">
        <ele>127</ele>
        <time>2020-06-07T12:13:37Z</time>
      </trkpt>
      <trkpt lat="43.26443" lon="2.4052">
        <ele>126</ele>
        <time>2020-06-07T12:13:42Z</time>
      </trkpt>
      <trkpt lat="43.26429" lon="2.40546">
        <ele>125</ele>
        <time>2020-06-07T12:13:46Z</time>
      </trkpt>
      <trkpt lat="43.26426" lon="2.40551">
        <ele>125</ele>
        <time>2020-06-07T12:13:47Z</time>
      </trkpt>
      <trkpt lat="43.26411" lon="2.40572">
        <ele>125</ele>
        <time>2020-06-07T12:13:50Z</time>
      </trkpt>
      <trkpt lat="43.2639" lon="2.40603">
        <ele>125</ele>
        <time>2020-06-07T12:13:56Z</time>
      </trkpt>
      <trkpt lat="43.26371" lon="2.40625">
        <ele>125</ele>
        <time>2020-06-07T12:14:00Z</time>
      </trkpt>
      <trkpt lat="43.26349" lon="2.40646">
        <ele>124</ele>
        <time>2020-06-07T12:14:05Z</time>
      </trkpt>
      <trkpt lat="43.26338" lon="2.40657">
        <ele>124</ele>
        <time>2020-06-07T12:14:08Z</time>
      </trkpt>
      <trkpt lat="43.26328" lon="2.40668">
        <ele>124</ele>
        <time>2020-06-07T12:14:10Z</time>
      </trkpt>
      <trkpt lat="43.26309" lon="2.40691">
        <ele>124</ele>
        <time>2020-06-07T12:14:14Z</time>
      </trkpt>
      <trkpt lat="43.26288" lon="2.40708">
        <ele>124</ele>
        <time>2020-06-07T12:14:19Z</time>
      </trkpt>
      <trkpt lat="43.26197" lon="2.40764">
        <ele>128</ele>
        <time>2020-06-07T12:14:36Z</time>
      </trkpt>
      <trkpt lat="43.26176" lon="2.40778">
        <ele>129</ele>
        <time>2020-06-07T12:14:41Z</time>
      </trkpt>
      <trkpt lat="43.26161" lon="2.40788">
        <ele>130</ele>
        <time>2020-06-07T12:14:44Z</time>
      </trkpt>
      <trkpt lat="43.26134" lon="2.40819">
        <ele>129</ele>
        <time>2020-06-07T12:14:50Z</time>
      </trkpt>
      <trkpt lat="43.26091" lon="2.40872">
        <ele>127</ele>
        <time>2020-06-07T12:15:00Z</time>
      </trkpt>
      <trkpt lat="43.26087" lon="2.40878">
        <ele>126</ele>
        <time>2020-06-07T12:15:01Z</time>
      </trkpt>
      <trkpt lat="43.25996" lon="2.41">
        <ele>124</ele>
        <time>2020-06-07T12:15:24Z</time>
      </trkpt>
      <trkpt lat="43.25984" lon="2.41025">
        <ele>124</ele>
        <time>2020-06-07T12:15:28Z</time>
      </trkpt>
      <trkpt lat="43.25982" lon="2.41054">
        <ele>124</ele>
        <time>2020-06-07T12:15:31Z</time>
      </trkpt>
      <trkpt lat="43.25984" lon="2.41095">
        <ele>124</ele>
        <time>2020-06-07T12:15:37Z</time>
      </trkpt>
      <trkpt lat="43.25983" lon="2.41131">
        <ele>124</ele>
        <time>2020-06-07T12:15:41Z</time>
      </trkpt>
      <trkpt lat="43.25976" lon="2.41167">
        <ele>125</ele>
        <time>2020-06-07T12:15:46Z</time>
      </trkpt>
      <trkpt lat="43.25962" lon="2.41202">
        <ele>125</ele>
        <time>2020-06-07T12:15:51Z</time>
      </trkpt>
      <trkpt lat="43.25946" lon="2.41233">
        <ele>125</ele>
        <time>2020-06-07T12:15:56Z</time>
      </trkpt>
      <trkpt lat="43.25929" lon="2.41255">
        <ele>125</ele>
        <time>2020-06-07T12:16:00Z</time>
      </trkpt>
      <trkpt lat="43.25914" lon="2.41272">
        <ele>126</ele>
        <time>2020-06-07T12:16:04Z</time>
      </trkpt>
      <trkpt lat="43.25898" lon="2.41284">
        <ele>125</ele>
        <time>2020-06-07T12:16:07Z</time>
      </trkpt>
      <trkpt lat="43.25888" lon="2.41287">
        <ele>125</ele>
        <time>2020-06-07T12:16:09Z</time>
      </trkpt>
      <trkpt lat="43.25869" lon="2.41284">
        <ele>125</ele>
        <time>2020-06-07T12:16:12Z</time>
      </trkpt>
      <trkpt lat="43.25867" lon="2.41284">
        <ele>125</ele>
        <time>2020-06-07T12:16:13Z</time>
      </trkpt>
      <trkpt lat="43.25821" lon="2.41269">
        <ele>124</ele>
        <time>2020-06-07T12:16:21Z</time>
      </trkpt>
      <trkpt lat="43.25812" lon="2.41267">
        <ele>124</ele>
        <time>2020-06-07T12:16:23Z</time>
      </trkpt>
      <trkpt lat="43.25807" lon="2.4127">
        <ele>124</ele>
        <time>2020-06-07T12:16:24Z</time>
      </trkpt>
      <trkpt lat="43.25801" lon="2.41273">
        <ele>124</ele>
        <time>2020-06-07T12:16:25Z</time>
      </trkpt>
      <trkpt lat="43.2581" lon="2.41298">
        <ele>124</ele>
        <time>2020-06-07T12:16:28Z</time>
      </trkpt>
      <trkpt lat="43.25817" lon="2.41334">
        <ele>124</ele>
        <time>2020-06-07T12:16:33Z</time>
      </trkpt>
      <trkpt lat="43.25839" lon="2.41472">
        <ele>125</ele>
        <time>2020-06-07T12:16:52Z</time>
      </trkpt>
      <trkpt lat="43.25845" lon="2.41488">
        <ele>125</ele>
        <time>2020-06-07T12:16:54Z</time>
      </trkpt>
      <trkpt lat="43.25821" lon="2.41517">
        <ele>125</ele>
        <time>2020-06-07T12:17:00Z</time>
      </trkpt>
      <trkpt lat="43.25813" lon="2.4153">
        <ele>125</ele>
        <time>2020-06-07T12:17:02Z</time>
      </trkpt>
      <trkpt lat="43.25796" lon="2.41586">
        <ele>126</ele>
        <time>2020-06-07T12:17:10Z</time>
      </trkpt>
      <trkpt lat="43.25793" lon="2.41594">
        <ele>126</ele>
        <time>2020-06-07T12:17:11Z</time>
      </trkpt>
      <trkpt lat="43.25789" lon="2.41603">
        <ele>126</ele>
        <time>2020-06-07T12:17:12Z</time>
      </trkpt>
      <trkpt lat="43.25768" lon="2.41667">
        <ele>126</ele>
        <time>2020-06-07T12:17:21Z</time>
      </trkpt>
      <trkpt lat="43.25759" lon="2.41697">
        <ele>126</ele>
        <time>2020-06-07T12:17:26Z</time>
      </trkpt>
      <trkpt lat="43.25754" lon="2.41711">
        <ele>126</ele>
        <time>2020-06-07T12:17:28Z</time>
      </trkpt>
      <trkpt lat="43.25738" lon="2.41758">
        <ele>127</ele>
        <time>2020-06-07T12:17:34Z</time>
      </trkpt>
      <trkpt lat="43.25715" lon="2.41827">
        <ele>127</ele>
        <time>2020-06-07T12:17:44Z</time>
      </trkpt>
      <trkpt lat="43.25659" lon="2.41987">
        <ele>124</ele>
        <time>2020-06-07T12:18:07Z</time>
      </trkpt>
      <trkpt lat="43.25572" lon="2.42251">
        <ele>118</ele>
        <time>2020-06-07T12:18:45Z</time>
      </trkpt>
      <trkpt lat="43.25487" lon="2.42497">
        <ele>119</ele>
        <time>2020-06-07T12:19:20Z</time>
      </trkpt>
      <trkpt lat="43.25459" lon="2.42532">
        <ele>118</ele>
        <time>2020-06-07T12:19:27Z</time>
      </trkpt>
      <trkpt lat="43.25373" lon="2.4261">
        <ele>116</ele>
        <time>2020-06-07T12:19:45Z</time>
      </trkpt>
      <trkpt lat="43.25354" lon="2.42638">
        <ele>116</ele>
        <time>2020-06-07T12:19:50Z</time>
      </trkpt>
      <trkpt lat="43.2531" lon="2.42798">
        <ele>116</ele>
        <time>2020-06-07T12:20:12Z</time>
      </trkpt>
      <trkpt lat="43.25291" lon="2.4287">
        <ele>117</ele>
        <time>2020-06-07T12:20:22Z</time>
      </trkpt>
      <trkpt lat="43.25285" lon="2.4292">
        <ele>118</ele>
        <time>2020-06-07T12:20:29Z</time>
      </trkpt>
      <trkpt lat="43.2528" lon="2.43151">
        <ele>118</ele>
        <time>2020-06-07T12:20:59Z</time>
      </trkpt>
      <trkpt lat="43.25273" lon="2.43237">
        <ele>116</ele>
        <time>2020-06-07T12:21:10Z</time>
      </trkpt>
      <trkpt lat="43.25259" lon="2.4333">
        <ele>112</ele>
        <time>2020-06-07T12:21:22Z</time>
      </trkpt>
      <trkpt lat="43.25231" lon="2.43441">
        <ele>111</ele>
        <time>2020-06-07T12:21:37Z</time>
      </trkpt>
      <trkpt lat="43.25224" lon="2.43472">
        <ele>110</ele>
        <time>2020-06-07T12:21:42Z</time>
      </trkpt>
      <trkpt lat="43.25214" lon="2.43521">
        <ele>109</ele>
        <time>2020-06-07T12:21:48Z</time>
      </trkpt>
      <trkpt lat="43.25212" lon="2.43545">
        <ele>109</ele>
        <time>2020-06-07T12:21:51Z</time>
      </trkpt>
      <trkpt lat="43.25216" lon="2.43668">
        <ele>108</ele>
        <time>2020-06-07T12:22:07Z</time>
      </trkpt>
      <trkpt lat="43.25215" lon="2.43699">
        <ele>108</ele>
        <time>2020-06-07T12:22:11Z</time>
      </trkpt>
      <trkpt lat="43.25212" lon="2.43734">
        <ele>108</ele>
        <time>2020-06-07T12:22:16Z</time>
      </trkpt>
      <trkpt lat="43.25202" lon="2.4382">
        <ele>108</ele>
        <time>2020-06-07T12:22:27Z</time>
      </trkpt>
      <trkpt lat="43.25198" lon="2.43872">
        <ele>109</ele>
        <time>2020-06-07T12:22:34Z</time>
      </trkpt>
      <trkpt lat="43.25197" lon="2.4396">
        <ele>112</ele>
        <time>2020-06-07T12:22:45Z</time>
      </trkpt>
      <trkpt lat="43.25188" lon="2.43954">
        <ele>112</ele>
        <time>2020-06-07T12:22:47Z</time>
      </trkpt>
      <trkpt lat="43.25168" lon="2.43947">
        <ele>111</ele>
        <time>2020-06-07T12:22:51Z</time>
      </trkpt>
      <trkpt lat="43.25149" lon="2.43945">
        <ele>111</ele>
        <time>2020-06-07T12:22:54Z</time>
      </trkpt>
      <trkpt lat="43.25081" lon="2.43958">
        <ele>111</ele>
        <time>2020-06-07T12:23:06Z</time>
      </trkpt>
      <trkpt lat="43.25056" lon="2.43959">
        <ele>111</ele>
        <time>2020-06-07T12:23:11Z</time>
      </trkpt>
      <trkpt lat="43.25003" lon="2.43954">
        <ele>111</ele>
        <time>2020-06-07T12:23:20Z</time>
      </trkpt>
      <trkpt lat="43.24977" lon="2.43948">
        <ele>111</ele>
        <time>2020-06-07T12:23:25Z</time>
      </trkpt>
      <trkpt lat="43.24928" lon="2.43924">
        <ele>110</ele>
        <time>2020-06-07T12:23:34Z</time>
      </trkpt>
      <trkpt lat="43.249" lon="2.43906">
        <ele>110</ele>
        <time>2020-06-07T12:23:40Z</time>
      </trkpt>
      <trkpt lat="43.2486" lon="2.4389">
        <ele>110</ele>
        <time>2020-06-07T12:23:47Z</time>
      </trkpt>
      <trkpt lat="43.248" lon="2.43824">
        <ele>110</ele>
        <time>2020-06-07T12:24:01Z</time>
      </trkpt>
      <trkpt lat="43.24659" lon="2.43731">
        <ele>109</ele>
        <time>2020-06-07T12:24:29Z</time>
      </trkpt>
      <trkpt lat="43.24614" lon="2.43692">
        <ele>107</ele>
        <time>2020-06-07T12:24:38Z</time>
      </trkpt>
      <trkpt lat="43.24585" lon="2.43683">
        <ele>106</ele>
        <time>2020-06-07T12:24:43Z</time>
      </trkpt>
      <trkpt lat="43.24505" lon="2.43664">
        <ele>105</ele>
        <time>2020-06-07T12:24:58Z</time>
      </trkpt>
      <trkpt lat="43.24442" lon="2.43628">
        <ele>103</ele>
        <time>2020-06-07T12:25:10Z</time>
      </trkpt>
      <trkpt lat="43.24386" lon="2.43587">
        <ele>103</ele>
        <time>2020-06-07T12:25:21Z</time>
      </trkpt>
      <trkpt lat="43.24354" lon="2.43531">
        <ele>102</ele>
        <time>2020-06-07T12:25:30Z</time>
      </trkpt>
      <trkpt lat="43.24287" lon="2.43365">
        <ele>101</ele>
        <time>2020-06-07T12:25:55Z</time>
      </trkpt>
      <trkpt lat="43.24205" lon="2.43207">
        <ele>101</ele>
        <time>2020-06-07T12:26:20Z</time>
      </trkpt>
      <trkpt lat="43.24174" lon="2.43176">
        <ele>100</ele>
        <time>2020-06-07T12:26:27Z</time>
      </trkpt>
      <trkpt lat="43.24143" lon="2.43164">
        <ele>100</ele>
        <time>2020-06-07T12:26:33Z</time>
      </trkpt>
      <trkpt lat="43.24098" lon="2.43162">
        <ele>99</ele>
        <time>2020-06-07T12:26:41Z</time>
      </trkpt>
      <trkpt lat="43.24072" lon="2.4315">
        <ele>99</ele>
        <time>2020-06-07T12:26:46Z</time>
      </trkpt>
      <trkpt lat="43.24063" lon="2.43136">
        <ele>100</ele>
        <time>2020-06-07T12:26:48Z</time>
      </trkpt>
      <trkpt lat="43.24047" lon="2.43162">
        <ele>98</ele>
        <time>2020-06-07T12:26:53Z</time>
      </trkpt>
      <trkpt lat="43.23989" lon="2.43234">
        <ele>96</ele>
        <time>2020-06-07T12:27:06Z</time>
      </trkpt>
      <trkpt lat="43.23948" lon="2.43266">
        <ele>97</ele>
        <time>2020-06-07T12:27:15Z</time>
      </trkpt>
      <trkpt lat="43.23904" lon="2.43286">
        <ele>97</ele>
        <time>2020-06-07T12:27:23Z</time>
      </trkpt>
      <trkpt lat="43.23849" lon="2.433">
        <ele>97</ele>
        <time>2020-06-07T12:27:33Z</time>
      </trkpt>
      <trkpt lat="43.23755" lon="2.43312">
        <ele>97</ele>
        <time>2020-06-07T12:27:50Z</time>
      </trkpt>
      <trkpt lat="43.23169" lon="2.43407">
        <ele>95</ele>
        <time>2020-06-07T12:29:35Z</time>
      </trkpt>
      <trkpt lat="43.22915" lon="2.4346">
        <ele>95</ele>
        <time>2020-06-07T12:30:21Z</time>
      </trkpt>
      <trkpt lat="43.22872" lon="2.43478">
        <ele>94</ele>
        <time>2020-06-07T12:30:29Z</time>
      </trkpt>
      <trkpt lat="43.2283" lon="2.43503">
        <ele>93</ele>
        <time>2020-06-07T12:30:37Z</time>
      </trkpt>
      <trkpt lat="43.2263" lon="2.43614">
        <ele>93</ele>
        <time>2020-06-07T12:31:15Z</time>
      </trkpt>
      <trkpt lat="43.22515" lon="2.43662">
        <ele>94</ele>
        <time>2020-06-07T12:31:36Z</time>
      </trkpt>
      <trkpt lat="43.22477" lon="2.43663">
        <ele>96</ele>
        <time>2020-06-07T12:31:43Z</time>
      </trkpt>
      <trkpt lat="43.22448" lon="2.43652">
        <ele>97</ele>
        <time>2020-06-07T12:31:49Z</time>
      </trkpt>
      <trkpt lat="43.22319" lon="2.43547">
        <ele>96</ele>
        <time>2020-06-07T12:32:15Z</time>
      </trkpt>
      <trkpt lat="43.22291" lon="2.43536">
        <ele>95</ele>
        <time>2020-06-07T12:32:20Z</time>
      </trkpt>
      <trkpt lat="43.22264" lon="2.43534">
        <ele>94</ele>
        <time>2020-06-07T12:32:25Z</time>
      </trkpt>
      <trkpt lat="43.22234" lon="2.43542">
        <ele>94</ele>
        <time>2020-06-07T12:32:31Z</time>
      </trkpt>
      <trkpt lat="43.22194" lon="2.43577">
        <ele>95</ele>
        <time>2020-06-07T12:32:39Z</time>
      </trkpt>
      <trkpt lat="43.22039" lon="2.43742">
        <ele>89</ele>
        <time>2020-06-07T12:33:14Z</time>
      </trkpt>
      <trkpt lat="43.21918" lon="2.43857">
        <ele>88</ele>
        <time>2020-06-07T12:33:40Z</time>
      </trkpt>
      <trkpt lat="43.21883" lon="2.43881">
        <ele>88</ele>
        <time>2020-06-07T12:33:47Z</time>
      </trkpt>
      <trkpt lat="43.21852" lon="2.43892">
        <ele>89</ele>
        <time>2020-06-07T12:33:53Z</time>
      </trkpt>
      <trkpt lat="43.21785" lon="2.43907">
        <ele>89</ele>
        <time>2020-06-07T12:34:05Z</time>
      </trkpt>
      <trkpt lat="43.21705" lon="2.43955">
        <ele>91</ele>
        <time>2020-06-07T12:34:20Z</time>
      </trkpt>
      <trkpt lat="43.2162" lon="2.43994">
        <ele>90</ele>
        <time>2020-06-07T12:34:36Z</time>
      </trkpt>
      <trkpt lat="43.21484" lon="2.44052">
        <ele>91</ele>
        <time>2020-06-07T12:35:02Z</time>
      </trkpt>
      <trkpt lat="43.21463" lon="2.44064">
        <ele>92</ele>
        <time>2020-06-07T12:35:06Z</time>
      </trkpt>
      <trkpt lat="43.21433" lon="2.4409">
        <ele>93</ele>
        <time>2020-06-07T12:35:12Z</time>
      </trkpt>
      <trkpt lat="43.21372" lon="2.44136">
        <ele>92</ele>
        <time>2020-06-07T12:35:25Z</time>
      </trkpt>
      <trkpt lat="43.21304" lon="2.44177">
        <ele>93</ele>
        <time>2020-06-07T12:35:38Z</time>
      </trkpt>
      <trkpt lat="43.21274" lon="2.44199">
        <ele>94</ele>
        <time>2020-06-07T12:35:44Z</time>
      </trkpt>
      <trkpt lat="43.21254" lon="2.4421">
        <ele>94</ele>
        <time>2020-06-07T12:35:48Z</time>
      </trkpt>
      <trkpt lat="43.21199" lon="2.44226">
        <ele>96</ele>
        <time>2020-06-07T12:35:58Z</time>
      </trkpt>
      <trkpt lat="43.21175" lon="2.44246">
        <ele>97</ele>
        <time>2020-06-07T12:36:03Z</time>
      </trkpt>
      <trkpt lat="43.2115" lon="2.44273">
        <ele>97</ele>
        <time>2020-06-07T12:36:08Z</time>
      </trkpt>
      <trkpt lat="43.21131" lon="2.44299">
        <ele>97</ele>
        <time>2020-06-07T12:36:13Z</time>
      </trkpt>
      <trkpt lat="43.2112" lon="2.44321">
        <ele>97</ele>
        <time>2020-06-07T12:36:17Z</time>
      </trkpt>
      <trkpt lat="43.21111" lon="2.44333">
        <ele>96</ele>
        <time>2020-06-07T12:36:19Z</time>
      </trkpt>
      <trkpt lat="43.211" lon="2.44341">
        <ele>96</ele>
        <time>2020-06-07T12:36:21Z</time>
      </trkpt>
      <trkpt lat="43.21096" lon="2.44348">
        <ele>96</ele>
        <time>2020-06-07T12:36:22Z</time>
      </trkpt>
      <trkpt lat="43.21096" lon="2.44352">
        <ele>96</ele>
        <time>2020-06-07T12:36:23Z</time>
      </trkpt>
      <trkpt lat="43.21097" lon="2.4436">
        <ele>96</ele>
        <time>2020-06-07T12:36:24Z</time>
      </trkpt>
      <trkpt lat="43.21104" lon="2.44366">
        <ele>96</ele>
        <time>2020-06-07T12:36:25Z</time>
      </trkpt>
      <trkpt lat="43.21109" lon="2.44381">
        <ele>97</ele>
        <time>2020-06-07T12:36:27Z</time>
      </trkpt>
      <trkpt lat="43.21104" lon="2.44444">
        <ele>97</ele>
        <time>2020-06-07T12:36:36Z</time>
      </trkpt>
      <trkpt lat="43.2109" lon="2.44545">
        <ele>99</ele>
        <time>2020-06-07T12:36:49Z</time>
      </trkpt>
      <trkpt lat="43.21085" lon="2.44596">
        <ele>100</ele>
        <time>2020-06-07T12:36:56Z</time>
      </trkpt>
      <trkpt lat="43.21086" lon="2.44616">
        <ele>100</ele>
        <time>2020-06-07T12:36:58Z</time>
      </trkpt>
      <trkpt lat="43.2109" lon="2.44642">
        <ele>99</ele>
        <time>2020-06-07T12:37:02Z</time>
      </trkpt>
      <trkpt lat="43.21103" lon="2.44705">
        <ele>100</ele>
        <time>2020-06-07T12:37:10Z</time>
      </trkpt>
      <trkpt lat="43.21106" lon="2.44745">
        <ele>100</ele>
        <time>2020-06-07T12:37:15Z</time>
      </trkpt>
      <trkpt lat="43.21105" lon="2.44762">
        <ele>100</ele>
        <time>2020-06-07T12:37:17Z</time>
      </trkpt>
      <trkpt lat="43.2107" lon="2.44953">
        <ele>98</ele>
        <time>2020-06-07T12:37:43Z</time>
      </trkpt>
      <trkpt lat="43.21067" lon="2.44992">
        <ele>99</ele>
        <time>2020-06-07T12:37:48Z</time>
      </trkpt>
      <trkpt lat="43.21068" lon="2.45015">
        <ele>99</ele>
        <time>2020-06-07T12:37:51Z</time>
      </trkpt>
      <trkpt lat="43.21098" lon="2.45233">
        <ele>101</ele>
        <time>2020-06-07T12:38:20Z</time>
      </trkpt>
      <trkpt lat="43.211" lon="2.45274">
        <ele>102</ele>
        <time>2020-06-07T12:38:25Z</time>
      </trkpt>
      <trkpt lat="43.21099" lon="2.45303">
        <ele>102</ele>
        <time>2020-06-07T12:38:29Z</time>
      </trkpt>
      <trkpt lat="43.21097" lon="2.45317">
        <ele>102</ele>
        <time>2020-06-07T12:38:31Z</time>
      </trkpt>
      <trkpt lat="43.21091" lon="2.45328">
        <ele>102</ele>
        <time>2020-06-07T12:38:33Z</time>
      </trkpt>
      <trkpt lat="43.21089" lon="2.45343">
        <ele>103</ele>
        <time>2020-06-07T12:38:35Z</time>
      </trkpt>
      <trkpt lat="43.21092" lon="2.45351">
        <ele>103</ele>
        <time>2020-06-07T12:38:36Z</time>
      </trkpt>
      <trkpt lat="43.21095" lon="2.45356">
        <ele>103</ele>
        <time>2020-06-07T12:38:37Z</time>
      </trkpt>
      <trkpt lat="43.21108" lon="2.45365">
        <ele>104</ele>
        <time>2020-06-07T12:38:39Z</time>
      </trkpt>
      <trkpt lat="43.21123" lon="2.45385">
        <ele>105</ele>
        <time>2020-06-07T12:38:43Z</time>
      </trkpt>
      <trkpt lat="43.21142" lon="2.45421">
        <ele>106</ele>
        <time>2020-06-07T12:38:49Z</time>
      </trkpt>
      <trkpt lat="43.21155" lon="2.45461">
        <ele>106</ele>
        <time>2020-06-07T12:38:54Z</time>
      </trkpt>
      <trkpt lat="43.21161" lon="2.4549">
        <ele>106</ele>
        <time>2020-06-07T12:38:58Z</time>
      </trkpt>
      <trkpt lat="43.21165" lon="2.45537">
        <ele>105</ele>
        <time>2020-06-07T12:39:04Z</time>
      </trkpt>
      <trkpt lat="43.21177" lon="2.45703">
        <ele>104</ele>
        <time>2020-06-07T12:39:26Z</time>
      </trkpt>
      <trkpt lat="43.21186" lon="2.45795">
        <ele>104</ele>
        <time>2020-06-07T12:39:38Z</time>
      </trkpt>
      <trkpt lat="43.212" lon="2.45876">
        <ele>105</ele>
        <time>2020-06-07T12:39:49Z</time>
      </trkpt>
      <trkpt lat="43.21209" lon="2.45981">
        <ele>106</ele>
        <time>2020-06-07T12:40:03Z</time>
      </trkpt>
      <trkpt lat="43.21221" lon="2.46069">
        <ele>106</ele>
        <time>2020-06-07T12:40:14Z</time>
      </trkpt>
      <trkpt lat="43.21228" lon="2.46101">
        <ele>106</ele>
        <time>2020-06-07T12:40:18Z</time>
      </trkpt>
      <trkpt lat="43.21263" lon="2.46209">
        <ele>107</ele>
        <time>2020-06-07T12:40:34Z</time>
      </trkpt>
      <trkpt lat="43.2127" lon="2.4624">
        <ele>107</ele>
        <time>2020-06-07T12:40:38Z</time>
      </trkpt>
      <trkpt lat="43.21274" lon="2.46268">
        <ele>107</ele>
        <time>2020-06-07T12:40:42Z</time>
      </trkpt>
      <trkpt lat="43.21282" lon="2.4636">
        <ele>107</ele>
        <time>2020-06-07T12:40:54Z</time>
      </trkpt>
      <trkpt lat="43.21293" lon="2.46437">
        <ele>108</ele>
        <time>2020-06-07T12:41:04Z</time>
      </trkpt>
      <trkpt lat="43.21369" lon="2.46797">
        <ele>121</ele>
        <time>2020-06-07T12:41:53Z</time>
      </trkpt>
      <trkpt lat="43.21371" lon="2.46836">
        <ele>122</ele>
        <time>2020-06-07T12:41:58Z</time>
      </trkpt>
      <trkpt lat="43.21369" lon="2.46854">
        <ele>122</ele>
        <time>2020-06-07T12:42:00Z</time>
      </trkpt>
      <trkpt lat="43.21362" lon="2.46883">
        <ele>122</ele>
        <time>2020-06-07T12:42:04Z</time>
      </trkpt>
      <trkpt lat="43.21303" lon="2.47089">
        <ele>122</ele>
        <time>2020-06-07T12:42:33Z</time>
      </trkpt>
      <trkpt lat="43.213" lon="2.4711">
        <ele>122</ele>
        <time>2020-06-07T12:42:35Z</time>
      </trkpt>
      <trkpt lat="43.21299" lon="2.47127">
        <ele>122</ele>
        <time>2020-06-07T12:42:38Z</time>
      </trkpt>
      <trkpt lat="43.213" lon="2.47147">
        <ele>122</ele>
        <time>2020-06-07T12:42:40Z</time>
      </trkpt>
      <trkpt lat="43.21305" lon="2.47167">
        <ele>123</ele>
        <time>2020-06-07T12:42:43Z</time>
      </trkpt>
      <trkpt lat="43.21312" lon="2.47185">
        <ele>122</ele>
        <time>2020-06-07T12:42:46Z</time>
      </trkpt>
      <trkpt lat="43.2132" lon="2.47197">
        <ele>122</ele>
        <time>2020-06-07T12:42:48Z</time>
      </trkpt>
      <trkpt lat="43.21329" lon="2.47207">
        <ele>122</ele>
        <time>2020-06-07T12:42:50Z</time>
      </trkpt>
      <trkpt lat="43.21344" lon="2.47218">
        <ele>122</ele>
        <time>2020-06-07T12:42:53Z</time>
      </trkpt>
      <trkpt lat="43.21362" lon="2.47226">
        <ele>121</ele>
        <time>2020-06-07T12:42:56Z</time>
      </trkpt>
      <trkpt lat="43.21387" lon="2.4723">
        <ele>121</ele>
        <time>2020-06-07T12:43:01Z</time>
      </trkpt>
      <trkpt lat="43.21524" lon="2.47227">
        <ele>123</ele>
        <time>2020-06-07T12:43:25Z</time>
      </trkpt>
      <trkpt lat="43.21546" lon="2.47233">
        <ele>123</ele>
        <time>2020-06-07T12:43:29Z</time>
      </trkpt>
      <trkpt lat="43.2159" lon="2.47252">
        <ele>122</ele>
        <time>2020-06-07T12:43:37Z</time>
      </trkpt>
      <trkpt lat="43.21604" lon="2.4726">
        <ele>122</ele>
        <time>2020-06-07T12:43:40Z</time>
      </trkpt>
      <trkpt lat="43.2161" lon="2.47267">
        <ele>121</ele>
        <time>2020-06-07T12:43:41Z</time>
      </trkpt>
      <trkpt lat="43.21614" lon="2.47276">
        <ele>121</ele>
        <time>2020-06-07T12:43:43Z</time>
      </trkpt>
      <trkpt lat="43.21623" lon="2.47318">
        <ele>120</ele>
        <time>2020-06-07T12:43:48Z</time>
      </trkpt>
      <trkpt lat="43.2163" lon="2.47332">
        <ele>120</ele>
        <time>2020-06-07T12:43:51Z</time>
      </trkpt>
      <trkpt lat="43.21643" lon="2.47344">
        <ele>121</ele>
        <time>2020-06-07T12:43:53Z</time>
      </trkpt>
      <trkpt lat="43.21653" lon="2.4735">
        <ele>121</ele>
        <time>2020-06-07T12:43:55Z</time>
      </trkpt>
      <trkpt lat="43.21671" lon="2.47356">
        <ele>122</ele>
        <time>2020-06-07T12:43:59Z</time>
      </trkpt>
      <trkpt lat="43.21676" lon="2.47361">
        <ele>122</ele>
        <time>2020-06-07T12:44:00Z</time>
      </trkpt>
      <trkpt lat="43.21678" lon="2.47368">
        <ele>122</ele>
        <time>2020-06-07T12:44:01Z</time>
      </trkpt>
      <trkpt lat="43.21678" lon="2.47411">
        <ele>124</ele>
        <time>2020-06-07T12:44:06Z</time>
      </trkpt>
      <trkpt lat="43.21675" lon="2.47515">
        <ele>124</ele>
        <time>2020-06-07T12:44:20Z</time>
      </trkpt>
      <trkpt lat="43.21676" lon="2.47533">
        <ele>124</ele>
        <time>2020-06-07T12:44:22Z</time>
      </trkpt>
      <trkpt lat="43.21686" lon="2.47584">
        <ele>123</ele>
        <time>2020-06-07T12:44:29Z</time>
      </trkpt>
      <trkpt lat="43.21701" lon="2.47642">
        <ele>124</ele>
        <time>2020-06-07T12:44:37Z</time>
      </trkpt>
      <trkpt lat="43.21706" lon="2.47665">
        <ele>124</ele>
        <time>2020-06-07T12:44:40Z</time>
      </trkpt>
      <trkpt lat="43.21707" lon="2.47689">
        <ele>124</ele>
        <time>2020-06-07T12:44:43Z</time>
      </trkpt>
      <trkpt lat="43.21707" lon="2.47718">
        <ele>125</ele>
        <time>2020-06-07T12:44:47Z</time>
      </trkpt>
      <trkpt lat="43.21697" lon="2.4784">
        <ele>125</ele>
        <time>2020-06-07T12:45:03Z</time>
      </trkpt>
    </trkseg>
  </trk>
</gpx>